Wetterdaten: Freitag, 07.12.2018
Datum Zeit Temp. A. Feuchte A. Luftdruck Regen Wind Richtung Richtung Sonnenschein ET UV Solar Taupunkt Windchill Windböen
07.12.2018 00:00 4,4 °C 93 % 1021,5 hPa 0,0 mm 0,0 km/h (0 Bft) S 169 ° 0 min 0,000 mm 0,0 UV-I 0 W/m² 3,4 °C 4,4 °C 0,0 km/h (0 Bft)
07.12.2018 00:01 4,5 °C 93 % 1021,5 hPa 0,0 mm 0,0 km/h (0 Bft) S 169 ° 0 min 0,000 mm 0,0 UV-I 0 W/m² 3,5 °C 4,5 °C 0,0 km/h (0 Bft)
07.12.2018 00:03 4,4 °C 93 % 1021,5 hPa 0,0 mm 0,0 km/h (0 Bft) S 169 ° 0 min 0,000 mm 0,0 UV-I 0 W/m² 3,4 °C 4,4 °C 0,0 km/h (0 Bft)
07.12.2018 00:04 4,4 °C 93 % 1021,5 hPa 0,0 mm 0,0 km/h (0 Bft) S 169 ° 0 min 0,000 mm 0,0 UV-I 0 W/m² 3,4 °C 4,4 °C 0,0 km/h (0 Bft)
07.12.2018 00:05 4,4 °C 93 % 1021,5 hPa 0,0 mm 0,0 km/h (0 Bft) S 169 ° 0 min 0,000 mm 0,0 UV-I 0 W/m² 3,4 °C 4,4 °C 0,0 km/h (0 Bft)
07.12.2018 00:06 4,4 °C 93 % 1021,5 hPa 0,0 mm 0,0 km/h (0 Bft) S 169 ° 0 min 0,000 mm 0,0 UV-I 0 W/m² 3,4 °C 4,4 °C 0,0 km/h (0 Bft)
07.12.2018 00:07 4,4 °C 93 % 1021,5 hPa 0,0 mm 0,0 km/h (0 Bft) S 169 ° 0 min 0,000 mm 0,0 UV-I 0 W/m² 3,4 °C 4,4 °C 0,0 km/h (0 Bft)
07.12.2018 00:08 4,4 °C 93 % 1021,5 hPa 0,0 mm 0,0 km/h (0 Bft) S 169 ° 0 min 0,000 mm 0,0 UV-I 0 W/m² 3,4 °C 4,4 °C 0,0 km/h (0 Bft)
07.12.2018 00:09 4,3 °C 93 % 1021,5 hPa 0,0 mm 0,0 km/h (0 Bft) S 169 ° 0 min 0,000 mm 0,0 UV-I 0 W/m² 3,3 °C 4,3 °C 0,0 km/h (0 Bft)
07.12.2018 00:10 4,3 °C 93 % 1021,5 hPa 0,0 mm 0,0 km/h (0 Bft) S 169 ° 0 min 0,000 mm 0,0 UV-I 0 W/m² 3,3 °C 4,3 °C 0,0 km/h (0 Bft)
07.12.2018 00:11 4,3 °C 93 % 1021,6 hPa 0,0 mm 0,5 km/h (0 Bft) S 169 ° 0 min 0,000 mm 0,0 UV-I 0 W/m² 3,3 °C 4,3 °C 1,6 km/h (1 Bft)
07.12.2018 00:12 4,3 °C 93 % 1021,6 hPa 0,0 mm 2,9 km/h (1 Bft) S-SW 194 ° 0 min 0,000 mm 0,0 UV-I 0 W/m² 3,3 °C 4,3 °C 6,4 km/h (2 Bft)
07.12.2018 00:13 4,4 °C 93 % 1021,6 hPa 0,0 mm 7,5 km/h (2 Bft) S-SW 203 ° 0 min 0,000 mm 0,0 UV-I 0 W/m² 3,4 °C 2,6 °C 9,7 km/h (2 Bft)
07.12.2018 00:14 4,4 °C 93 % 1021,6 hPa 0,0 mm 6,6 km/h (2 Bft) S-SW 197 ° 0 min 0,000 mm 0,0 UV-I 0 W/m² 3,4 °C 2,8 °C 9,7 km/h (2 Bft)
07.12.2018 00:15 4,4 °C 93 % 1021,6 hPa 0,0 mm 7,3 km/h (2 Bft) S-SW 202 ° 0 min 0,000 mm 0,0 UV-I 0 W/m² 3,4 °C 2,6 °C 9,7 km/h (2 Bft)
07.12.2018 00:16 4,5 °C 93 % 1021,5 hPa 0,0 mm 5,3 km/h (1 Bft) S-SW 197 ° 0 min 0,000 mm 0,0 UV-I 0 W/m² 3,5 °C 3,4 °C 8,0 km/h (2 Bft)
07.12.2018 00:17 4,5 °C 93 % 1021,5 hPa 0,0 mm 2,0 km/h (1 Bft) S 178 ° 0 min 0,000 mm 0,0 UV-I 0 W/m² 3,5 °C 4,5 °C 3,2 km/h (1 Bft)
07.12.2018 00:18 4,6 °C 93 % 1021,5 hPa 0,0 mm 3,0 km/h (1 Bft) S-SW 206 ° 0 min 0,000 mm 0,0 UV-I 0 W/m² 3,6 °C 4,6 °C 6,4 km/h (2 Bft)
07.12.2018 00:19 4,6 °C 93 % 1021,6 hPa 0,0 mm 7,2 km/h (2 Bft) S-SW 193 ° 0 min 0,000 mm 0,0 UV-I 0 W/m² 3,6 °C 2,9 °C 11,3 km/h (2 Bft)
07.12.2018 00:20 4,7 °C 93 % 1021,6 hPa 0,0 mm 8,7 km/h (2 Bft) S 186 ° 0 min 0,000 mm 0,0 UV-I 0 W/m² 3,7 °C 2,6 °C 12,9 km/h (3 Bft)
07.12.2018 00:21 4,7 °C 93 % 1021,5 hPa 0,0 mm 6,1 km/h (2 Bft) S-SW 207 ° 0 min 0,000 mm 0,0 UV-I 0 W/m² 3,7 °C 3,3 °C 9,7 km/h (2 Bft)
07.12.2018 00:22 4,7 °C 93 % 1021,6 hPa 0,0 mm 6,7 km/h (2 Bft) S-SW 207 ° 0 min 0,000 mm 0,0 UV-I 0 W/m² 3,7 °C 3,2 °C 8,0 km/h (2 Bft)
07.12.2018 00:23 4,8 °C 93 % 1021,6 hPa 0,0 mm 4,8 km/h (1 Bft) S-SW 198 ° 0 min 0,000 mm 0,0 UV-I 0 W/m² 3,8 °C 3,9 °C 8,0 km/h (2 Bft)
07.12.2018 00:24 4,8 °C 93 % 1021,6 hPa 0,0 mm 7,9 km/h (2 Bft) S-SW 207 ° 0 min 0,000 mm 0,0 UV-I 0 W/m² 3,8 °C 2,9 °C 9,7 km/h (2 Bft)
07.12.2018 00:25 4,9 °C 93 % 1021,6 hPa 0,0 mm 8,4 km/h (2 Bft) S-SW 212 ° 0 min 0,000 mm 0,0 UV-I 0 W/m² 3,9 °C 2,9 °C 11,3 km/h (2 Bft)
07.12.2018 00:26 4,9 °C 93 % 1021,6 hPa 0,0 mm 7,3 km/h (2 Bft) S-SW 202 ° 0 min 0,000 mm 0,0 UV-I 0 W/m² 3,9 °C 3,2 °C 9,7 km/h (2 Bft)
07.12.2018 00:27 5,0 °C 93 % 1021,6 hPa 0,0 mm 8,6 km/h (2 Bft) S-SW 205 ° 0 min 0,000 mm 0,0 UV-I 0 W/m² 4,0 °C 3,0 °C 11,3 km/h (2 Bft)
07.12.2018 00:28 5,1 °C 93 % 1021,6 hPa 0,0 mm 6,6 km/h (2 Bft) S-SW 192 ° 0 min 0,000 mm 0,0 UV-I 0 W/m² 4,1 °C 3,6 °C 8,0 km/h (2 Bft)
07.12.2018 00:29 5,1 °C 93 % 1021,6 hPa 0,0 mm 7,3 km/h (2 Bft) S-SW 199 ° 0 min 0,000 mm 0,0 UV-I 0 W/m² 4,1 °C 3,4 °C 9,7 km/h (2 Bft)
07.12.2018 00:30 5,2 °C 93 % 1021,6 hPa 0,0 mm 4,5 km/h (1 Bft) S-SW 206 ° 0 min 0,000 mm 0,0 UV-I 0 W/m² 4,2 °C 5,2 °C 6,4 km/h (2 Bft)
07.12.2018 00:31 5,2 °C 93 % 1021,5 hPa 0,0 mm 4,0 km/h (1 Bft) S-SW 193 ° 0 min 0,000 mm 0,0 UV-I 0 W/m² 4,2 °C 5,2 °C 6,4 km/h (2 Bft)
07.12.2018 00:32 5,3 °C 93 % 1021,5 hPa 0,0 mm 6,4 km/h (2 Bft) S-SW 195 ° 0 min 0,000 mm 0,0 UV-I 0 W/m² 4,3 °C 3,9 °C 9,7 km/h (2 Bft)
07.12.2018 00:33 5,3 °C 93 % 1021,5 hPa 0,0 mm 7,0 km/h (2 Bft) S-SW 192 ° 0 min 0,000 mm 0,0 UV-I 0 W/m² 4,3 °C 3,8 °C 8,0 km/h (2 Bft)
07.12.2018 00:34 5,3 °C 93 % 1021,5 hPa 0,0 mm 8,8 km/h (2 Bft) SW 217 ° 0 min 0,000 mm 0,0 UV-I 0 W/m² 4,3 °C 3,3 °C 11,3 km/h (2 Bft)
07.12.2018 00:35 5,3 °C 93 % 1021,5 hPa 0,0 mm 8,0 km/h (2 Bft) S 188 ° 0 min 0,000 mm 0,0 UV-I 0 W/m² 4,3 °C 3,5 °C 9,7 km/h (2 Bft)
07.12.2018 00:36 5,4 °C 93 % 1021,5 hPa 0,0 mm 7,8 km/h (2 Bft) S-SO 167 ° 0 min 0,000 mm 0,0 UV-I 0 W/m² 4,4 °C 3,7 °C 12,9 km/h (3 Bft)
07.12.2018 00:37 5,4 °C 93 % 1021,5 hPa 0,0 mm 7,0 km/h (2 Bft) SW 217 ° 0 min 0,000 mm 0,0 UV-I 0 W/m² 4,4 °C 3,9 °C 9,7 km/h (2 Bft)
07.12.2018 00:38 5,4 °C 93 % 1021,5 hPa 0,0 mm 8,6 km/h (2 Bft) S-SW 195 ° 0 min 0,000 mm 0,0 UV-I 0 W/m² 4,4 °C 3,5 °C 11,3 km/h (2 Bft)
07.12.2018 00:39 5,4 °C 93 % 1021,6 hPa 0,0 mm 7,2 km/h (2 Bft) S 185 ° 0 min 0,000 mm 0,0 UV-I 0 W/m² 4,4 °C 3,8 °C 11,3 km/h (2 Bft)
07.12.2018 00:40 5,4 °C 93 % 1021,5 hPa 0,0 mm 8,8 km/h (2 Bft) S-SW 194 ° 0 min 0,000 mm 0,0 UV-I 0 W/m² 4,4 °C 3,4 °C 12,9 km/h (3 Bft)
07.12.2018 00:41 5,5 °C 93 % 1021,5 hPa 0,0 mm 7,7 km/h (2 Bft) S 186 ° 0 min 0,000 mm 0,0 UV-I 0 W/m² 4,5 °C 3,8 °C 9,7 km/h (2 Bft)
07.12.2018 00:42 5,5 °C 93 % 1021,5 hPa 0,0 mm 6,4 km/h (2 Bft) S 186 ° 0 min 0,000 mm 0,0 UV-I 0 W/m² 4,5 °C 4,2 °C 9,7 km/h (2 Bft)
07.12.2018 00:43 5,6 °C 92 % 1021,6 hPa 0,0 mm 9,9 km/h (2 Bft) S-SW 199 ° 0 min 0,000 mm 0,0 UV-I 0 W/m² 4,4 °C 3,4 °C 12,9 km/h (3 Bft)
07.12.2018 00:44 5,6 °C 92 % 1021,5 hPa 0,0 mm 6,4 km/h (2 Bft) S-SW 206 ° 0 min 0,000 mm 0,0 UV-I 0 W/m² 4,4 °C 4,3 °C 8,0 km/h (2 Bft)
07.12.2018 00:45 5,6 °C 92 % 1021,5 hPa 0,0 mm 5,2 km/h (1 Bft) S-SW 200 ° 0 min 0,000 mm 0,0 UV-I 0 W/m² 4,4 °C 4,7 °C 8,0 km/h (2 Bft)
07.12.2018 00:46 5,6 °C 92 % 1021,4 hPa 0,0 mm 5,4 km/h (1 Bft) S 186 ° 0 min 0,000 mm 0,0 UV-I 0 W/m² 4,4 °C 4,6 °C 8,0 km/h (2 Bft)
07.12.2018 00:47 5,6 °C 92 % 1021,4 hPa 0,0 mm 7,6 km/h (2 Bft) S-SW 204 ° 0 min 0,000 mm 0,0 UV-I 0 W/m² 4,4 °C 3,9 °C 9,7 km/h (2 Bft)
07.12.2018 00:48 5,6 °C 92 % 1021,4 hPa 0,0 mm 7,0 km/h (2 Bft) S-SW 209 ° 0 min 0,000 mm 0,0 UV-I 0 W/m² 4,4 °C 4,1 °C 9,7 km/h (2 Bft)
07.12.2018 00:49 5,6 °C 92 % 1021,4 hPa 0,0 mm 3,5 km/h (1 Bft) S-SW 205 ° 0 min 0,000 mm 0,0 UV-I 0 W/m² 4,4 °C 5,6 °C 6,4 km/h (2 Bft)
07.12.2018 00:50 5,7 °C 92 % 1021,4 hPa 0,0 mm 6,0 km/h (2 Bft) S-SW 202 ° 0 min 0,000 mm 0,0 UV-I 0 W/m² 4,5 °C 4,5 °C 9,7 km/h (2 Bft)
07.12.2018 00:51 5,7 °C 92 % 1021,3 hPa 0,0 mm 4,2 km/h (1 Bft) S-SW 194 ° 0 min 0,000 mm 0,0 UV-I 0 W/m² 4,5 °C 5,7 °C 6,4 km/h (2 Bft)
07.12.2018 00:52 5,7 °C 92 % 1021,2 hPa 0,0 mm 2,4 km/h (1 Bft) S-SW 194 ° 0 min 0,000 mm 0,0 UV-I 0 W/m² 4,5 °C 5,7 °C 3,2 km/h (1 Bft)
07.12.2018 00:53 5,7 °C 92 % 1021,2 hPa 0,0 mm 0,3 km/h (0 Bft) S-SW 194 ° 0 min 0,000 mm 0,0 UV-I 0 W/m² 4,5 °C 5,7 °C 3,2 km/h (1 Bft)
07.12.2018 00:54 5,7 °C 92 % 1021,3 hPa 0,0 mm 1,9 km/h (1 Bft) SW 223 ° 0 min 0,000 mm 0,0 UV-I 0 W/m² 4,5 °C 5,7 °C 4,8 km/h (1 Bft)
07.12.2018 00:55 5,7 °C 92 % 1021,3 hPa 0,0 mm 4,5 km/h (1 Bft) S-SW 198 ° 0 min 0,000 mm 0,0 UV-I 0 W/m² 4,5 °C 5,7 °C 6,4 km/h (2 Bft)
07.12.2018 00:56 5,7 °C 92 % 1021,3 hPa 0,0 mm 3,1 km/h (1 Bft) S 190 ° 0 min 0,000 mm 0,0 UV-I 0 W/m² 4,5 °C 5,7 °C 4,8 km/h (1 Bft)
07.12.2018 00:57 5,7 °C 92 % 1021,3 hPa 0,0 mm 6,2 km/h (2 Bft) S-SW 194 ° 0 min 0,000 mm 0,0 UV-I 0 W/m² 4,5 °C 4,5 °C 9,7 km/h (2 Bft)
07.12.2018 00:58 5,7 °C 92 % 1021,2 hPa 0,0 mm 4,6 km/h (1 Bft) S 189 ° 0 min 0,000 mm 0,0 UV-I 0 W/m² 4,5 °C 5,0 °C 8,0 km/h (2 Bft)
07.12.2018 00:59 5,7 °C 92 % 1021,3 hPa 0,0 mm 3,8 km/h (1 Bft) S 169 ° 0 min 0,000 mm 0,0 UV-I 0 W/m² 4,5 °C 5,7 °C 8,0 km/h (2 Bft)
07.12.2018 01:00 5,8 °C 92 % 1021,3 hPa 0,0 mm 1,3 km/h (1 Bft) W-SW 248 ° 0 min 0,000 mm 0,0 UV-I 0 W/m² 4,6 °C 5,8 °C 4,8 km/h (1 Bft)
07.12.2018 01:01 5,7 °C 92 % 1021,3 hPa 0,0 mm 1,6 km/h (1 Bft) S-SW 207 ° 0 min 0,000 mm 0,0 UV-I 0 W/m² 4,5 °C 5,7 °C 6,4 km/h (2 Bft)
07.12.2018 01:02 5,7 °C 92 % 1021,2 hPa 0,0 mm 2,1 km/h (1 Bft) S-SW 198 ° 0 min 0,000 mm 0,0 UV-I 0 W/m² 4,5 °C 5,7 °C 4,8 km/h (1 Bft)
07.12.2018 01:03 5,7 °C 92 % 1021,2 hPa 0,0 mm 2,3 km/h (1 Bft) S-SW 198 ° 0 min 0,000 mm 0,0 UV-I 0 W/m² 4,5 °C 5,7 °C 3,2 km/h (1 Bft)
07.12.2018 01:04 5,8 °C 91 % 1021,2 hPa 0,0 mm 6,9 km/h (2 Bft) S-SW 213 ° 0 min 0,000 mm 0,0 UV-I 0 W/m² 4,4 °C 4,4 °C 12,9 km/h (3 Bft)
07.12.2018 01:05 5,8 °C 92 % 1021,2 hPa 0,0 mm 3,2 km/h (1 Bft) S 191 ° 0 min 0,000 mm 0,0 UV-I 0 W/m² 4,6 °C 5,8 °C 4,8 km/h (1 Bft)
07.12.2018 01:06 5,8 °C 92 % 1021,1 hPa 0,0 mm 1,6 km/h (1 Bft) S 191 ° 0 min 0,000 mm 0,0 UV-I 0 W/m² 4,6 °C 5,8 °C 4,8 km/h (1 Bft)
07.12.2018 01:07 5,8 °C 92 % 1021,1 hPa 0,0 mm 2,5 km/h (1 Bft) SW 214 ° 0 min 0,000 mm 0,0 UV-I 0 W/m² 4,6 °C 5,8 °C 4,8 km/h (1 Bft)
07.12.2018 01:08 5,8 °C 91 % 1021,1 hPa 0,0 mm 1,6 km/h (1 Bft) SW 214 ° 0 min 0,000 mm 0,0 UV-I 0 W/m² 4,4 °C 5,8 °C 3,2 km/h (1 Bft)
07.12.2018 01:09 5,8 °C 91 % 1021,1 hPa 0,0 mm 1,9 km/h (1 Bft) SW 214 ° 0 min 0,000 mm 0,0 UV-I 0 W/m² 4,4 °C 5,8 °C 3,2 km/h (1 Bft)
07.12.2018 01:10 5,8 °C 91 % 1021,1 hPa 0,0 mm 0,3 km/h (0 Bft) SW 214 ° 0 min 0,000 mm 0,0 UV-I 0 W/m² 4,4 °C 5,8 °C 1,6 km/h (1 Bft)
07.12.2018 01:11 5,8 °C 91 % 1021,1 hPa 0,0 mm 0,3 km/h (0 Bft) SW 214 ° 0 min 0,000 mm 0,0 UV-I 0 W/m² 4,4 °C 5,8 °C 1,6 km/h (1 Bft)
07.12.2018 01:12 5,8 °C 91 % 1021,1 hPa 0,0 mm 1,5 km/h (1 Bft) SW 215 ° 0 min 0,000 mm 0,0 UV-I 0 W/m² 4,4 °C 5,8 °C 3,2 km/h (1 Bft)
07.12.2018 01:13 5,8 °C 91 % 1021,1 hPa 0,0 mm 3,1 km/h (1 Bft) SW 232 ° 0 min 0,000 mm 0,0 UV-I 0 W/m² 4,4 °C 5,8 °C 4,8 km/h (1 Bft)
07.12.2018 01:14 5,8 °C 91 % 1021,1 hPa 0,0 mm 3,4 km/h (1 Bft) S-SW 204 ° 0 min 0,000 mm 0,0 UV-I 0 W/m² 4,4 °C 5,8 °C 6,4 km/h (2 Bft)
07.12.2018 01:15 5,9 °C 91 % 1021,2 hPa 0,0 mm 0,9 km/h (0 Bft) SW 228 ° 0 min 0,000 mm 0,0 UV-I 0 W/m² 4,5 °C 5,9 °C 1,6 km/h (1 Bft)
07.12.2018 01:16 5,8 °C 91 % 1021,2 hPa 0,0 mm 1,4 km/h (1 Bft) S-SW 198 ° 0 min 0,000 mm 0,0 UV-I 0 W/m² 4,4 °C 5,8 °C 6,4 km/h (2 Bft)
07.12.2018 01:17 5,9 °C 91 % 1021,2 hPa 0,0 mm 6,5 km/h (2 Bft) SW 217 ° 0 min 0,000 mm 0,0 UV-I 0 W/m² 4,5 °C 4,6 °C 8,0 km/h (2 Bft)
07.12.2018 01:18 5,9 °C 91 % 1021,1 hPa 0,0 mm 6,6 km/h (2 Bft) SW 217 ° 0 min 0,000 mm 0,0 UV-I 0 W/m² 4,5 °C 4,6 °C 9,7 km/h (2 Bft)
07.12.2018 01:19 5,9 °C 91 % 1021,2 hPa 0,0 mm 4,9 km/h (1 Bft) SW 215 ° 0 min 0,000 mm 0,0 UV-I 0 W/m² 4,5 °C 5,1 °C 6,4 km/h (2 Bft)
07.12.2018 01:20 5,9 °C 91 % 1021,1 hPa 0,0 mm 2,7 km/h (1 Bft) SW 215 ° 0 min 0,000 mm 0,0 UV-I 0 W/m² 4,5 °C 5,9 °C 4,8 km/h (1 Bft)
07.12.2018 01:21 5,9 °C 91 % 1021,1 hPa 0,0 mm 1,0 km/h (0 Bft) SW 215 ° 0 min 0,000 mm 0,0 UV-I 0 W/m² 4,5 °C 5,9 °C 4,8 km/h (1 Bft)
07.12.2018 01:22 5,9 °C 91 % 1021,1 hPa 0,0 mm 0,0 km/h (0 Bft) SW 215 ° 0 min 0,000 mm 0,0 UV-I 0 W/m² 4,5 °C 5,9 °C 0,0 km/h (0 Bft)
07.12.2018 01:23 5,9 °C 91 % 1021,1 hPa 0,0 mm 3,0 km/h (1 Bft) S-SO 167 ° 0 min 0,000 mm 0,0 UV-I 0 W/m² 4,5 °C 5,9 °C 6,4 km/h (2 Bft)
07.12.2018 01:24 5,9 °C 91 % 1021,1 hPa 0,0 mm 2,3 km/h (1 Bft) S-SO 167 ° 0 min 0,000 mm 0,0 UV-I 0 W/m² 4,5 °C 5,9 °C 6,4 km/h (2 Bft)
07.12.2018 01:25 5,9 °C 91 % 1021,1 hPa 0,0 mm 0,0 km/h (0 Bft) S-SO 167 ° 0 min 0,000 mm 0,0 UV-I 0 W/m² 4,5 °C 5,9 °C 0,0 km/h (0 Bft)
07.12.2018 01:26 5,9 °C 91 % 1021,1 hPa 0,0 mm 0,5 km/h (0 Bft) S-SO 167 ° 0 min 0,000 mm 0,0 UV-I 0 W/m² 4,5 °C 5,9 °C 1,6 km/h (1 Bft)
07.12.2018 01:27 5,9 °C 91 % 1021,1 hPa 0,0 mm 1,1 km/h (1 Bft) S-SO 167 ° 0 min 0,000 mm 0,0 UV-I 0 W/m² 4,5 °C 5,9 °C 1,6 km/h (1 Bft)
07.12.2018 01:28 5,9 °C 91 % 1021,1 hPa 0,0 mm 1,1 km/h (1 Bft) S-SO 167 ° 0 min 0,000 mm 0,0 UV-I 0 W/m² 4,5 °C 5,9 °C 4,8 km/h (1 Bft)
07.12.2018 01:29 5,9 °C 91 % 1021,1 hPa 0,0 mm 0,0 km/h (0 Bft) S-SO 167 ° 0 min 0,000 mm 0,0 UV-I 0 W/m² 4,5 °C 5,9 °C 0,0 km/h (0 Bft)
07.12.2018 01:30 5,9 °C 90 % 1021,1 hPa 0,0 mm 2,0 km/h (1 Bft) SW 233 ° 0 min 0,000 mm 0,0 UV-I 0 W/m² 4,4 °C 5,9 °C 4,8 km/h (1 Bft)
07.12.2018 01:31 5,9 °C 91 % 1021,1 hPa 0,0 mm 4,2 km/h (1 Bft) S-SW 201 ° 0 min 0,000 mm 0,0 UV-I 0 W/m² 4,5 °C 5,9 °C 8,0 km/h (2 Bft)
07.12.2018 01:32 5,9 °C 90 % 1021,1 hPa 0,0 mm 4,6 km/h (1 Bft) S-SW 209 ° 0 min 0,000 mm 0,0 UV-I 0 W/m² 4,4 °C 5,3 °C 6,4 km/h (2 Bft)
07.12.2018 01:33 5,9 °C 90 % 1021,1 hPa 0,0 mm 3,5 km/h (1 Bft) S-SW 205 ° 0 min 0,000 mm 0,0 UV-I 0 W/m² 4,4 °C 5,9 °C 6,4 km/h (2 Bft)
07.12.2018 01:34 5,9 °C 90 % 1021,1 hPa 0,0 mm 0,9 km/h (0 Bft) S-SW 205 ° 0 min 0,000 mm 0,0 UV-I 0 W/m² 4,4 °C 5,9 °C 3,2 km/h (1 Bft)
07.12.2018 01:35 5,9 °C 90 % 1021,1 hPa 0,0 mm 1,2 km/h (1 Bft) S-SW 205 ° 0 min 0,000 mm 0,0 UV-I 0 W/m² 4,4 °C 5,9 °C 3,2 km/h (1 Bft)
07.12.2018 01:36 5,9 °C 90 % 1021,1 hPa 0,0 mm 0,3 km/h (0 Bft) S-SW 201 ° 0 min 0,000 mm 0,0 UV-I 0 W/m² 4,4 °C 5,9 °C 1,6 km/h (1 Bft)
07.12.2018 01:37 5,9 °C 90 % 1021,0 hPa 0,0 mm 4,5 km/h (1 Bft) SW 221 ° 0 min 0,000 mm 0,0 UV-I 0 W/m² 4,4 °C 5,9 °C 6,4 km/h (2 Bft)
07.12.2018 01:38 5,9 °C 90 % 1021,0 hPa 0,0 mm 3,7 km/h (1 Bft) SW 227 ° 0 min 0,000 mm 0,0 UV-I 0 W/m² 4,4 °C 5,9 °C 6,4 km/h (2 Bft)
07.12.2018 01:39 5,9 °C 90 % 1021,0 hPa 0,0 mm 4,5 km/h (1 Bft) S-SW 206 ° 0 min 0,000 mm 0,0 UV-I 0 W/m² 4,4 °C 5,9 °C 8,0 km/h (2 Bft)
07.12.2018 01:40 5,9 °C 90 % 1021,0 hPa 0,0 mm 3,3 km/h (1 Bft) S-SW 205 ° 0 min 0,000 mm 0,0 UV-I 0 W/m² 4,4 °C 5,9 °C 6,4 km/h (2 Bft)
07.12.2018 01:41 5,9 °C 90 % 1021,0 hPa 0,0 mm 1,7 km/h (1 Bft) S-SW 205 ° 0 min 0,000 mm 0,0 UV-I 0 W/m² 4,4 °C 5,9 °C 3,2 km/h (1 Bft)
07.12.2018 01:42 5,9 °C 90 % 1021,0 hPa 0,0 mm 1,9 km/h (1 Bft) W-SW 245 ° 0 min 0,000 mm 0,0 UV-I 0 W/m² 4,4 °C 5,9 °C 3,2 km/h (1 Bft)
07.12.2018 01:43 5,9 °C 90 % 1021,0 hPa 0,0 mm 1,2 km/h (1 Bft) W-SW 245 ° 0 min 0,000 mm 0,0 UV-I 0 W/m² 4,4 °C 5,9 °C 3,2 km/h (1 Bft)
07.12.2018 01:44 5,9 °C 90 % 1021,0 hPa 0,0 mm 1,8 km/h (1 Bft) S-SW 192 ° 0 min 0,000 mm 0,0 UV-I 0 W/m² 4,4 °C 5,9 °C 4,8 km/h (1 Bft)
07.12.2018 01:45 5,9 °C 90 % 1021,0 hPa 0,0 mm 0,9 km/h (0 Bft) S 191 ° 0 min 0,000 mm 0,0 UV-I 0 W/m² 4,4 °C 5,9 °C 3,2 km/h (1 Bft)
07.12.2018 01:46 5,9 °C 90 % 1021,0 hPa 0,0 mm 2,0 km/h (1 Bft) W-SW 238 ° 0 min 0,000 mm 0,0 UV-I 0 W/m² 4,4 °C 5,9 °C 8,0 km/h (2 Bft)
07.12.2018 01:47 5,9 °C 90 % 1021,0 hPa 0,0 mm 6,2 km/h (2 Bft) SW 236 ° 0 min 0,000 mm 0,0 UV-I 0 W/m² 4,4 °C 4,7 °C 9,7 km/h (2 Bft)
07.12.2018 01:48 5,9 °C 90 % 1021,0 hPa 0,0 mm 3,6 km/h (1 Bft) S-SW 206 ° 0 min 0,000 mm 0,0 UV-I 0 W/m² 4,4 °C 5,9 °C 6,4 km/h (2 Bft)
07.12.2018 01:49 6,0 °C 90 % 1021,0 hPa 0,0 mm 3,4 km/h (1 Bft) SW 227 ° 0 min 0,000 mm 0,0 UV-I 0 W/m² 4,5 °C 6,0 °C 4,8 km/h (1 Bft)
07.12.2018 01:50 6,1 °C 90 % 1021,0 hPa 0,0 mm 4,5 km/h (1 Bft) S-SW 195 ° 0 min 0,000 mm 0,0 UV-I 0 W/m² 4,6 °C 6,1 °C 8,0 km/h (2 Bft)
07.12.2018 01:51 6,1 °C 90 % 1021,0 hPa 0,0 mm 3,2 km/h (1 Bft) SW 221 ° 0 min 0,000 mm 0,0 UV-I 0 W/m² 4,6 °C 6,1 °C 4,8 km/h (1 Bft)
07.12.2018 01:52 6,1 °C 90 % 1021,0 hPa 0,0 mm 1,7 km/h (1 Bft) SW 221 ° 0 min 0,000 mm 0,0 UV-I 0 W/m² 4,6 °C 6,1 °C 3,2 km/h (1 Bft)
07.12.2018 01:53 6,2 °C 90 % 1021,0 hPa 0,0 mm 4,2 km/h (1 Bft) S-SW 204 ° 0 min 0,000 mm 0,0 UV-I 0 W/m² 4,7 °C 6,2 °C 8,0 km/h (2 Bft)
07.12.2018 01:54 6,2 °C 90 % 1021,0 hPa 0,0 mm 2,9 km/h (1 Bft) S-SW 204 ° 0 min 0,000 mm 0,0 UV-I 0 W/m² 4,7 °C 6,2 °C 6,4 km/h (2 Bft)
07.12.2018 01:55 6,2 °C 89 % 1020,9 hPa 0,0 mm 4,3 km/h (1 Bft) S 184 ° 0 min 0,000 mm 0,0 UV-I 0 W/m² 4,5 °C 6,2 °C 9,7 km/h (2 Bft)
07.12.2018 01:56 6,2 °C 89 % 1020,8 hPa 0,0 mm 2,3 km/h (1 Bft) S 184 ° 0 min 0,000 mm 0,0 UV-I 0 W/m² 4,5 °C 6,2 °C 6,4 km/h (2 Bft)
07.12.2018 01:57 6,2 °C 89 % 1020,9 hPa 0,0 mm 0,7 km/h (0 Bft) S 184 ° 0 min 0,000 mm 0,0 UV-I 0 W/m² 4,5 °C 6,2 °C 3,2 km/h (1 Bft)
07.12.2018 01:58 6,2 °C 89 % 1020,9 hPa 0,0 mm 0,0 km/h (0 Bft) S 184 ° 0 min 0,000 mm 0,0 UV-I 0 W/m² 4,5 °C 6,2 °C 0,0 km/h (0 Bft)
07.12.2018 01:59 6,3 °C 89 % 1020,8 hPa 0,0 mm 0,0 km/h (0 Bft) S 184 ° 0 min 0,000 mm 0,0 UV-I 0 W/m² 4,6 °C 6,3 °C 0,0 km/h (0 Bft)
07.12.2018 02:00 6,2 °C 89 % 1020,8 hPa 0,0 mm 0,0 km/h (0 Bft) S 184 ° 0 min 0,000 mm 0,0 UV-I 0 W/m² 4,5 °C 6,2 °C 0,0 km/h (0 Bft)
07.12.2018 02:01 6,3 °C 89 % 1020,8 hPa 0,0 mm 0,0 km/h (0 Bft) S 184 ° 0 min 0,000 mm 0,0 UV-I 0 W/m² 4,6 °C 6,3 °C 0,0 km/h (0 Bft)
07.12.2018 02:02 6,3 °C 89 % 1020,9 hPa 0,0 mm 0,0 km/h (0 Bft) S 184 ° 0 min 0,000 mm 0,0 UV-I 0 W/m² 4,6 °C 6,3 °C 0,0 km/h (0 Bft)
07.12.2018 02:03 6,3 °C 89 % 1020,8 hPa 0,0 mm 0,6 km/h (0 Bft) S-SW 211 ° 0 min 0,000 mm 0,0 UV-I 0 W/m² 4,6 °C 6,3 °C 3,2 km/h (1 Bft)
07.12.2018 02:04 6,3 °C 89 % 1020,8 hPa 0,0 mm 1,0 km/h (0 Bft) S-SW 211 ° 0 min 0,000 mm 0,0 UV-I 0 W/m² 4,6 °C 6,3 °C 3,2 km/h (1 Bft)
07.12.2018 02:05 6,3 °C 89 % 1020,8 hPa 0,0 mm 0,0 km/h (0 Bft) S-SW 211 ° 0 min 0,000 mm 0,0 UV-I 0 W/m² 4,6 °C 6,3 °C 0,0 km/h (0 Bft)
07.12.2018 02:06 6,3 °C 89 % 1020,8 hPa 0,0 mm 0,0 km/h (0 Bft) S-SW 211 ° 0 min 0,000 mm 0,0 UV-I 0 W/m² 4,6 °C 6,3 °C 0,0 km/h (0 Bft)
07.12.2018 02:07 6,3 °C 89 % 1020,8 hPa 0,0 mm 0,0 km/h (0 Bft) S-SW 211 ° 0 min 0,000 mm 0,0 UV-I 0 W/m² 4,6 °C 6,3 °C 0,0 km/h (0 Bft)
07.12.2018 02:08 6,4 °C 89 % 1020,9 hPa 0,0 mm 0,6 km/h (0 Bft) S-SW 211 ° 0 min 0,000 mm 0,0 UV-I 0 W/m² 4,7 °C 6,4 °C 1,6 km/h (1 Bft)
07.12.2018 02:09 6,4 °C 89 % 1020,9 hPa 0,0 mm 2,5 km/h (1 Bft) S-SW 211 ° 0 min 0,000 mm 0,0 UV-I 0 W/m² 4,7 °C 6,4 °C 3,2 km/h (1 Bft)
07.12.2018 02:10 6,4 °C 88 % 1020,8 hPa 0,0 mm 1,5 km/h (1 Bft) S-SW 197 ° 0 min 0,000 mm 0,0 UV-I 0 W/m² 4,6 °C 6,4 °C 4,8 km/h (1 Bft)
07.12.2018 02:11 6,4 °C 89 % 1020,8 hPa 0,0 mm 0,0 km/h (0 Bft) S-SW 197 ° 0 min 0,000 mm 0,0 UV-I 0 W/m² 4,7 °C 6,4 °C 0,0 km/h (0 Bft)
07.12.2018 02:12 6,4 °C 89 % 1020,9 hPa 0,0 mm 0,3 km/h (0 Bft) S-SW 197 ° 0 min 0,000 mm 0,0 UV-I 0 W/m² 4,7 °C 6,4 °C 1,6 km/h (1 Bft)
07.12.2018 02:13 6,4 °C 88 % 1020,9 hPa 0,0 mm 2,0 km/h (1 Bft) SO 146 ° 0 min 0,000 mm 0,0 UV-I 0 W/m² 4,6 °C 6,4 °C 4,8 km/h (1 Bft)
07.12.2018 02:14 6,5 °C 88 % 1020,8 hPa 0,0 mm 2,6 km/h (1 Bft) S-SW 198 ° 0 min 0,000 mm 0,0 UV-I 0 W/m² 4,7 °C 6,5 °C 4,8 km/h (1 Bft)
07.12.2018 02:15 6,5 °C 88 % 1020,8 hPa 0,0 mm 1,3 km/h (1 Bft) S-SW 198 ° 0 min 0,000 mm 0,0 UV-I 0 W/m² 4,7 °C 6,5 °C 3,2 km/h (1 Bft)
07.12.2018 02:16 6,5 °C 88 % 1020,8 hPa 0,0 mm 1,9 km/h (1 Bft) S-SW 198 ° 0 min 0,000 mm 0,0 UV-I 0 W/m² 4,7 °C 6,5 °C 3,2 km/h (1 Bft)
07.12.2018 02:17 6,6 °C 88 % 1020,8 hPa 0,0 mm 2,8 km/h (1 Bft) S-SW 196 ° 0 min 0,000 mm 0,0 UV-I 0 W/m² 4,8 °C 6,6 °C 6,4 km/h (2 Bft)
07.12.2018 02:18 6,6 °C 88 % 1020,8 hPa 0,0 mm 3,9 km/h (1 Bft) W 279 ° 0 min 0,000 mm 0,0 UV-I 0 W/m² 4,8 °C 6,6 °C 6,4 km/h (2 Bft)
07.12.2018 02:19 6,6 °C 88 % 1020,8 hPa 0,0 mm 3,0 km/h (1 Bft) S-SW 201 ° 0 min 0,000 mm 0,0 UV-I 0 W/m² 4,8 °C 6,6 °C 6,4 km/h (2 Bft)
07.12.2018 02:20 6,6 °C 88 % 1020,7 hPa 0,0 mm 2,1 km/h (1 Bft) S-SW 209 ° 0 min 0,000 mm 0,0 UV-I 0 W/m² 4,8 °C 6,6 °C 6,4 km/h (2 Bft)
07.12.2018 02:21 6,6 °C 88 % 1020,7 hPa 0,0 mm 1,3 km/h (1 Bft) S 187 ° 0 min 0,000 mm 0,0 UV-I 0 W/m² 4,8 °C 6,6 °C 3,2 km/h (1 Bft)
07.12.2018 02:22 6,6 °C 88 % 1020,8 hPa 0,0 mm 1,3 km/h (1 Bft) S 187 ° 0 min 0,000 mm 0,0 UV-I 0 W/m² 4,8 °C 6,6 °C 3,2 km/h (1 Bft)
07.12.2018 02:23 6,6 °C 88 % 1020,8 hPa 0,0 mm 0,1 km/h (0 Bft) S 187 ° 0 min 0,000 mm 0,0 UV-I 0 W/m² 4,8 °C 6,6 °C 1,6 km/h (1 Bft)
07.12.2018 02:24 6,7 °C 88 % 1020,8 hPa 0,0 mm 0,0 km/h (0 Bft) S 187 ° 0 min 0,000 mm 0,0 UV-I 0 W/m² 4,9 °C 6,7 °C 0,0 km/h (0 Bft)
07.12.2018 02:25 6,7 °C 88 % 1020,8 hPa 0,0 mm 0,0 km/h (0 Bft) S 187 ° 0 min 0,000 mm 0,0 UV-I 0 W/m² 4,9 °C 6,7 °C 0,0 km/h (0 Bft)
07.12.2018 02:26 6,7 °C 88 % 1020,8 hPa 0,0 mm 2,1 km/h (1 Bft) S-SW 196 ° 0 min 0,000 mm 0,0 UV-I 0 W/m² 4,9 °C 6,7 °C 4,8 km/h (1 Bft)
07.12.2018 02:27 6,7 °C 88 % 1020,7 hPa 0,0 mm 0,0 km/h (0 Bft) S-SW 196 ° 0 min 0,000 mm 0,0 UV-I 0 W/m² 4,9 °C 6,7 °C 0,0 km/h (0 Bft)
07.12.2018 02:28 6,7 °C 88 % 1020,7 hPa 0,0 mm 0,0 km/h (0 Bft) S-SW 196 ° 0 min 0,000 mm 0,0 UV-I 0 W/m² 4,9 °C 6,7 °C 0,0 km/h (0 Bft)
07.12.2018 02:29 6,7 °C 88 % 1020,7 hPa 0,0 mm 0,9 km/h (0 Bft) SW 215 ° 0 min 0,000 mm 0,0 UV-I 0 W/m² 4,9 °C 6,7 °C 4,8 km/h (1 Bft)
07.12.2018 02:30 6,7 °C 88 % 1020,7 hPa 0,0 mm 2,3 km/h (1 Bft) W-SW 254 ° 0 min 0,000 mm 0,0 UV-I 0 W/m² 4,9 °C 6,7 °C 4,8 km/h (1 Bft)
07.12.2018 02:31 6,7 °C 88 % 1020,6 hPa 0,0 mm 4,0 km/h (1 Bft) S-SW 198 ° 0 min 0,000 mm 0,0 UV-I 0 W/m² 4,9 °C 6,7 °C 6,4 km/h (2 Bft)
07.12.2018 02:32 6,7 °C 88 % 1020,6 hPa 0,0 mm 6,3 km/h (2 Bft) S-SW 199 ° 0 min 0,000 mm 0,0 UV-I 0 W/m² 4,9 °C 5,6 °C 9,7 km/h (2 Bft)
07.12.2018 02:33 6,7 °C 88 % 1020,6 hPa 0,0 mm 3,7 km/h (1 Bft) SW 215 ° 0 min 0,000 mm 0,0 UV-I 0 W/m² 4,9 °C 6,7 °C 4,8 km/h (1 Bft)
07.12.2018 02:34 6,7 °C 87 % 1020,6 hPa 0,0 mm 1,7 km/h (1 Bft) SW 214 ° 0 min 0,000 mm 0,0 UV-I 0 W/m² 4,7 °C 6,7 °C 6,4 km/h (2 Bft)
07.12.2018 02:35 6,8 °C 87 % 1020,7 hPa 0,0 mm 4,0 km/h (1 Bft) S 183 ° 0 min 0,000 mm 0,0 UV-I 0 W/m² 4,8 °C 6,8 °C 8,0 km/h (2 Bft)
07.12.2018 02:36 6,8 °C 87 % 1020,7 hPa 0,0 mm 0,2 km/h (0 Bft) S 183 ° 0 min 0,000 mm 0,0 UV-I 0 W/m² 4,8 °C 6,8 °C 1,6 km/h (1 Bft)
07.12.2018 02:37 6,8 °C 87 % 1020,8 hPa 0,0 mm 2,7 km/h (1 Bft) S-SW 202 ° 0 min 0,000 mm 0,0 UV-I 0 W/m² 4,8 °C 6,8 °C 4,8 km/h (1 Bft)
07.12.2018 02:38 6,8 °C 87 % 1020,8 hPa 0,0 mm 3,9 km/h (1 Bft) S 190 ° 0 min 0,000 mm 0,0 UV-I 0 W/m² 4,8 °C 6,8 °C 6,4 km/h (2 Bft)
07.12.2018 02:39 6,8 °C 87 % 1020,7 hPa 0,0 mm 3,2 km/h (1 Bft) SW 232 ° 0 min 0,000 mm 0,0 UV-I 0 W/m² 4,8 °C 6,8 °C 4,8 km/h (1 Bft)
07.12.2018 02:40 6,9 °C 86 % 1020,8 hPa 0,0 mm 3,4 km/h (1 Bft) S-SW 211 ° 0 min 0,000 mm 0,0 UV-I 0 W/m² 4,7 °C 6,9 °C 4,8 km/h (1 Bft)
07.12.2018 02:41 6,9 °C 86 % 1020,8 hPa 0,0 mm 2,2 km/h (1 Bft) S-SW 208 ° 0 min 0,000 mm 0,0 UV-I 0 W/m² 4,7 °C 6,9 °C 4,8 km/h (1 Bft)
07.12.2018 02:42 6,9 °C 86 % 1020,7 hPa 0,0 mm 5,8 km/h (2 Bft) SW 217 ° 0 min 0,000 mm 0,0 UV-I 0 W/m² 4,7 °C 6,0 °C 8,0 km/h (2 Bft)
07.12.2018 02:43 6,9 °C 86 % 1020,8 hPa 0,0 mm 1,5 km/h (1 Bft) SW 217 ° 0 min 0,000 mm 0,0 UV-I 0 W/m² 4,7 °C 6,9 °C 4,8 km/h (1 Bft)
07.12.2018 02:44 7,0 °C 86 % 1020,8 hPa 0,0 mm 3,0 km/h (1 Bft) S 190 ° 0 min 0,000 mm 0,0 UV-I 0 W/m² 4,8 °C 7,0 °C 4,8 km/h (1 Bft)
07.12.2018 02:45 7,0 °C 86 % 1020,8 hPa 0,0 mm 2,6 km/h (1 Bft) S 191 ° 0 min 0,000 mm 0,0 UV-I 0 W/m² 4,8 °C 7,0 °C 4,8 km/h (1 Bft)
07.12.2018 02:46 7,0 °C 86 % 1020,8 hPa 0,0 mm 3,7 km/h (1 Bft) SW 224 ° 0 min 0,000 mm 0,0 UV-I 0 W/m² 4,8 °C 7,0 °C 6,4 km/h (2 Bft)
07.12.2018 02:47 7,1 °C 86 % 1020,8 hPa 0,0 mm 3,8 km/h (1 Bft) S-SW 198 ° 0 min 0,000 mm 0,0 UV-I 0 W/m² 4,9 °C 7,1 °C 6,4 km/h (2 Bft)
07.12.2018 02:48 7,1 °C 86 % 1020,8 hPa 0,0 mm 4,3 km/h (1 Bft) S-SW 195 ° 0 min 0,000 mm 0,0 UV-I 0 W/m² 4,9 °C 7,1 °C 6,4 km/h (2 Bft)
07.12.2018 02:49 7,1 °C 86 % 1020,8 hPa 0,0 mm 5,4 km/h (1 Bft) S-SW 205 ° 0 min 0,000 mm 0,0 UV-I 0 W/m² 4,9 °C 6,3 °C 8,0 km/h (2 Bft)
07.12.2018 02:50 7,1 °C 86 % 1020,8 hPa 0,0 mm 3,6 km/h (1 Bft) S-SW 198 ° 0 min 0,000 mm 0,0 UV-I 0 W/m² 4,9 °C 7,1 °C 6,4 km/h (2 Bft)
07.12.2018 02:51 7,1 °C 86 % 1020,8 hPa 0,0 mm 1,8 km/h (1 Bft) S-SW 198 ° 0 min 0,000 mm 0,0 UV-I 0 W/m² 4,9 °C 7,1 °C 3,2 km/h (1 Bft)
07.12.2018 02:52 7,1 °C 86 % 1020,8 hPa 0,0 mm 1,7 km/h (1 Bft) S-SW 198 ° 0 min 0,000 mm 0,0 UV-I 0 W/m² 4,9 °C 7,1 °C 3,2 km/h (1 Bft)
07.12.2018 02:53 7,1 °C 86 % 1020,8 hPa 0,0 mm 3,2 km/h (1 Bft) S-SW 205 ° 0 min 0,000 mm 0,0 UV-I 0 W/m² 4,9 °C 7,1 °C 6,4 km/h (2 Bft)
07.12.2018 02:54 7,1 °C 86 % 1020,8 hPa 0,0 mm 2,5 km/h (1 Bft) S-SW 204 ° 0 min 0,000 mm 0,0 UV-I 0 W/m² 4,9 °C 7,1 °C 4,8 km/h (1 Bft)
07.12.2018 02:55 7,1 °C 86 % 1020,8 hPa 0,0 mm 5,0 km/h (1 Bft) S-SW 200 ° 0 min 0,000 mm 0,0 UV-I 0 W/m² 4,9 °C 6,5 °C 8,0 km/h (2 Bft)
07.12.2018 02:56 7,2 °C 86 % 1020,8 hPa 0,0 mm 1,7 km/h (1 Bft) S-SW 201 ° 0 min 0,000 mm 0,0 UV-I 0 W/m² 5,0 °C 7,2 °C 3,2 km/h (1 Bft)
07.12.2018 02:57 7,1 °C 85 % 1020,8 hPa 0,0 mm 2,5 km/h (1 Bft) S 180 ° 0 min 0,000 mm 0,0 UV-I 0 W/m² 4,8 °C 7,1 °C 6,4 km/h (2 Bft)
07.12.2018 02:58 7,2 °C 85 % 1020,7 hPa 0,0 mm 2,1 km/h (1 Bft) S 188 ° 0 min 0,000 mm 0,0 UV-I 0 W/m² 4,9 °C 7,2 °C 4,8 km/h (1 Bft)
07.12.2018 02:59 7,2 °C 85 % 1020,7 hPa 0,0 mm 2,9 km/h (1 Bft) S-SW 203 ° 0 min 0,000 mm 0,0 UV-I 0 W/m² 4,9 °C 7,2 °C 8,0 km/h (2 Bft)
07.12.2018 03:00 7,2 °C 85 % 1020,6 hPa 0,0 mm 1,3 km/h (1 Bft) S-SW 203 ° 0 min 0,000 mm 0,0 UV-I 0 W/m² 4,9 °C 7,2 °C 3,2 km/h (1 Bft)
07.12.2018 03:01 7,2 °C 85 % 1020,7 hPa 0,0 mm 0,1 km/h (0 Bft) S-SW 203 ° 0 min 0,000 mm 0,0 UV-I 0 W/m² 4,9 °C 7,2 °C 1,6 km/h (1 Bft)
07.12.2018 03:02 7,2 °C 85 % 1020,6 hPa 0,0 mm 5,5 km/h (1 Bft) S-SW 199 ° 0 min 0,000 mm 0,0 UV-I 0 W/m² 4,9 °C 6,4 °C 8,0 km/h (2 Bft)
07.12.2018 03:03 7,3 °C 85 % 1020,6 hPa 0,0 mm 1,9 km/h (1 Bft) S-SW 200 ° 0 min 0,000 mm 0,0 UV-I 0 W/m² 4,9 °C 7,3 °C 4,8 km/h (1 Bft)
07.12.2018 03:04 7,3 °C 84 % 1020,6 hPa 0,0 mm 3,6 km/h (1 Bft) S 184 ° 0 min 0,000 mm 0,0 UV-I 0 W/m² 4,8 °C 7,3 °C 6,4 km/h (2 Bft)
07.12.2018 03:05 7,3 °C 84 % 1020,6 hPa 0,0 mm 0,0 km/h (0 Bft) S 184 ° 0 min 0,000 mm 0,0 UV-I 0 W/m² 4,8 °C 7,3 °C 0,0 km/h (0 Bft)
07.12.2018 03:06 7,3 °C 84 % 1020,6 hPa 0,0 mm 1,1 km/h (1 Bft) S 184 ° 0 min 0,000 mm 0,0 UV-I 0 W/m² 4,8 °C 7,3 °C 3,2 km/h (1 Bft)
07.12.2018 03:07 7,4 °C 84 % 1020,6 hPa 0,0 mm 6,3 km/h (2 Bft) S 179 ° 0 min 0,000 mm 0,0 UV-I 0 W/m² 4,9 °C 6,4 °C 9,7 km/h (2 Bft)
07.12.2018 03:08 7,4 °C 84 % 1020,5 hPa 0,0 mm 5,5 km/h (1 Bft) S-SW 200 ° 0 min 0,000 mm 0,0 UV-I 0 W/m² 4,9 °C 6,6 °C 8,0 km/h (2 Bft)
07.12.2018 03:09 7,4 °C 84 % 1020,5 hPa 0,0 mm 1,5 km/h (1 Bft) S 191 ° 0 min 0,000 mm 0,0 UV-I 0 W/m² 4,9 °C 7,4 °C 6,4 km/h (2 Bft)
07.12.2018 03:10 7,5 °C 84 % 1020,4 hPa 0,0 mm 5,7 km/h (1 Bft) S-SW 204 ° 0 min 0,000 mm 0,0 UV-I 0 W/m² 5,0 °C 6,7 °C 6,4 km/h (2 Bft)
07.12.2018 03:11 7,6 °C 84 % 1020,4 hPa 0,0 mm 6,2 km/h (2 Bft) S-SW 202 ° 0 min 0,000 mm 0,0 UV-I 0 W/m² 5,1 °C 6,7 °C 8,0 km/h (2 Bft)
07.12.2018 03:12 7,6 °C 84 % 1020,4 hPa 0,0 mm 5,0 km/h (1 Bft) S 188 ° 0 min 0,000 mm 0,0 UV-I 0 W/m² 5,1 °C 7,0 °C 8,0 km/h (2 Bft)
07.12.2018 03:13 7,6 °C 83 % 1020,3 hPa 0,0 mm 4,5 km/h (1 Bft) SW 224 ° 0 min 0,000 mm 0,0 UV-I 0 W/m² 4,9 °C 7,6 °C 8,0 km/h (2 Bft)
07.12.2018 03:14 7,7 °C 83 % 1020,3 hPa 0,0 mm 3,7 km/h (1 Bft) W-SW 242 ° 0 min 0,000 mm 0,0 UV-I 0 W/m² 5,0 °C 7,7 °C 8,0 km/h (2 Bft)
07.12.2018 03:15 7,7 °C 83 % 1020,3 hPa 0,0 mm 4,2 km/h (1 Bft) S-SW 197 ° 0 min 0,000 mm 0,0 UV-I 0 W/m² 5,0 °C 7,7 °C 6,4 km/h (2 Bft)
07.12.2018 03:16 7,7 °C 83 % 1020,4 hPa 0,0 mm 2,5 km/h (1 Bft) S-SW 207 ° 0 min 0,000 mm 0,0 UV-I 0 W/m² 5,0 °C 7,7 °C 4,8 km/h (1 Bft)
07.12.2018 03:17 7,7 °C 83 % 1020,4 hPa 0,0 mm 2,5 km/h (1 Bft) SW 232 ° 0 min 0,000 mm 0,0 UV-I 0 W/m² 5,0 °C 7,7 °C 4,8 km/h (1 Bft)
07.12.2018 03:18 7,8 °C 83 % 1020,3 hPa 0,0 mm 3,8 km/h (1 Bft) SW 215 ° 0 min 0,000 mm 0,0 UV-I 0 W/m² 5,1 °C 7,8 °C 4,8 km/h (1 Bft)
07.12.2018 03:19 7,8 °C 83 % 1020,3 hPa 0,0 mm 3,8 km/h (1 Bft) S-SW 205 ° 0 min 0,000 mm 0,0 UV-I 0 W/m² 5,1 °C 7,8 °C 6,4 km/h (2 Bft)
07.12.2018 03:20 7,8 °C 83 % 1020,3 hPa 0,0 mm 4,1 km/h (1 Bft) S-SW 202 ° 0 min 0,000 mm 0,0 UV-I 0 W/m² 5,1 °C 7,8 °C 6,4 km/h (2 Bft)
07.12.2018 03:21 7,9 °C 82 % 1020,3 hPa 0,0 mm 3,7 km/h (1 Bft) S-SW 202 ° 0 min 0,000 mm 0,0 UV-I 0 W/m² 5,0 °C 7,9 °C 4,8 km/h (1 Bft)
07.12.2018 03:22 7,9 °C 82 % 1020,2 hPa 0,0 mm 3,0 km/h (1 Bft) SW 220 ° 0 min 0,000 mm 0,0 UV-I 0 W/m² 5,0 °C 7,9 °C 6,4 km/h (2 Bft)
07.12.2018 03:23 7,9 °C 82 % 1020,2 hPa 0,0 mm 5,0 km/h (1 Bft) S-SW 198 ° 0 min 0,000 mm 0,0 UV-I 0 W/m² 5,0 °C 7,4 °C 8,0 km/h (2 Bft)
07.12.2018 03:24 7,9 °C 82 % 1020,2 hPa 0,0 mm 5,2 km/h (1 Bft) S-SW 210 ° 0 min 0,000 mm 0,0 UV-I 0 W/m² 5,0 °C 7,3 °C 8,0 km/h (2 Bft)
07.12.2018 03:25 7,9 °C 82 % 1020,2 hPa 0,0 mm 4,0 km/h (1 Bft) S-SW 205 ° 0 min 0,000 mm 0,0 UV-I 0 W/m² 5,0 °C 7,9 °C 6,4 km/h (2 Bft)
07.12.2018 03:26 7,9 °C 82 % 1020,1 hPa 0,0 mm 4,9 km/h (1 Bft) S-SW 205 ° 0 min 0,000 mm 0,0 UV-I 0 W/m² 5,0 °C 7,4 °C 6,4 km/h (2 Bft)
07.12.2018 03:27 8,0 °C 82 % 1020,1 hPa 0,0 mm 2,5 km/h (1 Bft) SW 221 ° 0 min 0,000 mm 0,0 UV-I 0 W/m² 5,1 °C 8,0 °C 4,8 km/h (1 Bft)
07.12.2018 03:28 8,0 °C 82 % 1020,0 hPa 0,0 mm 5,4 km/h (1 Bft) S-SW 200 ° 0 min 0,000 mm 0,0 UV-I 0 W/m² 5,1 °C 7,4 °C 8,0 km/h (2 Bft)
07.12.2018 03:29 8,0 °C 82 % 1020,0 hPa 0,0 mm 2,5 km/h (1 Bft) W-SW 237 ° 0 min 0,000 mm 0,0 UV-I 0 W/m² 5,1 °C 8,0 °C 4,8 km/h (1 Bft)
07.12.2018 03:30 8,0 °C 82 % 1020,0 hPa 0,0 mm 4,2 km/h (1 Bft) S-SW 211 ° 0 min 0,000 mm 0,0 UV-I 0 W/m² 5,1 °C 8,0 °C 6,4 km/h (2 Bft)
07.12.2018 03:31 8,0 °C 82 % 1020,0 hPa 0,0 mm 4,8 km/h (1 Bft) SW 214 ° 0 min 0,000 mm 0,0 UV-I 0 W/m² 5,1 °C 7,6 °C 6,4 km/h (2 Bft)
07.12.2018 03:32 8,1 °C 82 % 1020,0 hPa 0,0 mm 4,6 km/h (1 Bft) S-SW 210 ° 0 min 0,000 mm 0,0 UV-I 0 W/m² 5,2 °C 7,7 °C 6,4 km/h (2 Bft)
07.12.2018 03:33 8,1 °C 82 % 1020,0 hPa 0,0 mm 3,0 km/h (1 Bft) S-SW 210 ° 0 min 0,000 mm 0,0 UV-I 0 W/m² 5,2 °C 8,1 °C 6,4 km/h (2 Bft)
07.12.2018 03:34 8,1 °C 82 % 1020,0 hPa 0,0 mm 2,4 km/h (1 Bft) SW 218 ° 0 min 0,000 mm 0,0 UV-I 0 W/m² 5,2 °C 8,1 °C 3,2 km/h (1 Bft)
07.12.2018 03:35 8,1 °C 82 % 1020,0 hPa 0,0 mm 6,4 km/h (2 Bft) S 190 ° 0 min 0,000 mm 0,0 UV-I 0 W/m² 5,2 °C 7,2 °C 11,3 km/h (2 Bft)
07.12.2018 03:36 8,1 °C 81 % 1019,9 hPa 0,0 mm 9,5 km/h (2 Bft) S-SW 192 ° 0 min 0,000 mm 0,0 UV-I 0 W/m² 5,0 °C 6,5 °C 16,1 km/h (3 Bft)
07.12.2018 03:37 8,1 °C 81 % 1019,9 hPa 0,0 mm 7,9 km/h (2 Bft) S-SW 200 ° 0 min 0,000 mm 0,0 UV-I 0 W/m² 5,0 °C 6,8 °C 11,3 km/h (2 Bft)
07.12.2018 03:38 8,2 °C 81 % 1019,9 hPa 0,0 mm 6,4 km/h (2 Bft) S-SW 205 ° 0 min 0,000 mm 0,0 UV-I 0 W/m² 5,1 °C 7,3 °C 12,9 km/h (3 Bft)
07.12.2018 03:39 8,2 °C 81 % 1019,9 hPa 0,0 mm 6,6 km/h (2 Bft) S-SW 213 ° 0 min 0,000 mm 0,0 UV-I 0 W/m² 5,1 °C 7,2 °C 11,3 km/h (2 Bft)
07.12.2018 03:40 8,2 °C 81 % 1019,9 hPa 0,0 mm 4,7 km/h (1 Bft) SW 234 ° 0 min 0,000 mm 0,0 UV-I 0 W/m² 5,1 °C 7,8 °C 8,0 km/h (2 Bft)
07.12.2018 03:41 8,2 °C 81 % 1019,9 hPa 0,0 mm 4,6 km/h (1 Bft) S-SW 210 ° 0 min 0,000 mm 0,0 UV-I 0 W/m² 5,1 °C 7,9 °C 11,3 km/h (2 Bft)
07.12.2018 03:42 8,2 °C 81 % 1019,8 hPa 0,0 mm 2,2 km/h (1 Bft) S 180 ° 0 min 0,000 mm 0,0 UV-I 0 W/m² 5,1 °C 8,2 °C 6,4 km/h (2 Bft)
07.12.2018 03:43 8,2 °C 81 % 1019,8 hPa 0,0 mm 4,2 km/h (1 Bft) S-SW 198 ° 0 min 0,000 mm 0,0 UV-I 0 W/m² 5,1 °C 8,2 °C 9,7 km/h (2 Bft)
07.12.2018 03:44 8,2 °C 81 % 1019,9 hPa 0,0 mm 7,0 km/h (2 Bft) S-SW 201 ° 0 min 0,000 mm 0,0 UV-I 0 W/m² 5,1 °C 7,1 °C 9,7 km/h (2 Bft)
07.12.2018 03:45 8,3 °C 81 % 1019,9 hPa 0,0 mm 8,7 km/h (2 Bft) S-SW 198 ° 0 min 0,000 mm 0,0 UV-I 0 W/m² 5,2 °C 6,9 °C 12,9 km/h (3 Bft)
07.12.2018 03:46 8,3 °C 81 % 1019,9 hPa 0,0 mm 6,2 km/h (2 Bft) S-SW 194 ° 0 min 0,000 mm 0,0 UV-I 0 W/m² 5,2 °C 7,5 °C 9,7 km/h (2 Bft)
07.12.2018 03:47 8,3 °C 81 % 1019,9 hPa 0,0 mm 5,2 km/h (1 Bft) SW 223 ° 0 min 0,000 mm 0,0 UV-I 0 W/m² 5,2 °C 7,8 °C 8,0 km/h (2 Bft)
07.12.2018 03:48 8,3 °C 81 % 1019,9 hPa 0,0 mm 8,9 km/h (2 Bft) S 182 ° 0 min 0,000 mm 0,0 UV-I 0 W/m² 5,2 °C 6,8 °C 14,5 km/h (3 Bft)
07.12.2018 03:49 8,3 °C 81 % 1019,9 hPa 0,0 mm 4,1 km/h (1 Bft) W-SW 244 ° 0 min 0,000 mm 0,0 UV-I 0 W/m² 5,2 °C 8,3 °C 6,4 km/h (2 Bft)
07.12.2018 03:50 8,3 °C 81 % 1019,8 hPa 0,0 mm 1,9 km/h (1 Bft) SW 217 ° 0 min 0,000 mm 0,0 UV-I 0 W/m² 5,2 °C 8,3 °C 3,2 km/h (1 Bft)
07.12.2018 03:51 8,3 °C 81 % 1019,8 hPa 0,0 mm 5,2 km/h (1 Bft) S-SW 203 ° 0 min 0,000 mm 0,0 UV-I 0 W/m² 5,2 °C 7,8 °C 8,0 km/h (2 Bft)
07.12.2018 03:52 8,4 °C 80 % 1019,8 hPa 0,0 mm 6,9 km/h (2 Bft) S-SW 210 ° 0 min 0,000 mm 0,0 UV-I 0 W/m² 5,2 °C 7,4 °C 12,9 km/h (3 Bft)
07.12.2018 03:53 8,4 °C 81 % 1019,9 hPa 0,0 mm 7,7 km/h (2 Bft) S-SW 198 ° 0 min 0,000 mm 0,0 UV-I 0 W/m² 5,3 °C 7,2 °C 11,3 km/h (2 Bft)
07.12.2018 03:54 8,4 °C 80 % 1019,8 hPa 0,0 mm 9,2 km/h (2 Bft) W-SW 239 ° 0 min 0,000 mm 0,0 UV-I 0 W/m² 5,2 °C 6,9 °C 12,9 km/h (3 Bft)
07.12.2018 03:55 8,4 °C 80 % 1019,8 hPa 0,0 mm 7,0 km/h (2 Bft) S-SW 210 ° 0 min 0,000 mm 0,0 UV-I 0 W/m² 5,2 °C 7,4 °C 9,7 km/h (2 Bft)
07.12.2018 03:56 8,4 °C 80 % 1019,8 hPa 0,0 mm 9,4 km/h (2 Bft) S-SW 209 ° 0 min 0,000 mm 0,0 UV-I 0 W/m² 5,2 °C 6,8 °C 14,5 km/h (3 Bft)
07.12.2018 03:57 8,4 °C 80 % 1019,7 hPa 0,0 mm 8,2 km/h (2 Bft) S-SW 206 ° 0 min 0,000 mm 0,0 UV-I 0 W/m² 5,2 °C 7,1 °C 14,5 km/h (3 Bft)
07.12.2018 03:58 8,5 °C 80 % 1019,7 hPa 0,0 mm 7,6 km/h (2 Bft) S 188 ° 0 min 0,000 mm 0,0 UV-I 0 W/m² 5,3 °C 7,3 °C 11,3 km/h (2 Bft)
07.12.2018 03:59 8,5 °C 80 % 1019,7 hPa 0,0 mm 6,6 km/h (2 Bft) S-SW 202 ° 0 min 0,000 mm 0,0 UV-I 0 W/m² 5,3 °C 7,6 °C 9,7 km/h (2 Bft)
07.12.2018 04:00 8,6 °C 80 % 1019,6 hPa 0,0 mm 7,8 km/h (2 Bft) S-SW 196 ° 0 min 0,000 mm 0,0 UV-I 0 W/m² 5,3 °C 7,4 °C 12,9 km/h (3 Bft)
07.12.2018 04:01 8,6 °C 80 % 1019,6 hPa 0,0 mm 8,8 km/h (2 Bft) S-SW 208 ° 0 min 0,025 mm 0,0 UV-I 0 W/m² 5,3 °C 7,2 °C 11,3 km/h (2 Bft)
07.12.2018 04:02 8,6 °C 80 % 1019,5 hPa 0,0 mm 7,6 km/h (2 Bft) S-SW 192 ° 0 min 0,000 mm 0,0 UV-I 0 W/m² 5,3 °C 7,5 °C 12,9 km/h (3 Bft)
07.12.2018 04:03 8,6 °C 80 % 1019,5 hPa 0,0 mm 5,1 km/h (1 Bft) SW 215 ° 0 min 0,000 mm 0,0 UV-I 0 W/m² 5,3 °C 8,1 °C 11,3 km/h (2 Bft)
07.12.2018 04:04 8,6 °C 80 % 1019,5 hPa 0,0 mm 4,3 km/h (1 Bft) S-SW 192 ° 0 min 0,000 mm 0,0 UV-I 0 W/m² 5,3 °C 8,6 °C 8,0 km/h (2 Bft)
07.12.2018 04:05 8,6 °C 80 % 1019,6 hPa 0,0 mm 8,0 km/h (2 Bft) SW 220 ° 0 min 0,000 mm 0,0 UV-I 0 W/m² 5,3 °C 7,4 °C 14,5 km/h (3 Bft)
07.12.2018 04:06 8,6 °C 80 % 1019,5 hPa 0,0 mm 4,9 km/h (1 Bft) S-SW 197 ° 0 min 0,000 mm 0,0 UV-I 0 W/m² 5,3 °C 8,2 °C 9,7 km/h (2 Bft)
07.12.2018 04:07 8,7 °C 80 % 1019,5 hPa 0,0 mm 6,6 km/h (2 Bft) SW 230 ° 0 min 0,000 mm 0,0 UV-I 0 W/m² 5,4 °C 7,8 °C 11,3 km/h (2 Bft)
07.12.2018 04:08 8,7 °C 80 % 1019,5 hPa 0,0 mm 3,3 km/h (1 Bft) W-SW 240 ° 0 min 0,000 mm 0,0 UV-I 0 W/m² 5,4 °C 8,7 °C 8,0 km/h (2 Bft)
07.12.2018 04:09 8,7 °C 80 % 1019,5 hPa 0,0 mm 3,9 km/h (1 Bft) S-SW 196 ° 0 min 0,000 mm 0,0 UV-I 0 W/m² 5,4 °C 8,7 °C 6,4 km/h (2 Bft)
07.12.2018 04:10 8,7 °C 80 % 1019,5 hPa 0,0 mm 3,6 km/h (1 Bft) SW 222 ° 0 min 0,000 mm 0,0 UV-I 0 W/m² 5,4 °C 8,7 °C 4,8 km/h (1 Bft)
07.12.2018 04:11 8,7 °C 80 % 1019,4 hPa 0,0 mm 4,8 km/h (1 Bft) S-SW 212 ° 0 min 0,000 mm 0,0 UV-I 0 W/m² 5,4 °C 8,3 °C 9,7 km/h (2 Bft)
07.12.2018 04:12 8,7 °C 80 % 1019,5 hPa 0,0 mm 6,0 km/h (2 Bft) S-SW 211 ° 0 min 0,000 mm 0,0 UV-I 0 W/m² 5,4 °C 8,0 °C 11,3 km/h (2 Bft)
07.12.2018 04:13 8,7 °C 80 % 1019,4 hPa 0,0 mm 7,0 km/h (2 Bft) S-SW 198 ° 0 min 0,000 mm 0,0 UV-I 0 W/m² 5,4 °C 7,7 °C 11,3 km/h (2 Bft)
07.12.2018 04:14 8,8 °C 80 % 1019,4 hPa 0,0 mm 6,8 km/h (2 Bft) SW 219 ° 0 min 0,000 mm 0,0 UV-I 0 W/m² 5,5 °C 7,9 °C 11,3 km/h (2 Bft)
07.12.2018 04:15 8,8 °C 80 % 1019,3 hPa 0,0 mm 8,5 km/h (2 Bft) W-SW 249 ° 0 min 0,000 mm 0,0 UV-I 0 W/m² 5,5 °C 7,5 °C 14,5 km/h (3 Bft)
07.12.2018 04:16 8,8 °C 80 % 1019,3 hPa 0,0 mm 5,2 km/h (1 Bft) S 187 ° 0 min 0,000 mm 0,0 UV-I 0 W/m² 5,5 °C 8,3 °C 8,0 km/h (2 Bft)
07.12.2018 04:17 8,9 °C 79 % 1019,3 hPa 0,0 mm 3,4 km/h (1 Bft) W-SW 252 ° 0 min 0,000 mm 0,0 UV-I 0 W/m² 5,5 °C 8,9 °C 6,4 km/h (2 Bft)
07.12.2018 04:18 8,9 °C 79 % 1019,4 hPa 0,0 mm 2,7 km/h (1 Bft) S-SW 196 ° 0 min 0,000 mm 0,0 UV-I 0 W/m² 5,5 °C 8,9 °C 8,0 km/h (2 Bft)
07.12.2018 04:19 8,9 °C 79 % 1019,4 hPa 0,0 mm 8,9 km/h (2 Bft) W-SW 240 ° 0 min 0,000 mm 0,0 UV-I 0 W/m² 5,5 °C 7,5 °C 12,9 km/h (3 Bft)
07.12.2018 04:20 8,9 °C 79 % 1019,4 hPa 0,0 mm 5,8 km/h (2 Bft) W-SW 248 ° 0 min 0,000 mm 0,0 UV-I 0 W/m² 5,5 °C 8,3 °C 12,9 km/h (3 Bft)
07.12.2018 04:21 8,9 °C 79 % 1019,4 hPa 0,0 mm 2,6 km/h (1 Bft) SW 223 ° 0 min 0,000 mm 0,0 UV-I 0 W/m² 5,5 °C 8,9 °C 6,4 km/h (2 Bft)
07.12.2018 04:22 8,9 °C 79 % 1019,3 hPa 0,0 mm 3,6 km/h (1 Bft) S-SW 212 ° 0 min 0,000 mm 0,0 UV-I 0 W/m² 5,5 °C 8,9 °C 14,5 km/h (3 Bft)
07.12.2018 04:23 8,9 °C 79 % 1019,3 hPa 0,0 mm 9,5 km/h (2 Bft) W-SW 252 ° 0 min 0,000 mm 0,0 UV-I 0 W/m² 5,5 °C 7,4 °C 14,5 km/h (3 Bft)
07.12.2018 04:24 8,9 °C 79 % 1019,3 hPa 0,0 mm 4,1 km/h (1 Bft) S-SW 201 ° 0 min 0,000 mm 0,0 UV-I 0 W/m² 5,5 °C 8,9 °C 8,0 km/h (2 Bft)
07.12.2018 04:25 9,0 °C 79 % 1019,3 hPa 0,0 mm 2,7 km/h (1 Bft) W-SW 247 ° 0 min 0,000 mm 0,0 UV-I 0 W/m² 5,6 °C 9,0 °C 6,4 km/h (2 Bft)
07.12.2018 04:26 9,0 °C 79 % 1019,3 hPa 0,0 mm 4,3 km/h (1 Bft) SW 236 ° 0 min 0,000 mm 0,0 UV-I 0 W/m² 5,6 °C 9,0 °C 8,0 km/h (2 Bft)
07.12.2018 04:27 9,0 °C 79 % 1019,3 hPa 0,0 mm 4,1 km/h (1 Bft) S-SW 202 ° 0 min 0,000 mm 0,0 UV-I 0 W/m² 5,6 °C 9,0 °C 6,4 km/h (2 Bft)
07.12.2018 04:28 9,0 °C 79 % 1019,3 hPa 0,0 mm 5,6 km/h (1 Bft) S-SW 206 ° 0 min 0,000 mm 0,0 UV-I 0 W/m² 5,6 °C 8,4 °C 8,0 km/h (2 Bft)
07.12.2018 04:29 9,0 °C 79 % 1019,3 hPa 0,0 mm 6,8 km/h (2 Bft) S 186 ° 0 min 0,000 mm 0,0 UV-I 0 W/m² 5,6 °C 8,1 °C 9,7 km/h (2 Bft)
07.12.2018 04:30 9,0 °C 79 % 1019,3 hPa 0,0 mm 5,6 km/h (1 Bft) S-SW 193 ° 0 min 0,000 mm 0,0 UV-I 0 W/m² 5,6 °C 8,4 °C 9,7 km/h (2 Bft)
07.12.2018 04:31 9,0 °C 79 % 1019,2 hPa 0,0 mm 3,2 km/h (1 Bft) S-SW 194 ° 0 min 0,000 mm 0,0 UV-I 0 W/m² 5,6 °C 9,0 °C 4,8 km/h (1 Bft)
07.12.2018 04:32 9,0 °C 79 % 1019,3 hPa 0,0 mm 3,8 km/h (1 Bft) S-SW 193 ° 0 min 0,000 mm 0,0 UV-I 0 W/m² 5,6 °C 9,0 °C 4,8 km/h (1 Bft)
07.12.2018 04:33 9,1 °C 79 % 1019,2 hPa 0,0 mm 0,3 km/h (0 Bft) S-SW 193 ° 0 min 0,000 mm 0,0 UV-I 0 W/m² 5,7 °C 9,1 °C 3,2 km/h (1 Bft)
07.12.2018 04:34 9,0 °C 79 % 1019,2 hPa 0,0 mm 2,8 km/h (1 Bft) S-SW 194 ° 0 min 0,000 mm 0,0 UV-I 0 W/m² 5,6 °C 9,0 °C 4,8 km/h (1 Bft)
07.12.2018 04:35 9,0 °C 79 % 1019,2 hPa 0,0 mm 2,5 km/h (1 Bft) S-SW 193 ° 0 min 0,000 mm 0,0 UV-I 0 W/m² 5,6 °C 9,0 °C 3,2 km/h (1 Bft)
07.12.2018 04:36 9,0 °C 79 % 1019,2 hPa 0,0 mm 4,2 km/h (1 Bft) S-SW 197 ° 0 min 0,000 mm 0,0 UV-I 0 W/m² 5,6 °C 9,0 °C 6,4 km/h (2 Bft)
07.12.2018 04:37 9,0 °C 79 % 1019,2 hPa 0,0 mm 5,2 km/h (1 Bft) SW 218 ° 0 min 0,000 mm 0,0 UV-I 0 W/m² 5,6 °C 8,6 °C 8,0 km/h (2 Bft)
07.12.2018 04:38 9,0 °C 79 % 1019,2 hPa 0,0 mm 2,6 km/h (1 Bft) SW 218 ° 0 min 0,000 mm 0,0 UV-I 0 W/m² 5,6 °C 9,0 °C 4,8 km/h (1 Bft)
07.12.2018 04:39 9,0 °C 79 % 1019,2 hPa 0,0 mm 2,9 km/h (1 Bft) SW 218 ° 0 min 0,000 mm 0,0 UV-I 0 W/m² 5,6 °C 9,0 °C 4,8 km/h (1 Bft)
07.12.2018 04:40 9,0 °C 80 % 1019,2 hPa 0,0 mm 0,0 km/h (0 Bft) SW 218 ° 0 min 0,000 mm 0,0 UV-I 0 W/m² 5,7 °C 9,0 °C 0,0 km/h (0 Bft)
07.12.2018 04:41 9,0 °C 80 % 1019,2 hPa 0,0 mm 1,5 km/h (1 Bft) SW 218 ° 0 min 0,000 mm 0,0 UV-I 0 W/m² 5,7 °C 9,0 °C 3,2 km/h (1 Bft)
07.12.2018 04:42 9,0 °C 80 % 1019,2 hPa 0,0 mm 2,1 km/h (1 Bft) SW 218 ° 0 min 0,000 mm 0,0 UV-I 0 W/m² 5,7 °C 9,0 °C 4,8 km/h (1 Bft)
07.12.2018 04:43 9,0 °C 79 % 1019,2 hPa 0,0 mm 6,2 km/h (2 Bft) S-SW 195 ° 0 min 0,000 mm 0,0 UV-I 0 W/m² 5,6 °C 8,3 °C 9,7 km/h (2 Bft)
07.12.2018 04:44 8,9 °C 79 % 1019,2 hPa 0,0 mm 4,4 km/h (1 Bft) S-SW 195 ° 0 min 0,000 mm 0,0 UV-I 0 W/m² 5,5 °C 8,9 °C 6,4 km/h (2 Bft)
07.12.2018 04:45 8,9 °C 79 % 1019,2 hPa 0,0 mm 4,1 km/h (1 Bft) S-SW 195 ° 0 min 0,000 mm 0,0 UV-I 0 W/m² 5,5 °C 8,9 °C 4,8 km/h (1 Bft)
07.12.2018 04:46 8,9 °C 79 % 1019,2 hPa 0,0 mm 3,8 km/h (1 Bft) S 184 ° 0 min 0,000 mm 0,0 UV-I 0 W/m² 5,5 °C 8,9 °C 4,8 km/h (1 Bft)
07.12.2018 04:47 8,9 °C 79 % 1019,2 hPa 0,0 mm 3,1 km/h (1 Bft) S 190 ° 0 min 0,000 mm 0,0 UV-I 0 W/m² 5,5 °C 8,9 °C 4,8 km/h (1 Bft)
07.12.2018 04:48 8,9 °C 79 % 1019,1 hPa 0,0 mm 3,4 km/h (1 Bft) S-SW 198 ° 0 min 0,000 mm 0,0 UV-I 0 W/m² 5,5 °C 8,9 °C 4,8 km/h (1 Bft)
07.12.2018 04:49 8,9 °C 80 % 1019,1 hPa 0,0 mm 3,9 km/h (1 Bft) S-SW 206 ° 0 min 0,000 mm 0,0 UV-I 0 W/m² 5,6 °C 8,9 °C 6,4 km/h (2 Bft)
07.12.2018 04:50 8,9 °C 79 % 1019,1 hPa 0,0 mm 3,8 km/h (1 Bft) S-SW 198 ° 0 min 0,000 mm 0,0 UV-I 0 W/m² 5,5 °C 8,9 °C 6,4 km/h (2 Bft)
07.12.2018 04:51 8,9 °C 80 % 1019,1 hPa 0,0 mm 0,3 km/h (0 Bft) S-SW 198 ° 0 min 0,000 mm 0,0 UV-I 0 W/m² 5,6 °C 8,9 °C 1,6 km/h (1 Bft)
07.12.2018 04:52 8,9 °C 80 % 1019,1 hPa 0,0 mm 0,1 km/h (0 Bft) S-SW 198 ° 0 min 0,000 mm 0,0 UV-I 0 W/m² 5,6 °C 8,9 °C 1,6 km/h (1 Bft)
07.12.2018 04:53 8,9 °C 80 % 1019,1 hPa 0,0 mm 1,0 km/h (0 Bft) S-SW 198 ° 0 min 0,000 mm 0,0 UV-I 0 W/m² 5,6 °C 8,9 °C 3,2 km/h (1 Bft)
07.12.2018 04:54 8,8 °C 80 % 1019,1 hPa 0,0 mm 2,6 km/h (1 Bft) S-SW 194 ° 0 min 0,000 mm 0,0 UV-I 0 W/m² 5,5 °C 8,8 °C 4,8 km/h (1 Bft)
07.12.2018 04:55 8,8 °C 80 % 1019,1 hPa 0,0 mm 3,5 km/h (1 Bft) S 189 ° 0 min 0,000 mm 0,0 UV-I 0 W/m² 5,5 °C 8,8 °C 4,8 km/h (1 Bft)
07.12.2018 04:56 8,8 °C 80 % 1019,1 hPa 0,0 mm 3,4 km/h (1 Bft) S 190 ° 0 min 0,000 mm 0,0 UV-I 0 W/m² 5,5 °C 8,8 °C 4,8 km/h (1 Bft)
07.12.2018 04:57 8,8 °C 80 % 1019,1 hPa 0,0 mm 3,2 km/h (1 Bft) SW 227 ° 0 min 0,000 mm 0,0 UV-I 0 W/m² 5,5 °C 8,8 °C 6,4 km/h (2 Bft)
07.12.2018 04:58 8,8 °C 80 % 1019,1 hPa 0,0 mm 5,4 km/h (1 Bft) S 185 ° 0 min 0,000 mm 0,0 UV-I 0 W/m² 5,5 °C 8,3 °C 6,4 km/h (2 Bft)
07.12.2018 04:59 8,8 °C 80 % 1019,1 hPa 0,0 mm 2,2 km/h (1 Bft) S 185 ° 0 min 0,000 mm 0,0 UV-I 0 W/m² 5,5 °C 8,8 °C 4,8 km/h (1 Bft)
07.12.2018 05:00 8,8 °C 80 % 1019,0 hPa 0,0 mm 0,7 km/h (0 Bft) S 185 ° 0 min 0,000 mm 0,0 UV-I 0 W/m² 5,5 °C 8,8 °C 1,6 km/h (1 Bft)
07.12.2018 05:01 8,7 °C 80 % 1019,0 hPa 0,0 mm 2,7 km/h (1 Bft) S-SW 205 ° 0 min 0,026 mm 0,0 UV-I 0 W/m² 5,4 °C 8,7 °C 6,4 km/h (2 Bft)
07.12.2018 05:02 8,7 °C 80 % 1019,0 hPa 0,0 mm 3,9 km/h (1 Bft) S-SW 195 ° 0 min 0,000 mm 0,0 UV-I 0 W/m² 5,4 °C 8,7 °C 6,4 km/h (2 Bft)
07.12.2018 05:03 8,7 °C 80 % 1019,0 hPa 0,0 mm 2,6 km/h (1 Bft) S-SW 195 ° 0 min 0,000 mm 0,0 UV-I 0 W/m² 5,4 °C 8,7 °C 3,2 km/h (1 Bft)
07.12.2018 05:04 8,7 °C 80 % 1019,0 hPa 0,0 mm 1,0 km/h (0 Bft) S-SW 195 ° 0 min 0,000 mm 0,0 UV-I 0 W/m² 5,4 °C 8,7 °C 3,2 km/h (1 Bft)
07.12.2018 05:05 8,7 °C 80 % 1019,0 hPa 0,0 mm 1,1 km/h (1 Bft) SW 234 ° 0 min 0,000 mm 0,0 UV-I 0 W/m² 5,4 °C 8,7 °C 3,2 km/h (1 Bft)
07.12.2018 05:06 8,7 °C 81 % 1019,0 hPa 0,0 mm 1,8 km/h (1 Bft) SW 215 ° 0 min 0,000 mm 0,0 UV-I 0 W/m² 5,6 °C 8,7 °C 3,2 km/h (1 Bft)
07.12.2018 05:07 8,7 °C 81 % 1019,0 hPa 0,0 mm 0,3 km/h (0 Bft) SW 215 ° 0 min 0,000 mm 0,0 UV-I 0 W/m² 5,6 °C 8,7 °C 1,6 km/h (1 Bft)
07.12.2018 05:08 8,6 °C 81 % 1018,9 hPa 0,0 mm 2,1 km/h (1 Bft) S 191 ° 0 min 0,000 mm 0,0 UV-I 0 W/m² 5,5 °C 8,6 °C 3,2 km/h (1 Bft)
07.12.2018 05:09 8,6 °C 81 % 1018,9 hPa 0,0 mm 0,8 km/h (0 Bft) S 191 ° 0 min 0,000 mm 0,0 UV-I 0 W/m² 5,5 °C 8,6 °C 3,2 km/h (1 Bft)
07.12.2018 05:10 8,6 °C 81 % 1018,9 hPa 0,0 mm 1,1 km/h (1 Bft) S-SW 195 ° 0 min 0,000 mm 0,0 UV-I 0 W/m² 5,5 °C 8,6 °C 3,2 km/h (1 Bft)
07.12.2018 05:11 8,6 °C 81 % 1018,8 hPa 0,0 mm 0,0 km/h (0 Bft) S-SW 195 ° 0 min 0,000 mm 0,0 UV-I 0 W/m² 5,5 °C 8,6 °C 0,0 km/h (0 Bft)
07.12.2018 05:12 8,6 °C 81 % 1018,9 hPa 0,0 mm 0,0 km/h (0 Bft) S-SW 195 ° 0 min 0,000 mm 0,0 UV-I 0 W/m² 5,5 °C 8,6 °C 0,0 km/h (0 Bft)
07.12.2018 05:13 8,6 °C 81 % 1018,9 hPa 0,0 mm 0,2 km/h (0 Bft) S-SW 195 ° 0 min 0,000 mm 0,0 UV-I 0 W/m² 5,5 °C 8,6 °C 1,6 km/h (1 Bft)
07.12.2018 05:14 8,6 °C 81 % 1019,0 hPa 0,0 mm 0,1 km/h (0 Bft) S-SW 195 ° 0 min 0,000 mm 0,0 UV-I 0 W/m² 5,5 °C 8,6 °C 1,6 km/h (1 Bft)
07.12.2018 05:15 8,6 °C 81 % 1019,0 hPa 0,0 mm 0,4 km/h (0 Bft) W-SW 252 ° 0 min 0,000 mm 0,0 UV-I 0 W/m² 5,5 °C 8,6 °C 3,2 km/h (1 Bft)
07.12.2018 05:16 8,5 °C 81 % 1019,0 hPa 0,0 mm 1,9 km/h (1 Bft) W-SW 252 ° 0 min 0,000 mm 0,0 UV-I 0 W/m² 5,4 °C 8,5 °C 3,2 km/h (1 Bft)
07.12.2018 05:17 8,5 °C 81 % 1019,0 hPa 0,0 mm 0,2 km/h (0 Bft) W-SW 252 ° 0 min 0,000 mm 0,0 UV-I 0 W/m² 5,4 °C 8,5 °C 1,6 km/h (1 Bft)
07.12.2018 05:18 8,4 °C 81 % 1018,9 hPa 0,0 mm 0,0 km/h (0 Bft) W-SW 252 ° 0 min 0,000 mm 0,0 UV-I 0 W/m² 5,3 °C 8,4 °C 0,0 km/h (0 Bft)
07.12.2018 05:19 8,4 °C 81 % 1019,0 hPa 0,0 mm 0,0 km/h (0 Bft) W-SW 252 ° 0 min 0,000 mm 0,0 UV-I 0 W/m² 5,3 °C 8,4 °C 0,0 km/h (0 Bft)
07.12.2018 05:20 8,4 °C 81 % 1019,0 hPa 0,0 mm 1,6 km/h (1 Bft) W-SW 252 ° 0 min 0,000 mm 0,0 UV-I 0 W/m² 5,3 °C 8,4 °C 4,8 km/h (1 Bft)
07.12.2018 05:21 8,3 °C 81 % 1019,0 hPa 0,0 mm 1,1 km/h (1 Bft) W-SW 252 ° 0 min 0,000 mm 0,0 UV-I 0 W/m² 5,2 °C 8,3 °C 3,2 km/h (1 Bft)
07.12.2018 05:22 8,3 °C 81 % 1018,9 hPa 0,0 mm 0,0 km/h (0 Bft) W-SW 252 ° 0 min 0,000 mm 0,0 UV-I 0 W/m² 5,2 °C 8,3 °C 0,0 km/h (0 Bft)
07.12.2018 05:23 8,3 °C 81 % 1018,9 hPa 0,0 mm 0,0 km/h (0 Bft) W-SW 252 ° 0 min 0,000 mm 0,0 UV-I 0 W/m² 5,2 °C 8,3 °C 0,0 km/h (0 Bft)
07.12.2018 05:24 8,3 °C 81 % 1019,0 hPa 0,0 mm 0,0 km/h (0 Bft) W-SW 252 ° 0 min 0,000 mm 0,0 UV-I 0 W/m² 5,2 °C 8,3 °C 0,0 km/h (0 Bft)
07.12.2018 05:25 8,2 °C 81 % 1018,9 hPa 0,0 mm 1,1 km/h (1 Bft) W-SW 252 ° 0 min 0,000 mm 0,0 UV-I 0 W/m² 5,1 °C 8,2 °C 3,2 km/h (1 Bft)
07.12.2018 05:26 8,2 °C 81 % 1019,0 hPa 0,0 mm 2,6 km/h (1 Bft) W-SW 252 ° 0 min 0,000 mm 0,0 UV-I 0 W/m² 5,1 °C 8,2 °C 4,8 km/h (1 Bft)
07.12.2018 05:27 8,1 °C 81 % 1018,9 hPa 0,0 mm 0,8 km/h (0 Bft) W-SW 252 ° 0 min 0,000 mm 0,0 UV-I 0 W/m² 5,0 °C 8,1 °C 1,6 km/h (1 Bft)
07.12.2018 05:28 8,1 °C 81 % 1018,9 hPa 0,0 mm 3,1 km/h (1 Bft) W-SW 252 ° 0 min 0,000 mm 0,0 UV-I 0 W/m² 5,0 °C 8,1 °C 4,8 km/h (1 Bft)
07.12.2018 05:29 8,1 °C 82 % 1019,0 hPa 0,0 mm 5,0 km/h (1 Bft) S-SW 196 ° 0 min 0,000 mm 0,0 UV-I 0 W/m² 5,2 °C 7,6 °C 8,0 km/h (2 Bft)
07.12.2018 05:30 8,0 °C 82 % 1018,9 hPa 0,0 mm 4,4 km/h (1 Bft) S-SW 207 ° 0 min 0,000 mm 0,0 UV-I 0 W/m² 5,1 °C 8,0 °C 8,0 km/h (2 Bft)
07.12.2018 05:31 7,9 °C 82 % 1018,9 hPa 0,0 mm 6,7 km/h (2 Bft) S 186 ° 0 min 0,000 mm 0,0 UV-I 0 W/m² 5,0 °C 6,9 °C 11,3 km/h (2 Bft)
07.12.2018 05:32 7,9 °C 82 % 1018,9 hPa 0,0 mm 4,6 km/h (1 Bft) S 190 ° 0 min 0,000 mm 0,0 UV-I 0 W/m² 5,0 °C 7,5 °C 9,7 km/h (2 Bft)
07.12.2018 05:33 7,9 °C 82 % 1018,8 hPa 0,0 mm 5,7 km/h (1 Bft) SW 217 ° 0 min 0,000 mm 0,0 UV-I 0 W/m² 5,0 °C 7,1 °C 9,7 km/h (2 Bft)
07.12.2018 05:34 7,9 °C 82 % 1018,8 hPa 0,0 mm 2,4 km/h (1 Bft) S 171 ° 0 min 0,000 mm 0,0 UV-I 0 W/m² 5,0 °C 7,9 °C 6,4 km/h (2 Bft)
07.12.2018 05:35 7,9 °C 82 % 1018,8 hPa 0,0 mm 3,7 km/h (1 Bft) S-SW 204 ° 0 min 0,000 mm 0,0 UV-I 0 W/m² 5,0 °C 7,9 °C 6,4 km/h (2 Bft)
07.12.2018 05:36 7,9 °C 82 % 1018,8 hPa 0,0 mm 7,2 km/h (2 Bft) S-SW 202 ° 0 min 0,000 mm 0,0 UV-I 0 W/m² 5,0 °C 6,7 °C 8,0 km/h (2 Bft)
07.12.2018 05:37 7,9 °C 82 % 1018,8 hPa 0,0 mm 4,9 km/h (1 Bft) S 187 ° 0 min 0,000 mm 0,0 UV-I 0 W/m² 5,0 °C 7,4 °C 9,7 km/h (2 Bft)
07.12.2018 05:38 7,9 °C 82 % 1018,8 hPa 0,0 mm 8,2 km/h (2 Bft) S-SW 192 ° 0 min 0,000 mm 0,0 UV-I 0 W/m² 5,0 °C 6,5 °C 11,3 km/h (2 Bft)
07.12.2018 05:39 7,8 °C 82 % 1018,8 hPa 0,0 mm 6,7 km/h (2 Bft) S-SW 207 ° 0 min 0,000 mm 0,0 UV-I 0 W/m² 4,9 °C 6,7 °C 8,0 km/h (2 Bft)
07.12.2018 05:40 7,8 °C 82 % 1018,8 hPa 0,0 mm 6,0 km/h (2 Bft) S-SW 209 ° 0 min 0,000 mm 0,0 UV-I 0 W/m² 4,9 °C 6,9 °C 9,7 km/h (2 Bft)
07.12.2018 05:41 7,8 °C 82 % 1018,9 hPa 0,0 mm 1,7 km/h (1 Bft) S-SW 209 ° 0 min 0,000 mm 0,0 UV-I 0 W/m² 4,9 °C 7,8 °C 3,2 km/h (1 Bft)
07.12.2018 05:42 7,8 °C 82 % 1018,8 hPa 0,0 mm 3,7 km/h (1 Bft) S-SW 196 ° 0 min 0,000 mm 0,0 UV-I 0 W/m² 4,9 °C 7,8 °C 6,4 km/h (2 Bft)
07.12.2018 05:43 7,8 °C 82 % 1018,8 hPa 0,0 mm 3,8 km/h (1 Bft) S-SW 199 ° 0 min 0,000 mm 0,0 UV-I 0 W/m² 4,9 °C 7,8 °C 6,4 km/h (2 Bft)
07.12.2018 05:44 7,8 °C 82 % 1018,8 hPa 0,0 mm 3,6 km/h (1 Bft) S-SW 198 ° 0 min 0,000 mm 0,0 UV-I 0 W/m² 4,9 °C 7,8 °C 4,8 km/h (1 Bft)
07.12.2018 05:45 7,8 °C 82 % 1018,8 hPa 0,0 mm 3,2 km/h (1 Bft) W-SW 238 ° 0 min 0,000 mm 0,0 UV-I 0 W/m² 4,9 °C 7,8 °C 6,4 km/h (2 Bft)
07.12.2018 05:46 7,8 °C 82 % 1018,8 hPa 0,0 mm 3,0 km/h (1 Bft) SW 214 ° 0 min 0,000 mm 0,0 UV-I 0 W/m² 4,9 °C 7,8 °C 4,8 km/h (1 Bft)
07.12.2018 05:47 7,8 °C 82 % 1018,8 hPa 0,0 mm 5,4 km/h (1 Bft) S 178 ° 0 min 0,000 mm 0,0 UV-I 0 W/m² 4,9 °C 7,1 °C 9,7 km/h (2 Bft)
07.12.2018 05:48 7,8 °C 82 % 1018,8 hPa 0,0 mm 3,2 km/h (1 Bft) S 180 ° 0 min 0,000 mm 0,0 UV-I 0 W/m² 4,9 °C 7,8 °C 4,8 km/h (1 Bft)
07.12.2018 05:49 7,8 °C 82 % 1018,8 hPa 0,0 mm 1,7 km/h (1 Bft) S 180 ° 0 min 0,000 mm 0,0 UV-I 0 W/m² 4,9 °C 7,8 °C 3,2 km/h (1 Bft)
07.12.2018 05:50 7,8 °C 82 % 1018,7 hPa 0,0 mm 3,1 km/h (1 Bft) S 187 ° 0 min 0,000 mm 0,0 UV-I 0 W/m² 4,9 °C 7,8 °C 4,8 km/h (1 Bft)
07.12.2018 05:51 7,8 °C 82 % 1018,8 hPa 0,0 mm 4,0 km/h (1 Bft) S-SW 204 ° 0 min 0,000 mm 0,0 UV-I 0 W/m² 4,9 °C 7,8 °C 6,4 km/h (2 Bft)
07.12.2018 05:52 7,8 °C 82 % 1018,8 hPa 0,0 mm 6,0 km/h (2 Bft) S-SW 207 ° 0 min 0,000 mm 0,0 UV-I 0 W/m² 4,9 °C 6,9 °C 8,0 km/h (2 Bft)
07.12.2018 05:53 7,8 °C 82 % 1018,8 hPa 0,0 mm 5,1 km/h (1 Bft) S-SW 194 ° 0 min 0,000 mm 0,0 UV-I 0 W/m² 4,9 °C 7,2 °C 8,0 km/h (2 Bft)
07.12.2018 05:54 7,8 °C 82 % 1018,7 hPa 0,0 mm 5,2 km/h (1 Bft) S-SW 205 ° 0 min 0,000 mm 0,0 UV-I 0 W/m² 4,9 °C 7,2 °C 8,0 km/h (2 Bft)
07.12.2018 05:55 7,8 °C 82 % 1018,7 hPa 0,0 mm 4,4 km/h (1 Bft) S 175 ° 0 min 0,000 mm 0,0 UV-I 0 W/m² 4,9 °C 7,8 °C 8,0 km/h (2 Bft)
07.12.2018 05:56 7,8 °C 82 % 1018,8 hPa 0,0 mm 4,2 km/h (1 Bft) SW 219 ° 0 min 0,000 mm 0,0 UV-I 0 W/m² 4,9 °C 7,8 °C 6,4 km/h (2 Bft)
07.12.2018 05:57 7,8 °C 82 % 1018,8 hPa 0,0 mm 3,7 km/h (1 Bft) S 188 ° 0 min 0,000 mm 0,0 UV-I 0 W/m² 4,9 °C 7,8 °C 6,4 km/h (2 Bft)
07.12.2018 05:58 7,8 °C 82 % 1018,8 hPa 0,0 mm 3,8 km/h (1 Bft) S-SW 196 ° 0 min 0,000 mm 0,0 UV-I 0 W/m² 4,9 °C 7,8 °C 6,4 km/h (2 Bft)
07.12.2018 05:59 7,8 °C 82 % 1018,7 hPa 0,0 mm 5,8 km/h (2 Bft) S-SW 205 ° 0 min 0,000 mm 0,0 UV-I 0 W/m² 4,9 °C 7,0 °C 8,0 km/h (2 Bft)
07.12.2018 06:00 7,8 °C 82 % 1018,8 hPa 0,0 mm 6,0 km/h (2 Bft) S-SW 202 ° 0 min 0,000 mm 0,0 UV-I 0 W/m² 4,9 °C 6,9 °C 9,7 km/h (2 Bft)
07.12.2018 06:01 7,8 °C 82 % 1018,7 hPa 0,0 mm 6,1 km/h (2 Bft) S-SW 192 ° 0 min 0,025 mm 0,0 UV-I 0 W/m² 4,9 °C 6,9 °C 11,3 km/h (2 Bft)
07.12.2018 06:02 7,8 °C 82 % 1018,7 hPa 0,0 mm 5,6 km/h (1 Bft) S-SW 193 ° 0 min 0,000 mm 0,0 UV-I 0 W/m² 4,9 °C 7,1 °C 9,7 km/h (2 Bft)
07.12.2018 06:03 7,9 °C 82 % 1018,7 hPa 0,0 mm 7,4 km/h (2 Bft) S-SW 207 ° 0 min 0,000 mm 0,0 UV-I 0 W/m² 5,0 °C 6,7 °C 11,3 km/h (2 Bft)
07.12.2018 06:04 7,9 °C 82 % 1018,6 hPa 0,0 mm 8,1 km/h (2 Bft) SW 227 ° 0 min 0,000 mm 0,0 UV-I 0 W/m² 5,0 °C 6,5 °C 12,9 km/h (3 Bft)
07.12.2018 06:05 7,9 °C 82 % 1018,6 hPa 0,0 mm 7,8 km/h (2 Bft) S-SW 208 ° 0 min 0,000 mm 0,0 UV-I 0 W/m² 5,0 °C 6,6 °C 9,7 km/h (2 Bft)
07.12.2018 06:06 7,9 °C 82 % 1018,6 hPa 0,0 mm 3,0 km/h (1 Bft) S 186 ° 0 min 0,000 mm 0,0 UV-I 0 W/m² 5,0 °C 7,9 °C 6,4 km/h (2 Bft)
07.12.2018 06:07 7,9 °C 82 % 1018,5 hPa 0,0 mm 4,0 km/h (1 Bft) S 190 ° 0 min 0,000 mm 0,0 UV-I 0 W/m² 5,0 °C 7,9 °C 6,4 km/h (2 Bft)
07.12.2018 06:08 7,9 °C 82 % 1018,6 hPa 0,0 mm 2,7 km/h (1 Bft) S-SW 210 ° 0 min 0,000 mm 0,0 UV-I 0 W/m² 5,0 °C 7,9 °C 4,8 km/h (1 Bft)
07.12.2018 06:09 7,9 °C 82 % 1018,5 hPa 0,0 mm 3,6 km/h (1 Bft) S-SW 198 ° 0 min 0,000 mm 0,0 UV-I 0 W/m² 5,0 °C 7,9 °C 4,8 km/h (1 Bft)
07.12.2018 06:10 7,9 °C 82 % 1018,6 hPa 0,0 mm 4,4 km/h (1 Bft) S-SW 209 ° 0 min 0,000 mm 0,0 UV-I 0 W/m² 5,0 °C 7,9 °C 8,0 km/h (2 Bft)
07.12.2018 06:11 7,9 °C 82 % 1018,6 hPa 0,0 mm 5,0 km/h (1 Bft) S-SW 199 ° 0 min 0,000 mm 0,0 UV-I 0 W/m² 5,0 °C 7,4 °C 8,0 km/h (2 Bft)
07.12.2018 06:12 7,9 °C 83 % 1018,5 hPa 0,0 mm 4,3 km/h (1 Bft) S-SW 202 ° 0 min 0,000 mm 0,0 UV-I 0 W/m² 5,2 °C 7,9 °C 6,4 km/h (2 Bft)
07.12.2018 06:13 8,0 °C 83 % 1018,5 hPa 0,0 mm 0,6 km/h (0 Bft) S-SW 201 ° 0 min 0,000 mm 0,0 UV-I 0 W/m² 5,3 °C 8,0 °C 4,8 km/h (1 Bft)
07.12.2018 06:14 8,0 °C 83 % 1018,5 hPa 0,0 mm 0,0 km/h (0 Bft) S-SW 201 ° 0 min 0,000 mm 0,0 UV-I 0 W/m² 5,3 °C 8,0 °C 0,0 km/h (0 Bft)
07.12.2018 06:15 8,0 °C 83 % 1018,5 hPa 0,0 mm 0,0 km/h (0 Bft) S-SW 201 ° 0 min 0,000 mm 0,0 UV-I 0 W/m² 5,3 °C 8,0 °C 0,0 km/h (0 Bft)
07.12.2018 06:16 7,9 °C 83 % 1018,5 hPa 0,0 mm 0,7 km/h (0 Bft) S-SW 201 ° 0 min 0,000 mm 0,0 UV-I 0 W/m² 5,2 °C 7,9 °C 3,2 km/h (1 Bft)
07.12.2018 06:17 7,9 °C 83 % 1018,5 hPa 0,0 mm 1,5 km/h (1 Bft) SW 215 ° 0 min 0,000 mm 0,0 UV-I 0 W/m² 5,2 °C 7,9 °C 3,2 km/h (1 Bft)
07.12.2018 06:18 7,9 °C 83 % 1018,5 hPa 0,0 mm 0,0 km/h (0 Bft) SW 215 ° 0 min 0,000 mm 0,0 UV-I 0 W/m² 5,2 °C 7,9 °C 0,0 km/h (0 Bft)
07.12.2018 06:19 7,9 °C 83 % 1018,4 hPa 0,0 mm 0,5 km/h (0 Bft) W-SW 241 ° 0 min 0,000 mm 0,0 UV-I 0 W/m² 5,2 °C 7,9 °C 4,8 km/h (1 Bft)
07.12.2018 06:20 7,9 °C 83 % 1018,4 hPa 0,0 mm 1,9 km/h (1 Bft) S-SW 211 ° 0 min 0,000 mm 0,0 UV-I 0 W/m² 5,2 °C 7,9 °C 4,8 km/h (1 Bft)
07.12.2018 06:21 7,9 °C 83 % 1018,4 hPa 0,0 mm 0,0 km/h (0 Bft) S-SW 211 ° 0 min 0,000 mm 0,0 UV-I 0 W/m² 5,2 °C 7,9 °C 0,0 km/h (0 Bft)
07.12.2018 06:22 7,9 °C 83 % 1018,4 hPa 0,0 mm 0,0 km/h (0 Bft) SW 227 ° 0 min 0,000 mm 0,0 UV-I 0 W/m² 5,2 °C 7,9 °C 0,0 km/h (0 Bft)
07.12.2018 06:23 7,8 °C 83 % 1018,4 hPa 0,0 mm 0,0 km/h (0 Bft) SW 227 ° 0 min 0,000 mm 0,0 UV-I 0 W/m² 5,1 °C 7,8 °C 0,0 km/h (0 Bft)
07.12.2018 06:24 7,8 °C 83 % 1018,3 hPa 0,0 mm 0,0 km/h (0 Bft) SW 227 ° 0 min 0,000 mm 0,0 UV-I 0 W/m² 5,1 °C 7,8 °C 0,0 km/h (0 Bft)
07.12.2018 06:25 7,8 °C 83 % 1018,4 hPa 0,0 mm 0,0 km/h (0 Bft) S-SW 198 ° 0 min 0,000 mm 0,0 UV-I 0 W/m² 5,1 °C 7,8 °C 0,0 km/h (0 Bft)
07.12.2018 06:26 7,8 °C 83 % 1018,3 hPa 0,0 mm 3,7 km/h (1 Bft) S-SW 198 ° 0 min 0,000 mm 0,0 UV-I 0 W/m² 5,1 °C 7,8 °C 6,4 km/h (2 Bft)
07.12.2018 06:27 7,8 °C 83 % 1018,4 hPa 0,0 mm 3,4 km/h (1 Bft) SW 216 ° 0 min 0,000 mm 0,0 UV-I 0 W/m² 5,1 °C 7,8 °C 6,4 km/h (2 Bft)
07.12.2018 06:28 7,8 °C 83 % 1018,4 hPa 0,0 mm 2,6 km/h (1 Bft) S-SW 207 ° 0 min 0,000 mm 0,0 UV-I 0 W/m² 5,1 °C 7,8 °C 4,8 km/h (1 Bft)
07.12.2018 06:29 7,8 °C 83 % 1018,4 hPa 0,0 mm 3,4 km/h (1 Bft) S-SW 212 ° 0 min 0,000 mm 0,0 UV-I 0 W/m² 5,1 °C 7,8 °C 6,4 km/h (2 Bft)
07.12.2018 06:30 7,8 °C 83 % 1018,4 hPa 0,0 mm 6,5 km/h (2 Bft) S 184 ° 0 min 0,000 mm 0,0 UV-I 0 W/m² 5,1 °C 6,8 °C 9,7 km/h (2 Bft)
07.12.2018 06:31 7,8 °C 83 % 1018,3 hPa 0,0 mm 5,3 km/h (1 Bft) S 184 ° 0 min 0,000 mm 0,0 UV-I 0 W/m² 5,1 °C 7,2 °C 8,0 km/h (2 Bft)
07.12.2018 06:32 7,8 °C 83 % 1018,3 hPa 0,0 mm 1,0 km/h (0 Bft) S 184 ° 0 min 0,000 mm 0,0 UV-I 0 W/m² 5,1 °C 7,8 °C 3,2 km/h (1 Bft)
07.12.2018 06:33 7,8 °C 83 % 1018,3 hPa 0,0 mm 1,2 km/h (1 Bft) S 184 ° 0 min 0,000 mm 0,0 UV-I 0 W/m² 5,1 °C 7,8 °C 3,2 km/h (1 Bft)
07.12.2018 06:34 7,8 °C 83 % 1018,4 hPa 0,0 mm 0,4 km/h (0 Bft) S 184 ° 0 min 0,000 mm 0,0 UV-I 0 W/m² 5,1 °C 7,8 °C 3,2 km/h (1 Bft)
07.12.2018 06:35 7,8 °C 83 % 1018,3 hPa 0,0 mm 0,6 km/h (0 Bft) S 184 ° 0 min 0,000 mm 0,0 UV-I 0 W/m² 5,1 °C 7,8 °C 1,6 km/h (1 Bft)
07.12.2018 06:36 7,8 °C 83 % 1018,2 hPa 0,0 mm 0,1 km/h (0 Bft) S 184 ° 0 min 0,000 mm 0,0 UV-I 0 W/m² 5,1 °C 7,8 °C 1,6 km/h (1 Bft)
07.12.2018 06:37 7,8 °C 83 % 1018,2 hPa 0,0 mm 0,4 km/h (0 Bft) S 184 ° 0 min 0,000 mm 0,0 UV-I 0 W/m² 5,1 °C 7,8 °C 1,6 km/h (1 Bft)
07.12.2018 06:38 7,8 °C 83 % 1018,3 hPa 0,0 mm 0,1 km/h (0 Bft) S 184 ° 0 min 0,000 mm 0,0 UV-I 0 W/m² 5,1 °C 7,8 °C 1,6 km/h (1 Bft)
07.12.2018 06:39 7,8 °C 84 % 1018,3 hPa 0,0 mm 1,8 km/h (1 Bft) S 184 ° 0 min 0,000 mm 0,0 UV-I 0 W/m² 5,3 °C 7,8 °C 3,2 km/h (1 Bft)
07.12.2018 06:40 7,8 °C 84 % 1018,3 hPa 0,0 mm 3,4 km/h (1 Bft) S 184 ° 0 min 0,000 mm 0,0 UV-I 0 W/m² 5,3 °C 7,8 °C 4,8 km/h (1 Bft)
07.12.2018 06:41 7,8 °C 84 % 1018,3 hPa 0,0 mm 3,6 km/h (1 Bft) S 184 ° 0 min 0,000 mm 0,0 UV-I 0 W/m² 5,3 °C 7,8 °C 6,4 km/h (2 Bft)
07.12.2018 06:42 7,8 °C 84 % 1018,3 hPa 0,0 mm 7,2 km/h (2 Bft) S-SW 203 ° 0 min 0,000 mm 0,0 UV-I 0 W/m² 5,3 °C 6,6 °C 9,7 km/h (2 Bft)
07.12.2018 06:43 7,7 °C 84 % 1018,3 hPa 0,0 mm 4,0 km/h (1 Bft) S-SW 204 ° 0 min 0,000 mm 0,0 UV-I 0 W/m² 5,2 °C 7,7 °C 8,0 km/h (2 Bft)
07.12.2018 06:44 7,7 °C 84 % 1018,3 hPa 0,0 mm 3,6 km/h (1 Bft) S-SW 203 ° 0 min 0,000 mm 0,0 UV-I 0 W/m² 5,2 °C 7,7 °C 4,8 km/h (1 Bft)
07.12.2018 06:45 7,7 °C 84 % 1018,4 hPa 0,0 mm 1,5 km/h (1 Bft) S-SW 203 ° 0 min 0,000 mm 0,0 UV-I 0 W/m² 5,2 °C 7,7 °C 3,2 km/h (1 Bft)
07.12.2018 06:46 7,7 °C 84 % 1018,3 hPa 0,0 mm 0,8 km/h (0 Bft) S-SW 203 ° 0 min 0,000 mm 0,0 UV-I 0 W/m² 5,2 °C 7,7 °C 3,2 km/h (1 Bft)
07.12.2018 06:47 7,7 °C 84 % 1018,3 hPa 0,0 mm 0,7 km/h (0 Bft) S-SW 203 ° 0 min 0,000 mm 0,0 UV-I 0 W/m² 5,2 °C 7,7 °C 1,6 km/h (1 Bft)
07.12.2018 06:48 7,7 °C 84 % 1018,3 hPa 0,0 mm 0,8 km/h (0 Bft) S-SW 203 ° 0 min 0,000 mm 0,0 UV-I 0 W/m² 5,2 °C 7,7 °C 1,6 km/h (1 Bft)
07.12.2018 06:49 7,7 °C 84 % 1018,3 hPa 0,0 mm 1,3 km/h (1 Bft) S-SW 203 ° 0 min 0,000 mm 0,0 UV-I 0 W/m² 5,2 °C 7,7 °C 4,8 km/h (1 Bft)
07.12.2018 06:50 7,7 °C 84 % 1018,3 hPa 0,0 mm 0,2 km/h (0 Bft) S-SW 203 ° 0 min 0,000 mm 0,0 UV-I 0 W/m² 5,2 °C 7,7 °C 1,6 km/h (1 Bft)
07.12.2018 06:51 7,6 °C 84 % 1018,3 hPa 0,0 mm 2,7 km/h (1 Bft) S-SW 203 ° 0 min 0,000 mm 0,0 UV-I 0 W/m² 5,1 °C 7,6 °C 6,4 km/h (2 Bft)
07.12.2018 06:52 7,6 °C 85 % 1018,3 hPa 0,0 mm 4,0 km/h (1 Bft) S-SW 200 ° 0 min 0,000 mm 0,0 UV-I 0 W/m² 5,2 °C 7,6 °C 6,4 km/h (2 Bft)
07.12.2018 06:53 7,5 °C 85 % 1018,3 hPa 0,0 mm 5,1 km/h (1 Bft) S-SW 200 ° 0 min 0,000 mm 0,0 UV-I 0 W/m² 5,1 °C 6,9 °C 6,4 km/h (2 Bft)
07.12.2018 06:54 7,4 °C 85 % 1018,3 hPa 0,0 mm 5,9 km/h (2 Bft) S-SW 200 ° 0 min 0,000 mm 0,0 UV-I 0 W/m² 5,0 °C 6,5 °C 6,4 km/h (2 Bft)
07.12.2018 06:55 7,4 °C 85 % 1018,3 hPa 0,0 mm 4,8 km/h (1 Bft) S 171 ° 0 min 0,000 mm 0,0 UV-I 0 W/m² 5,0 °C 6,9 °C 6,4 km/h (2 Bft)
07.12.2018 06:56 7,3 °C 85 % 1018,2 hPa 0,0 mm 5,0 km/h (1 Bft) S 172 ° 0 min 0,000 mm 0,0 UV-I 0 W/m² 4,9 °C 6,7 °C 8,0 km/h (2 Bft)
07.12.2018 06:57 7,3 °C 85 % 1018,2 hPa 0,0 mm 3,8 km/h (1 Bft) S 171 ° 0 min 0,000 mm 0,0 UV-I 0 W/m² 4,9 °C 7,3 °C 6,4 km/h (2 Bft)
07.12.2018 06:58 7,3 °C 86 % 1018,2 hPa 0,0 mm 5,7 km/h (1 Bft) S 172 ° 0 min 0,000 mm 0,0 UV-I 0 W/m² 5,1 °C 6,5 °C 8,0 km/h (2 Bft)
07.12.2018 06:59 7,3 °C 86 % 1018,2 hPa 0,0 mm 3,7 km/h (1 Bft) S 171 ° 0 min 0,000 mm 0,0 UV-I 0 W/m² 5,1 °C 7,3 °C 6,4 km/h (2 Bft)
07.12.2018 07:00 7,3 °C 86 % 1018,1 hPa 0,0 mm 3,4 km/h (1 Bft) S 184 ° 0 min 0,026 mm 0,0 UV-I 0 W/m² 5,1 °C 7,3 °C 6,4 km/h (2 Bft)
07.12.2018 07:01 7,2 °C 86 % 1018,1 hPa 0,0 mm 5,6 km/h (1 Bft) S-SW 201 ° 0 min 0,000 mm 0,0 UV-I 0 W/m² 5,0 °C 6,4 °C 8,0 km/h (2 Bft)
07.12.2018 07:02 7,2 °C 86 % 1018,1 hPa 0,0 mm 5,2 km/h (1 Bft) S-SW 196 ° 0 min 0,000 mm 0,0 UV-I 0 W/m² 5,0 °C 6,5 °C 6,4 km/h (2 Bft)
07.12.2018 07:03 7,1 °C 86 % 1018,1 hPa 0,0 mm 5,0 km/h (1 Bft) S-SW 196 ° 0 min 0,000 mm 0,0 UV-I 0 W/m² 4,9 °C 6,5 °C 6,4 km/h (2 Bft)
07.12.2018 07:04 7,1 °C 87 % 1018,2 hPa 0,0 mm 5,9 km/h (2 Bft) S-SW 196 ° 0 min 0,000 mm 0,0 UV-I 0 W/m² 5,1 °C 6,2 °C 8,0 km/h (2 Bft)
07.12.2018 07:05 7,0 °C 86 % 1018,1 hPa 0,0 mm 6,6 km/h (2 Bft) S-SW 198 ° 0 min 0,000 mm 0,0 UV-I 0 W/m² 4,8 °C 5,8 °C 9,7 km/h (2 Bft)
07.12.2018 07:06 7,0 °C 87 % 1018,1 hPa 0,0 mm 5,0 km/h (1 Bft) S-SW 198 ° 0 min 0,000 mm 0,0 UV-I 0 W/m² 5,0 °C 6,4 °C 8,0 km/h (2 Bft)
07.12.2018 07:07 6,9 °C 87 % 1018,1 hPa 0,0 mm 4,8 km/h (1 Bft) S-SW 198 ° 0 min 0,000 mm 0,0 UV-I 0 W/m² 4,9 °C 6,3 °C 6,4 km/h (2 Bft)
07.12.2018 07:08 6,9 °C 87 % 1018,1 hPa 0,0 mm 4,7 km/h (1 Bft) S-SW 198 ° 0 min 0,000 mm 0,0 UV-I 0 W/m² 4,9 °C 6,3 °C 8,0 km/h (2 Bft)
07.12.2018 07:09 6,9 °C 87 % 1018,2 hPa 0,0 mm 4,6 km/h (1 Bft) S 187 ° 0 min 0,000 mm 0,0 UV-I 0 W/m² 4,9 °C 6,4 °C 9,7 km/h (2 Bft)
07.12.2018 07:10 6,9 °C 87 % 1018,2 hPa 0,0 mm 6,8 km/h (2 Bft) S-SW 192 ° 0 min 0,000 mm 0,0 UV-I 0 W/m² 4,9 °C 5,7 °C 9,7 km/h (2 Bft)
07.12.2018 07:11 6,8 °C 87 % 1018,1 hPa 0,0 mm 4,0 km/h (1 Bft) S-SW 192 ° 0 min 0,000 mm 0,0 UV-I 0 W/m² 4,8 °C 6,8 °C 6,4 km/h (2 Bft)
07.12.2018 07:12 6,8 °C 87 % 1018,1 hPa 0,0 mm 4,2 km/h (1 Bft) S-SW 192 ° 0 min 0,000 mm 0,0 UV-I 0 W/m² 4,8 °C 6,8 °C 4,8 km/h (1 Bft)
07.12.2018 07:13 6,8 °C 87 % 1018,1 hPa 0,0 mm 4,2 km/h (1 Bft) S-SW 192 ° 0 min 0,000 mm 0,0 UV-I 0 W/m² 4,8 °C 6,8 °C 8,0 km/h (2 Bft)
07.12.2018 07:14 6,8 °C 87 % 1018,1 hPa 0,0 mm 3,9 km/h (1 Bft) S-SW 192 ° 0 min 0,000 mm 0,0 UV-I 0 W/m² 4,8 °C 6,8 °C 6,4 km/h (2 Bft)
07.12.2018 07:15 6,8 °C 88 % 1018,1 hPa 0,0 mm 4,7 km/h (1 Bft) S-SW 192 ° 0 min 0,000 mm 0,0 UV-I 0 W/m² 5,0 °C 6,2 °C 6,4 km/h (2 Bft)
07.12.2018 07:16 6,8 °C 88 % 1018,0 hPa 0,0 mm 3,6 km/h (1 Bft) S-SW 192 ° 0 min 0,000 mm 0,0 UV-I 0 W/m² 5,0 °C 6,8 °C 6,4 km/h (2 Bft)
07.12.2018 07:17 6,8 °C 88 % 1018,1 hPa 0,0 mm 2,8 km/h (1 Bft) S-SW 192 ° 0 min 0,000 mm 0,0 UV-I 0 W/m² 5,0 °C 6,8 °C 4,8 km/h (1 Bft)
07.12.2018 07:18 6,8 °C 88 % 1018,0 hPa 0,0 mm 2,5 km/h (1 Bft) S-SW 192 ° 0 min 0,000 mm 0,0 UV-I 0 W/m² 5,0 °C 6,8 °C 4,8 km/h (1 Bft)
07.12.2018 07:19 6,8 °C 88 % 1018,0 hPa 0,0 mm 1,4 km/h (1 Bft) S-SW 192 ° 0 min 0,000 mm 0,0 UV-I 0 W/m² 5,0 °C 6,8 °C 6,4 km/h (2 Bft)
07.12.2018 07:20 6,8 °C 88 % 1018,0 hPa 0,0 mm 3,5 km/h (1 Bft) S-SW 192 ° 0 min 0,000 mm 0,0 UV-I 0 W/m² 5,0 °C 6,8 °C 4,8 km/h (1 Bft)
07.12.2018 07:21 6,8 °C 88 % 1018,1 hPa 0,0 mm 8,2 km/h (2 Bft) S 185 ° 0 min 0,000 mm 0,0 UV-I 0 W/m² 5,0 °C 5,2 °C 11,3 km/h (2 Bft)
07.12.2018 07:22 6,8 °C 88 % 1018,1 hPa 0,0 mm 5,0 km/h (1 Bft) S-SW 201 ° 0 min 0,000 mm 0,0 UV-I 0 W/m² 5,0 °C 6,1 °C 11,3 km/h (2 Bft)
07.12.2018 07:23 6,8 °C 88 % 1018,1 hPa 0,0 mm 10,0 km/h (2 Bft) S-SW 204 ° 0 min 0,000 mm 0,0 UV-I 0 W/m² 5,0 °C 4,8 °C 12,9 km/h (3 Bft)
07.12.2018 07:24 6,8 °C 88 % 1018,0 hPa 0,0 mm 7,9 km/h (2 Bft) S-SW 205 ° 0 min 0,000 mm 0,0 UV-I 0 W/m² 5,0 °C 5,3 °C 12,9 km/h (3 Bft)
07.12.2018 07:25 6,8 °C 88 % 1018,1 hPa 0,0 mm 5,8 km/h (2 Bft) S-SW 202 ° 0 min 0,000 mm 0,0 UV-I 0 W/m² 5,0 °C 5,9 °C 8,0 km/h (2 Bft)
07.12.2018 07:26 6,8 °C 88 % 1018,0 hPa 0,0 mm 7,0 km/h (2 Bft) S-SW 194 ° 0 min 0,000 mm 0,0 UV-I 0 W/m² 5,0 °C 5,5 °C 11,3 km/h (2 Bft)
07.12.2018 07:27 6,8 °C 87 % 1018,0 hPa 0,0 mm 4,5 km/h (1 Bft) S 180 ° 0 min 0,000 mm 0,0 UV-I 0 W/m² 4,8 °C 6,8 °C 8,0 km/h (2 Bft)
07.12.2018 07:28 6,8 °C 88 % 1018,0 hPa 0,0 mm 6,9 km/h (2 Bft) S-SO 159 ° 0 min 0,000 mm 0,0 UV-I 0 W/m² 5,0 °C 5,5 °C 8,0 km/h (2 Bft)
07.12.2018 07:29 6,8 °C 88 % 1017,9 hPa 0,0 mm 2,3 km/h (1 Bft) S-SO 159 ° 0 min 0,000 mm 0,0 UV-I 0 W/m² 5,0 °C 6,8 °C 6,4 km/h (2 Bft)
07.12.2018 07:30 6,8 °C 88 % 1018,0 hPa 0,0 mm 1,6 km/h (1 Bft) S-SO 159 ° 0 min 0,000 mm 0,0 UV-I 0 W/m² 5,0 °C 6,8 °C 3,2 km/h (1 Bft)
07.12.2018 07:31 6,8 °C 88 % 1017,9 hPa 0,0 mm 2,8 km/h (1 Bft) S-SO 159 ° 0 min 0,000 mm 0,0 UV-I 0 W/m² 5,0 °C 6,8 °C 6,4 km/h (2 Bft)
07.12.2018 07:32 6,8 °C 88 % 1017,9 hPa 0,0 mm 2,2 km/h (1 Bft) S-SO 159 ° 0 min 0,000 mm 0,0 UV-I 0 W/m² 5,0 °C 6,8 °C 3,2 km/h (1 Bft)
07.12.2018 07:33 6,8 °C 88 % 1017,9 hPa 0,0 mm 1,3 km/h (1 Bft) S-SO 159 ° 0 min 0,000 mm 0,0 UV-I 0 W/m² 5,0 °C 6,8 °C 3,2 km/h (1 Bft)
07.12.2018 07:34 6,8 °C 88 % 1018,0 hPa 0,0 mm 1,0 km/h (0 Bft) S-SO 159 ° 0 min 0,000 mm 0,0 UV-I 0 W/m² 5,0 °C 6,8 °C 3,2 km/h (1 Bft)
07.12.2018 07:35 6,7 °C 88 % 1017,9 hPa 0,0 mm 2,6 km/h (1 Bft) S-SO 159 ° 0 min 0,000 mm 0,0 UV-I 0 W/m² 4,9 °C 6,7 °C 3,2 km/h (1 Bft)
07.12.2018 07:36 6,7 °C 88 % 1017,9 hPa 0,0 mm 1,3 km/h (1 Bft) S-SO 159 ° 0 min 0,000 mm 0,0 UV-I 0 W/m² 4,9 °C 6,7 °C 3,2 km/h (1 Bft)
07.12.2018 07:37 6,8 °C 88 % 1017,9 hPa 0,0 mm 1,0 km/h (0 Bft) S-SO 159 ° 0 min 0,000 mm 0,0 UV-I 0 W/m² 5,0 °C 6,8 °C 3,2 km/h (1 Bft)
07.12.2018 07:38 6,7 °C 88 % 1018,0 hPa 0,0 mm 0,7 km/h (0 Bft) S-SO 163 ° 0 min 0,000 mm 0,0 UV-I 0 W/m² 4,9 °C 6,7 °C 3,2 km/h (1 Bft)
07.12.2018 07:39 6,8 °C 88 % 1017,9 hPa 0,0 mm 2,0 km/h (1 Bft) S-SO 163 ° 0 min 0,000 mm 0,0 UV-I 0 W/m² 5,0 °C 6,8 °C 3,2 km/h (1 Bft)
07.12.2018 07:40 6,8 °C 88 % 1017,9 hPa 0,0 mm 2,1 km/h (1 Bft) S-SO 163 ° 0 min 0,000 mm 0,0 UV-I 0 W/m² 5,0 °C 6,8 °C 3,2 km/h (1 Bft)
07.12.2018 07:41 6,7 °C 88 % 1017,9 hPa 0,0 mm 1,9 km/h (1 Bft) S-SO 163 ° 0 min 0,000 mm 0,0 UV-I 0 W/m² 4,9 °C 6,7 °C 3,2 km/h (1 Bft)
07.12.2018 07:42 6,7 °C 88 % 1017,9 hPa 0,0 mm 1,4 km/h (1 Bft) S-SO 163 ° 0 min 0,000 mm 0,0 UV-I 0 W/m² 4,9 °C 6,7 °C 3,2 km/h (1 Bft)
07.12.2018 07:43 6,7 °C 88 % 1017,9 hPa 0,0 mm 0,0 km/h (0 Bft) S-SO 163 ° 0 min 0,000 mm 0,0 UV-I 0 W/m² 4,9 °C 6,7 °C 0,0 km/h (0 Bft)
07.12.2018 07:44 6,7 °C 88 % 1017,9 hPa 0,0 mm 0,0 km/h (0 Bft) S-SO 163 ° 0 min 0,000 mm 0,0 UV-I 0 W/m² 4,9 °C 6,7 °C 0,0 km/h (0 Bft)
07.12.2018 07:45 6,7 °C 88 % 1017,9 hPa 0,0 mm 0,0 km/h (0 Bft) S-SO 163 ° 0 min 0,000 mm 0,0 UV-I 0 W/m² 4,9 °C 6,7 °C 0,0 km/h (0 Bft)
07.12.2018 07:46 6,7 °C 88 % 1017,9 hPa 0,0 mm 0,0 km/h (0 Bft) S-SO 163 ° 0 min 0,000 mm 0,0 UV-I 0 W/m² 4,9 °C 6,7 °C 0,0 km/h (0 Bft)
07.12.2018 07:47 6,7 °C 88 % 1017,9 hPa 0,0 mm 0,0 km/h (0 Bft) S-SO 163 ° 0 min 0,000 mm 0,0 UV-I 0 W/m² 4,9 °C 6,7 °C 0,0 km/h (0 Bft)
07.12.2018 07:48 6,7 °C 88 % 1017,9 hPa 0,0 mm 0,1 km/h (0 Bft) S-SO 163 ° 0 min 0,000 mm 0,0 UV-I 0 W/m² 4,9 °C 6,7 °C 1,6 km/h (1 Bft)
07.12.2018 07:49 6,7 °C 88 % 1017,9 hPa 0,0 mm 1,2 km/h (1 Bft) S-SO 163 ° 0 min 0,000 mm 0,0 UV-I 0 W/m² 4,9 °C 6,7 °C 3,2 km/h (1 Bft)
07.12.2018 07:50 6,7 °C 88 % 1017,9 hPa 0,0 mm 0,0 km/h (0 Bft) S-SO 163 ° 0 min 0,000 mm 0,0 UV-I 0 W/m² 4,9 °C 6,7 °C 0,0 km/h (0 Bft)
07.12.2018 07:51 6,7 °C 88 % 1017,9 hPa 0,0 mm 0,0 km/h (0 Bft) S-SO 163 ° 0 min 0,000 mm 0,0 UV-I 0 W/m² 4,9 °C 6,7 °C 0,0 km/h (0 Bft)
07.12.2018 07:52 6,7 °C 88 % 1017,9 hPa 0,0 mm 1,0 km/h (0 Bft) S-SO 163 ° 0 min 0,000 mm 0,0 UV-I 0 W/m² 4,9 °C 6,7 °C 3,2 km/h (1 Bft)
07.12.2018 07:53 6,7 °C 88 % 1017,9 hPa 0,0 mm 2,1 km/h (1 Bft) S-SO 163 ° 0 min 0,000 mm 0,0 UV-I 0 W/m² 4,9 °C 6,7 °C 6,4 km/h (2 Bft)
07.12.2018 07:54 6,7 °C 88 % 1017,9 hPa 0,0 mm 2,5 km/h (1 Bft) S-SO 163 ° 0 min 0,000 mm 0,0 UV-I 0 W/m² 4,9 °C 6,7 °C 6,4 km/h (2 Bft)
07.12.2018 07:55 6,7 °C 88 % 1017,9 hPa 0,0 mm 2,4 km/h (1 Bft) S-SO 163 ° 0 min 0,000 mm 0,0 UV-I 0 W/m² 4,9 °C 6,7 °C 3,2 km/h (1 Bft)
07.12.2018 07:56 6,7 °C 88 % 1017,9 hPa 0,0 mm 5,4 km/h (1 Bft) S-SW 195 ° 0 min 0,000 mm 0,0 UV-I 0 W/m² 4,9 °C 5,9 °C 8,0 km/h (2 Bft)
07.12.2018 07:57 6,7 °C 88 % 1017,9 hPa 0,0 mm 5,7 km/h (1 Bft) S-SW 200 ° 0 min 0,000 mm 0,0 UV-I 0 W/m² 4,9 °C 5,8 °C 8,0 km/h (2 Bft)
07.12.2018 07:58 6,7 °C 88 % 1017,9 hPa 0,0 mm 2,7 km/h (1 Bft) S-SW 200 ° 0 min 0,000 mm 0,0 UV-I 0 W/m² 4,9 °C 6,7 °C 4,8 km/h (1 Bft)
07.12.2018 07:59 6,7 °C 88 % 1017,9 hPa 0,0 mm 2,3 km/h (1 Bft) S-SW 199 ° 0 min 0,000 mm 0,0 UV-I 5 W/m² 4,9 °C 6,7 °C 4,8 km/h (1 Bft)
07.12.2018 08:00 6,7 °C 88 % 1017,9 hPa 0,0 mm 1,9 km/h (1 Bft) S-SW 199 ° 0 min 0,000 mm 0,0 UV-I 5 W/m² 4,9 °C 6,7 °C 4,8 km/h (1 Bft)
07.12.2018 08:01 6,7 °C 88 % 1017,8 hPa 0,0 mm 2,4 km/h (1 Bft) S-SW 199 ° 0 min 0,000 mm 0,0 UV-I 5 W/m² 4,9 °C 6,7 °C 4,8 km/h (1 Bft)
07.12.2018 08:02 6,7 °C 88 % 1017,9 hPa 0,0 mm 2,5 km/h (1 Bft) S-SW 199 ° 0 min 0,000 mm 0,0 UV-I 7 W/m² 4,9 °C 6,7 °C 3,2 km/h (1 Bft)
07.12.2018 08:03 6,7 °C 88 % 1017,9 hPa 0,0 mm 3,1 km/h (1 Bft) SW 217 ° 0 min 0,000 mm 0,0 UV-I 7 W/m² 4,9 °C 6,7 °C 4,8 km/h (1 Bft)
07.12.2018 08:04 6,8 °C 88 % 1017,9 hPa 0,0 mm 3,8 km/h (1 Bft) SW 216 ° 0 min 0,000 mm 0,0 UV-I 7 W/m² 5,0 °C 6,8 °C 6,4 km/h (2 Bft)
07.12.2018 08:05 6,8 °C 88 % 1017,9 hPa 0,0 mm 3,2 km/h (1 Bft) SW 216 ° 0 min 0,000 mm 0,0 UV-I 9 W/m² 5,0 °C 6,8 °C 4,8 km/h (1 Bft)
07.12.2018 08:06 6,8 °C 88 % 1017,9 hPa 0,0 mm 5,2 km/h (1 Bft) SW 215 ° 0 min 0,000 mm 0,0 UV-I 9 W/m² 5,0 °C 6,1 °C 6,4 km/h (2 Bft)
07.12.2018 08:07 6,8 °C 88 % 1017,8 hPa 0,0 mm 3,4 km/h (1 Bft) SW 215 ° 0 min 0,000 mm 0,0 UV-I 11 W/m² 5,0 °C 6,8 °C 4,8 km/h (1 Bft)
07.12.2018 08:08 6,8 °C 88 % 1017,9 hPa 0,0 mm 0,8 km/h (0 Bft) SW 215 ° 0 min 0,000 mm 0,0 UV-I 11 W/m² 5,0 °C 6,8 °C 3,2 km/h (1 Bft)
07.12.2018 08:09 6,8 °C 88 % 1017,9 hPa 0,0 mm 0,4 km/h (0 Bft) SW 215 ° 0 min 0,000 mm 0,0 UV-I 11 W/m² 5,0 °C 6,8 °C 3,2 km/h (1 Bft)
07.12.2018 08:10 6,8 °C 88 % 1017,8 hPa 0,0 mm 3,3 km/h (1 Bft) SW 215 ° 0 min 0,000 mm 0,0 UV-I 11 W/m² 5,0 °C 6,8 °C 4,8 km/h (1 Bft)
07.12.2018 08:11 6,8 °C 88 % 1017,9 hPa 0,0 mm 4,0 km/h (1 Bft) SW 215 ° 0 min 0,000 mm 0,0 UV-I 11 W/m² 5,0 °C 6,8 °C 6,4 km/h (2 Bft)
07.12.2018 08:12 6,8 °C 88 % 1017,9 hPa 0,0 mm 3,6 km/h (1 Bft) S-SW 200 ° 0 min 0,000 mm 0,0 UV-I 11 W/m² 5,0 °C 6,8 °C 6,4 km/h (2 Bft)
07.12.2018 08:13 6,8 °C 88 % 1017,9 hPa 0,0 mm 4,5 km/h (1 Bft) SW 223 ° 0 min 0,000 mm 0,0 UV-I 11 W/m² 5,0 °C 6,8 °C 6,4 km/h (2 Bft)
07.12.2018 08:14 6,8 °C 88 % 1017,8 hPa 0,0 mm 3,6 km/h (1 Bft) S 188 ° 0 min 0,000 mm 0,0 UV-I 11 W/m² 5,0 °C 6,8 °C 8,0 km/h (2 Bft)
07.12.2018 08:15 6,8 °C 88 % 1017,8 hPa 0,0 mm 8,1 km/h (2 Bft) S-SW 195 ° 0 min 0,000 mm 0,0 UV-I 12 W/m² 5,0 °C 5,2 °C 9,7 km/h (2 Bft)
07.12.2018 08:16 6,8 °C 88 % 1017,8 hPa 0,0 mm 4,6 km/h (1 Bft) S-SW 197 ° 0 min 0,000 mm 0,0 UV-I 12 W/m² 5,0 °C 6,3 °C 6,4 km/h (2 Bft)
07.12.2018 08:17 6,8 °C 87 % 1017,8 hPa 0,0 mm 6,4 km/h (2 Bft) S-SW 201 ° 0 min 0,000 mm 0,0 UV-I 14 W/m² 4,8 °C 5,7 °C 9,7 km/h (2 Bft)
07.12.2018 08:18 6,8 °C 87 % 1017,9 hPa 0,0 mm 6,5 km/h (2 Bft) S 188 ° 0 min 0,000 mm 0,0 UV-I 14 W/m² 4,8 °C 5,6 °C 8,0 km/h (2 Bft)
07.12.2018 08:19 6,8 °C 87 % 1017,9 hPa 0,0 mm 2,1 km/h (1 Bft) S 188 ° 0 min 0,000 mm 0,0 UV-I 14 W/m² 4,8 °C 6,8 °C 4,8 km/h (1 Bft)
07.12.2018 08:20 6,9 °C 87 % 1017,8 hPa 0,0 mm 4,1 km/h (1 Bft) S 176 ° 0 min 0,000 mm 0,0 UV-I 16 W/m² 4,9 °C 6,9 °C 4,8 km/h (1 Bft)
07.12.2018 08:21 6,9 °C 87 % 1017,8 hPa 0,0 mm 4,0 km/h (1 Bft) SW 217 ° 0 min 0,000 mm 0,0 UV-I 16 W/m² 4,9 °C 6,9 °C 6,4 km/h (2 Bft)
07.12.2018 08:22 6,9 °C 87 % 1017,8 hPa 0,0 mm 5,2 km/h (1 Bft) SW 223 ° 0 min 0,000 mm 0,0 UV-I 16 W/m² 4,9 °C 6,2 °C 8,0 km/h (2 Bft)
07.12.2018 08:23 7,0 °C 87 % 1017,8 hPa 0,0 mm 4,0 km/h (1 Bft) W-SW 248 ° 0 min 0,000 mm 0,0 UV-I 16 W/m² 5,0 °C 7,0 °C 8,0 km/h (2 Bft)
07.12.2018 08:24 7,1 °C 86 % 1017,8 hPa 0,0 mm 5,0 km/h (1 Bft) SW 218 ° 0 min 0,000 mm 0,0 UV-I 18 W/m² 4,9 °C 6,5 °C 8,0 km/h (2 Bft)
07.12.2018 08:25 7,1 °C 86 % 1017,7 hPa 0,0 mm 3,3 km/h (1 Bft) S-SW 199 ° 0 min 0,000 mm 0,0 UV-I 18 W/m² 4,9 °C 7,1 °C 6,4 km/h (2 Bft)
07.12.2018 08:26 7,2 °C 86 % 1017,8 hPa 0,0 mm 5,8 km/h (2 Bft) S-SW 192 ° 0 min 0,000 mm 0,0 UV-I 18 W/m² 5,0 °C 6,3 °C 8,0 km/h (2 Bft)
07.12.2018 08:27 7,2 °C 86 % 1017,8 hPa 0,0 mm 6,0 km/h (2 Bft) S-SW 201 ° 0 min 0,000 mm 0,0 UV-I 18 W/m² 5,0 °C 6,3 °C 8,0 km/h (2 Bft)
07.12.2018 08:28 7,2 °C 86 % 1017,7 hPa 0,0 mm 3,2 km/h (1 Bft) W-SW 245 ° 0 min 0,000 mm 0,0 UV-I 19 W/m² 5,0 °C 7,2 °C 4,8 km/h (1 Bft)
07.12.2018 08:29 7,3 °C 86 % 1017,8 hPa 0,0 mm 3,3 km/h (1 Bft) W-SW 238 ° 0 min 0,000 mm 0,0 UV-I 19 W/m² 5,1 °C 7,3 °C 6,4 km/h (2 Bft)
07.12.2018 08:30 7,3 °C 86 % 1017,6 hPa 0,0 mm 3,1 km/h (1 Bft) W-SW 238 ° 0 min 0,000 mm 0,0 UV-I 19 W/m² 5,1 °C 7,3 °C 4,8 km/h (1 Bft)
07.12.2018 08:31 7,4 °C 85 % 1017,7 hPa 0,0 mm 4,0 km/h (1 Bft) W-SW 246 ° 0 min 0,000 mm 0,0 UV-I 19 W/m² 5,0 °C 7,4 °C 8,0 km/h (2 Bft)
07.12.2018 08:32 7,4 °C 85 % 1017,7 hPa 0,0 mm 2,1 km/h (1 Bft) W-SW 246 ° 0 min 0,000 mm 0,0 UV-I 19 W/m² 5,0 °C 7,4 °C 3,2 km/h (1 Bft)
07.12.2018 08:33 7,5 °C 85 % 1017,6 hPa 0,0 mm 0,8 km/h (0 Bft) W 261 ° 0 min 0,000 mm 0,0 UV-I 19 W/m² 5,1 °C 7,5 °C 4,8 km/h (1 Bft)
07.12.2018 08:34 7,6 °C 85 % 1017,6 hPa 0,0 mm 4,1 km/h (1 Bft) SW 234 ° 0 min 0,000 mm 0,0 UV-I 19 W/m² 5,2 °C 7,6 °C 6,4 km/h (2 Bft)
07.12.2018 08:35 7,6 °C 84 % 1017,6 hPa 0,0 mm 4,0 km/h (1 Bft) S-SW 204 ° 0 min 0,000 mm 0,0 UV-I 19 W/m² 5,1 °C 7,6 °C 6,4 km/h (2 Bft)
07.12.2018 08:36 7,7 °C 84 % 1017,6 hPa 0,0 mm 3,0 km/h (1 Bft) S-SW 210 ° 0 min 0,000 mm 0,0 UV-I 19 W/m² 5,2 °C 7,7 °C 4,8 km/h (1 Bft)
07.12.2018 08:37 7,7 °C 84 % 1017,6 hPa 0,0 mm 3,2 km/h (1 Bft) S-SW 203 ° 0 min 0,000 mm 0,0 UV-I 19 W/m² 5,2 °C 7,7 °C 6,4 km/h (2 Bft)
07.12.2018 08:38 7,7 °C 84 % 1017,7 hPa 0,0 mm 6,1 km/h (2 Bft) S 190 ° 0 min 0,000 mm 0,0 UV-I 19 W/m² 5,2 °C 6,8 °C 8,0 km/h (2 Bft)
07.12.2018 08:39 7,8 °C 84 % 1017,7 hPa 0,0 mm 5,0 km/h (1 Bft) S-SW 209 ° 0 min 0,000 mm 0,0 UV-I 21 W/m² 5,3 °C 7,3 °C 8,0 km/h (2 Bft)
07.12.2018 08:40 7,8 °C 84 % 1017,7 hPa 0,0 mm 5,5 km/h (1 Bft) S-SW 211 ° 0 min 0,000 mm 0,0 UV-I 23 W/m² 5,3 °C 7,1 °C 8,0 km/h (2 Bft)
07.12.2018 08:41 7,8 °C 84 % 1017,6 hPa 0,0 mm 5,8 km/h (2 Bft) S-SW 202 ° 0 min 0,000 mm 0,0 UV-I 25 W/m² 5,3 °C 7,0 °C 8,0 km/h (2 Bft)
07.12.2018 08:42 7,8 °C 84 % 1017,7 hPa 0,0 mm 6,0 km/h (2 Bft) S-SW 199 ° 0 min 0,000 mm 0,0 UV-I 25 W/m² 5,3 °C 6,9 °C 9,7 km/h (2 Bft)
07.12.2018 08:43 7,8 °C 84 % 1017,7 hPa 0,0 mm 5,2 km/h (1 Bft) S-SW 202 ° 0 min 0,000 mm 0,0 UV-I 26 W/m² 5,3 °C 7,2 °C 6,4 km/h (2 Bft)
07.12.2018 08:44 7,8 °C 84 % 1017,7 hPa 0,0 mm 4,5 km/h (1 Bft) S-SW 200 ° 0 min 0,000 mm 0,0 UV-I 26 W/m² 5,3 °C 7,8 °C 6,4 km/h (2 Bft)
07.12.2018 08:45 7,8 °C 84 % 1017,6 hPa 0,0 mm 5,0 km/h (1 Bft) W-SW 241 ° 0 min 0,000 mm 0,0 UV-I 26 W/m² 5,3 °C 7,3 °C 6,4 km/h (2 Bft)
07.12.2018 08:46 7,8 °C 84 % 1017,6 hPa 0,0 mm 4,5 km/h (1 Bft) S-SW 204 ° 0 min 0,000 mm 0,0 UV-I 28 W/m² 5,3 °C 7,8 °C 8,0 km/h (2 Bft)
07.12.2018 08:47 7,8 °C 84 % 1017,6 hPa 0,0 mm 3,9 km/h (1 Bft) S-SW 205 ° 0 min 0,000 mm 0,0 UV-I 30 W/m² 5,3 °C 7,8 °C 6,4 km/h (2 Bft)
07.12.2018 08:48 7,8 °C 84 % 1017,6 hPa 0,0 mm 1,2 km/h (1 Bft) W-SW 251 ° 0 min 0,000 mm 0,0 UV-I 30 W/m² 5,3 °C 7,8 °C 4,8 km/h (1 Bft)
07.12.2018 08:49 7,8 °C 84 % 1017,7 hPa 0,0 mm 4,7 km/h (1 Bft) W-SW 241 ° 0 min 0,000 mm 0,0 UV-I 30 W/m² 5,3 °C 7,4 °C 6,4 km/h (2 Bft)
07.12.2018 08:50 7,8 °C 84 % 1017,6 hPa 0,0 mm 3,8 km/h (1 Bft) W-SW 252 ° 0 min 0,000 mm 0,0 UV-I 30 W/m² 5,3 °C 7,8 °C 6,4 km/h (2 Bft)
07.12.2018 08:51 7,8 °C 84 % 1017,6 hPa 0,0 mm 2,6 km/h (1 Bft) SW 226 ° 0 min 0,000 mm 0,0 UV-I 30 W/m² 5,3 °C 7,8 °C 4,8 km/h (1 Bft)
07.12.2018 08:52 7,8 °C 84 % 1017,6 hPa 0,0 mm 4,7 km/h (1 Bft) S-SW 210 ° 0 min 0,000 mm 0,0 UV-I 32 W/m² 5,3 °C 7,4 °C 8,0 km/h (2 Bft)
07.12.2018 08:53 7,8 °C 84 % 1017,6 hPa 0,0 mm 4,1 km/h (1 Bft) S-SW 210 ° 0 min 0,000 mm 0,0 UV-I 32 W/m² 5,3 °C 7,8 °C 6,4 km/h (2 Bft)
07.12.2018 08:54 7,9 °C 84 % 1017,5 hPa 0,0 mm 5,5 km/h (1 Bft) S-SW 199 ° 0 min 0,000 mm 0,0 UV-I 33 W/m² 5,4 °C 7,2 °C 8,0 km/h (2 Bft)
07.12.2018 08:55 7,9 °C 84 % 1017,5 hPa 0,0 mm 3,0 km/h (1 Bft) W-SW 241 ° 0 min 0,000 mm 0,0 UV-I 33 W/m² 5,4 °C 7,9 °C 6,4 km/h (2 Bft)
07.12.2018 08:56 7,9 °C 84 % 1017,5 hPa 0,0 mm 2,3 km/h (1 Bft) SW 227 ° 0 min 0,000 mm 0,0 UV-I 33 W/m² 5,4 °C 7,9 °C 4,8 km/h (1 Bft)
07.12.2018 08:57 7,9 °C 84 % 1017,5 hPa 0,0 mm 4,3 km/h (1 Bft) W 268 ° 0 min 0,000 mm 0,0 UV-I 32 W/m² 5,4 °C 7,9 °C 6,4 km/h (2 Bft)
07.12.2018 08:58 7,9 °C 84 % 1017,5 hPa 0,0 mm 3,6 km/h (1 Bft) W-SW 250 ° 0 min 0,000 mm 0,0 UV-I 32 W/m² 5,4 °C 7,9 °C 4,8 km/h (1 Bft)
07.12.2018 08:59 7,9 °C 84 % 1017,5 hPa 0,0 mm 2,5 km/h (1 Bft) SW 223 ° 0 min 0,000 mm 0,0 UV-I 32 W/m² 5,4 °C 7,9 °C 4,8 km/h (1 Bft)
07.12.2018 09:00 8,0 °C 84 % 1017,5 hPa 0,0 mm 3,3 km/h (1 Bft) W-SW 241 ° 0 min 0,000 mm 0,0 UV-I 30 W/m² 5,5 °C 8,0 °C 4,8 km/h (1 Bft)
07.12.2018 09:01 8,0 °C 84 % 1017,5 hPa 0,0 mm 2,7 km/h (1 Bft) W-SW 241 ° 0 min 0,025 mm 0,0 UV-I 30 W/m² 5,5 °C 8,0 °C 3,2 km/h (1 Bft)
07.12.2018 09:02 8,0 °C 84 % 1017,5 hPa 0,0 mm 4,5 km/h (1 Bft) SW 229 ° 0 min 0,000 mm 0,0 UV-I 30 W/m² 5,5 °C 8,0 °C 6,4 km/h (2 Bft)
07.12.2018 09:03 8,1 °C 84 % 1017,5 hPa 0,0 mm 4,1 km/h (1 Bft) SW 223 ° 0 min 0,000 mm 0,0 UV-I 32 W/m² 5,6 °C 8,1 °C 6,4 km/h (2 Bft)
07.12.2018 09:04 8,1 °C 84 % 1017,5 hPa 0,0 mm 1,7 km/h (1 Bft) SW 223 ° 0 min 0,000 mm 0,0 UV-I 32 W/m² 5,6 °C 8,1 °C 3,2 km/h (1 Bft)
07.12.2018 09:05 8,1 °C 84 % 1017,5 hPa 0,0 mm 1,3 km/h (1 Bft) SW 223 ° 0 min 0,000 mm 0,0 UV-I 33 W/m² 5,6 °C 8,1 °C 3,2 km/h (1 Bft)
07.12.2018 09:06 8,1 °C 84 % 1017,4 hPa 0,0 mm 2,3 km/h (1 Bft) SW 217 ° 0 min 0,000 mm 0,0 UV-I 35 W/m² 5,6 °C 8,1 °C 9,7 km/h (2 Bft)
07.12.2018 09:07 8,1 °C 84 % 1017,4 hPa 0,0 mm 2,8 km/h (1 Bft) W-SW 242 ° 0 min 0,000 mm 0,0 UV-I 35 W/m² 5,6 °C 8,1 °C 9,7 km/h (2 Bft)
07.12.2018 09:08 8,1 °C 84 % 1017,4 hPa 0,0 mm 1,4 km/h (1 Bft) SW 221 ° 0 min 0,000 mm 0,0 UV-I 37 W/m² 5,6 °C 8,1 °C 3,2 km/h (1 Bft)
07.12.2018 09:09 8,1 °C 84 % 1017,4 hPa 0,0 mm 2,2 km/h (1 Bft) SW 217 ° 0 min 0,000 mm 0,0 UV-I 39 W/m² 5,6 °C 8,1 °C 4,8 km/h (1 Bft)
07.12.2018 09:10 8,1 °C 84 % 1017,4 hPa 0,0 mm 1,4 km/h (1 Bft) SW 217 ° 0 min 0,000 mm 0,0 UV-I 39 W/m² 5,6 °C 8,1 °C 3,2 km/h (1 Bft)
07.12.2018 09:11 8,1 °C 84 % 1017,4 hPa 0,0 mm 4,1 km/h (1 Bft) S 187 ° 0 min 0,000 mm 0,0 UV-I 39 W/m² 5,6 °C 8,1 °C 8,0 km/h (2 Bft)
07.12.2018 09:12 8,2 °C 84 % 1017,4 hPa 0,0 mm 4,0 km/h (1 Bft) S-SW 210 ° 0 min 0,000 mm 0,0 UV-I 40 W/m² 5,7 °C 8,2 °C 6,4 km/h (2 Bft)
07.12.2018 09:13 8,2 °C 84 % 1017,3 hPa 0,0 mm 2,0 km/h (1 Bft) S-SW 211 ° 0 min 0,000 mm 0,0 UV-I 40 W/m² 5,7 °C 8,2 °C 4,8 km/h (1 Bft)
07.12.2018 09:14 8,2 °C 84 % 1017,3 hPa 0,0 mm 1,8 km/h (1 Bft) S-SW 196 ° 0 min 0,000 mm 0,0 UV-I 40 W/m² 5,7 °C 8,2 °C 4,8 km/h (1 Bft)
07.12.2018 09:15 8,2 °C 84 % 1017,3 hPa 0,0 mm 1,5 km/h (1 Bft) S-SW 196 ° 0 min 0,000 mm 0,0 UV-I 42 W/m² 5,7 °C 8,2 °C 3,2 km/h (1 Bft)
07.12.2018 09:16 8,2 °C 84 % 1017,3 hPa 0,0 mm 1,0 km/h (0 Bft) S-SW 196 ° 0 min 0,000 mm 0,0 UV-I 42 W/m² 5,7 °C 8,2 °C 3,2 km/h (1 Bft)
07.12.2018 09:17 8,2 °C 84 % 1017,3 hPa 0,0 mm 0,9 km/h (0 Bft) S-SW 196 ° 0 min 0,000 mm 0,0 UV-I 42 W/m² 5,7 °C 8,2 °C 4,8 km/h (1 Bft)
07.12.2018 09:18 8,2 °C 84 % 1017,2 hPa 0,0 mm 4,1 km/h (1 Bft) S-SW 196 ° 0 min 0,000 mm 0,0 UV-I 42 W/m² 5,7 °C 8,2 °C 6,4 km/h (2 Bft)
07.12.2018 09:19 8,3 °C 84 % 1017,2 hPa 0,0 mm 4,1 km/h (1 Bft) S-SW 198 ° 0 min 0,000 mm 0,0 UV-I 42 W/m² 5,8 °C 8,3 °C 8,0 km/h (2 Bft)
07.12.2018 09:20 8,2 °C 83 % 1017,2 hPa 0,0 mm 1,7 km/h (1 Bft) S-SW 198 ° 0 min 0,000 mm 0,0 UV-I 42 W/m² 5,5 °C 8,2 °C 3,2 km/h (1 Bft)
07.12.2018 09:21 8,2 °C 83 % 1017,2 hPa 0,0 mm 1,8 km/h (1 Bft) S-SW 198 ° 0 min 0,000 mm 0,0 UV-I 42 W/m² 5,5 °C 8,2 °C 3,2 km/h (1 Bft)
07.12.2018 09:22 8,3 °C 83 % 1017,2 hPa 0,0 mm 3,8 km/h (1 Bft) S-SW 198 ° 0 min 0,000 mm 0,0 UV-I 42 W/m² 5,6 °C 8,3 °C 6,4 km/h (2 Bft)
07.12.2018 09:23 8,3 °C 83 % 1017,2 hPa 0,0 mm 5,8 km/h (2 Bft) S-SW 199 ° 0 min 0,000 mm 0,0 UV-I 40 W/m² 5,6 °C 7,6 °C 9,7 km/h (2 Bft)
07.12.2018 09:24 8,3 °C 83 % 1017,2 hPa 0,0 mm 5,6 km/h (1 Bft) S-SW 198 ° 0 min 0,000 mm 0,0 UV-I 39 W/m² 5,6 °C 7,6 °C 8,0 km/h (2 Bft)
07.12.2018 09:25 8,3 °C 83 % 1017,2 hPa 0,0 mm 7,4 km/h (2 Bft) S-SW 195 ° 0 min 0,000 mm 0,0 UV-I 39 W/m² 5,6 °C 7,1 °C 12,9 km/h (3 Bft)
07.12.2018 09:26 8,3 °C 83 % 1017,1 hPa 0,0 mm 5,2 km/h (1 Bft) S-SW 205 ° 0 min 0,000 mm 0,0 UV-I 37 W/m² 5,6 °C 7,8 °C 8,0 km/h (2 Bft)
07.12.2018 09:27 8,3 °C 83 % 1017,1 hPa 0,0 mm 3,6 km/h (1 Bft) S-SW 205 ° 0 min 0,000 mm 0,0 UV-I 37 W/m² 5,6 °C 8,3 °C 6,4 km/h (2 Bft)
07.12.2018 09:28 8,3 °C 83 % 1017,1 hPa 0,0 mm 4,9 km/h (1 Bft) S-SW 197 ° 0 min 0,000 mm 0,0 UV-I 39 W/m² 5,6 °C 7,9 °C 8,0 km/h (2 Bft)
07.12.2018 09:29 8,3 °C 83 % 1017,1 hPa 0,0 mm 3,5 km/h (1 Bft) S-SW 201 ° 0 min 0,000 mm 0,0 UV-I 39 W/m² 5,6 °C 8,3 °C 8,0 km/h (2 Bft)
07.12.2018 09:30 8,4 °C 83 % 1017,1 hPa 0,0 mm 5,9 km/h (2 Bft) S-SW 203 ° 0 min 0,000 mm 0,0 UV-I 40 W/m² 5,7 °C 7,7 °C 9,7 km/h (2 Bft)
07.12.2018 09:31 8,3 °C 83 % 1017,1 hPa 0,0 mm 4,7 km/h (1 Bft) S 175 ° 0 min 0,000 mm 0,0 UV-I 40 W/m² 5,6 °C 7,9 °C 6,4 km/h (2 Bft)
07.12.2018 09:32 8,4 °C 83 % 1017,1 hPa 0,0 mm 5,8 km/h (2 Bft) SW 214 ° 0 min 0,000 mm 0,0 UV-I 42 W/m² 5,7 °C 7,7 °C 11,3 km/h (2 Bft)
07.12.2018 09:33 8,4 °C 83 % 1017,1 hPa 0,0 mm 3,9 km/h (1 Bft) SW 229 ° 0 min 0,000 mm 0,0 UV-I 46 W/m² 5,7 °C 8,4 °C 9,7 km/h (2 Bft)
07.12.2018 09:34 8,4 °C 83 % 1017,0 hPa 0,0 mm 2,4 km/h (1 Bft) SW 230 ° 0 min 0,000 mm 0,0 UV-I 47 W/m² 5,7 °C 8,4 °C 6,4 km/h (2 Bft)
07.12.2018 09:35 8,4 °C 83 % 1017,0 hPa 0,0 mm 3,3 km/h (1 Bft) S-SW 208 ° 0 min 0,000 mm 0,0 UV-I 51 W/m² 5,7 °C 8,4 °C 4,8 km/h (1 Bft)
07.12.2018 09:36 8,4 °C 83 % 1016,9 hPa 0,0 mm 2,8 km/h (1 Bft) W-SW 243 ° 0 min 0,000 mm 0,0 UV-I 53 W/m² 5,7 °C 8,4 °C 4,8 km/h (1 Bft)
07.12.2018 09:37 8,4 °C 83 % 1016,9 hPa 0,0 mm 3,0 km/h (1 Bft) SW 223 ° 0 min 0,000 mm 0,0 UV-I 53 W/m² 5,7 °C 8,4 °C 8,0 km/h (2 Bft)
07.12.2018 09:38 8,4 °C 84 % 1016,8 hPa 0,0 mm 3,8 km/h (1 Bft) SW 228 ° 0 min 0,000 mm 0,0 UV-I 54 W/m² 5,9 °C 8,4 °C 4,8 km/h (1 Bft)
07.12.2018 09:39 8,4 °C 84 % 1016,9 hPa 0,0 mm 1,2 km/h (1 Bft) SW 225 ° 0 min 0,000 mm 0,0 UV-I 54 W/m² 5,9 °C 8,4 °C 4,8 km/h (1 Bft)
07.12.2018 09:40 8,4 °C 83 % 1016,8 hPa 0,0 mm 2,6 km/h (1 Bft) S-SW 210 ° 0 min 0,000 mm 0,0 UV-I 53 W/m² 5,7 °C 8,4 °C 4,8 km/h (1 Bft)
07.12.2018 09:41 8,4 °C 84 % 1016,8 hPa 0,0 mm 1,3 km/h (1 Bft) SW 221 ° 0 min 0,000 mm 0,0 UV-I 51 W/m² 5,9 °C 8,4 °C 4,8 km/h (1 Bft)
07.12.2018 09:42 8,4 °C 83 % 1016,8 hPa 0,0 mm 4,6 km/h (1 Bft) S-SW 196 ° 0 min 0,000 mm 0,0 UV-I 49 W/m² 5,7 °C 8,1 °C 8,0 km/h (2 Bft)
07.12.2018 09:43 8,4 °C 83 % 1016,8 hPa 0,0 mm 5,4 km/h (1 Bft) S-SW 198 ° 0 min 0,000 mm 0,0 UV-I 47 W/m² 5,7 °C 7,8 °C 6,4 km/h (2 Bft)
07.12.2018 09:44 8,4 °C 83 % 1016,7 hPa 0,0 mm 3,2 km/h (1 Bft) S 185 ° 0 min 0,000 mm 0,0 UV-I 47 W/m² 5,7 °C 8,4 °C 6,4 km/h (2 Bft)
07.12.2018 09:45 8,4 °C 83 % 1016,6 hPa 0,0 mm 5,6 km/h (1 Bft) SW 226 ° 0 min 0,000 mm 0,0 UV-I 53 W/m² 5,7 °C 7,7 °C 8,0 km/h (2 Bft)
07.12.2018 09:46 8,4 °C 82 % 1016,6 hPa 0,0 mm 4,0 km/h (1 Bft) S-SW 209 ° 0 min 0,000 mm 0,0 UV-I 56 W/m² 5,5 °C 8,4 °C 8,0 km/h (2 Bft)
07.12.2018 09:47 8,4 °C 82 % 1016,6 hPa 0,0 mm 7,2 km/h (2 Bft) S 184 ° 0 min 0,000 mm 0,0 UV-I 60 W/m² 5,5 °C 7,3 °C 9,7 km/h (2 Bft)
07.12.2018 09:48 8,4 °C 82 % 1016,5 hPa 0,0 mm 4,2 km/h (1 Bft) SW 214 ° 0 min 0,000 mm 0,0 UV-I 63 W/m² 5,5 °C 8,4 °C 6,4 km/h (2 Bft)
07.12.2018 09:49 8,4 °C 82 % 1016,6 hPa 0,0 mm 4,2 km/h (1 Bft) SW 223 ° 0 min 0,000 mm 0,0 UV-I 65 W/m² 5,5 °C 8,4 °C 8,0 km/h (2 Bft)
07.12.2018 09:50 8,4 °C 82 % 1016,5 hPa 0,0 mm 2,7 km/h (1 Bft) SW 225 ° 0 min 0,000 mm 0,0 UV-I 67 W/m² 5,5 °C 8,4 °C 3,2 km/h (1 Bft)
07.12.2018 09:51 8,4 °C 82 % 1016,5 hPa 0,0 mm 3,1 km/h (1 Bft) S-SW 211 ° 0 min 0,000 mm 0,0 UV-I 69 W/m² 5,5 °C 8,4 °C 4,8 km/h (1 Bft)
07.12.2018 09:52 8,5 °C 83 % 1016,6 hPa 0,0 mm 3,3 km/h (1 Bft) SW 229 ° 0 min 0,000 mm 0,0 UV-I 69 W/m² 5,8 °C 8,5 °C 4,8 km/h (1 Bft)
07.12.2018 09:53 8,5 °C 82 % 1016,5 hPa 0,0 mm 3,6 km/h (1 Bft) S-SW 202 ° 0 min 0,000 mm 0,0 UV-I 69 W/m² 5,6 °C 8,5 °C 6,4 km/h (2 Bft)
07.12.2018 09:54 8,5 °C 82 % 1016,5 hPa 0,0 mm 3,6 km/h (1 Bft) S-SW 198 ° 0 min 0,000 mm 0,0 UV-I 69 W/m² 5,6 °C 8,5 °C 6,4 km/h (2 Bft)
07.12.2018 09:55 8,5 °C 82 % 1016,4 hPa 0,0 mm 0,8 km/h (0 Bft) S 191 ° 0 min 0,000 mm 0,0 UV-I 69 W/m² 5,6 °C 8,5 °C 1,6 km/h (1 Bft)
07.12.2018 09:56 8,6 °C 82 % 1016,4 hPa 0,0 mm 3,8 km/h (1 Bft) W-SW 237 ° 0 min 0,000 mm 0,0 UV-I 70 W/m² 5,7 °C 8,6 °C 4,8 km/h (1 Bft)
07.12.2018 09:57 8,6 °C 82 % 1016,4 hPa 0,0 mm 5,1 km/h (1 Bft) SW 216 ° 0 min 0,000 mm 0,0 UV-I 69 W/m² 5,7 °C 8,1 °C 9,7 km/h (2 Bft)
07.12.2018 09:58 8,6 °C 82 % 1016,4 hPa 0,0 mm 2,2 km/h (1 Bft) W-SW 242 ° 0 min 0,000 mm 0,0 UV-I 69 W/m² 5,7 °C 8,6 °C 6,4 km/h (2 Bft)
07.12.2018 09:59 8,6 °C 82 % 1016,4 hPa 0,0 mm 2,4 km/h (1 Bft) W-SW 238 ° 0 min 0,000 mm 0,0 UV-I 67 W/m² 5,7 °C 8,6 °C 4,8 km/h (1 Bft)
07.12.2018 10:00 8,6 °C 83 % 1016,4 hPa 0,0 mm 1,5 km/h (1 Bft) S-SW 203 ° 0 min 0,000 mm 0,0 UV-I 67 W/m² 5,9 °C 8,6 °C 4,8 km/h (1 Bft)
07.12.2018 10:01 8,6 °C 83 % 1016,4 hPa 0,0 mm 1,5 km/h (1 Bft) S-SW 201 ° 0 min 0,025 mm 0,0 UV-I 69 W/m² 5,9 °C 8,6 °C 4,8 km/h (1 Bft)
07.12.2018 10:02 8,6 °C 83 % 1016,4 hPa 0,0 mm 2,8 km/h (1 Bft) S-SW 206 ° 0 min 0,000 mm 0,0 UV-I 70 W/m² 5,9 °C 8,6 °C 4,8 km/h (1 Bft)
07.12.2018 10:03 8,6 °C 83 % 1016,3 hPa 0,0 mm 4,4 km/h (1 Bft) W-SW 249 ° 0 min 0,000 mm 0,0 UV-I 72 W/m² 5,9 °C 8,6 °C 6,4 km/h (2 Bft)
07.12.2018 10:04 8,6 °C 83 % 1016,2 hPa 0,0 mm 1,9 km/h (1 Bft) W-SW 250 ° 0 min 0,000 mm 0,0 UV-I 72 W/m² 5,9 °C 8,6 °C 3,2 km/h (1 Bft)
07.12.2018 10:05 8,6 °C 83 % 1016,2 hPa 0,0 mm 1,8 km/h (1 Bft) W-SW 250 ° 0 min 0,000 mm 0,0 UV-I 72 W/m² 5,9 °C 8,6 °C 4,8 km/h (1 Bft)
07.12.2018 10:06 8,7 °C 83 % 1016,2 hPa 0,0 mm 3,6 km/h (1 Bft) W-SW 250 ° 0 min 0,000 mm 0,0 UV-I 72 W/m² 6,0 °C 8,7 °C 6,4 km/h (2 Bft)
07.12.2018 10:07 8,6 °C 83 % 1016,2 hPa 0,0 mm 1,3 km/h (1 Bft) W-SW 250 ° 0 min 0,000 mm 0,0 UV-I 69 W/m² 5,9 °C 8,6 °C 3,2 km/h (1 Bft)
07.12.2018 10:08 8,7 °C 83 % 1016,2 hPa 0,0 mm 0,0 km/h (0 Bft) W-SW 250 ° 0 min 0,000 mm 0,0 UV-I 65 W/m² 6,0 °C 8,7 °C 0,0 km/h (0 Bft)
07.12.2018 10:09 8,7 °C 83 % 1016,2 hPa 0,0 mm 0,1 km/h (0 Bft) W-SW 250 ° 0 min 0,000 mm 0,0 UV-I 65 W/m² 6,0 °C 8,7 °C 1,6 km/h (1 Bft)
07.12.2018 10:10 8,7 °C 83 % 1016,2 hPa 0,0 mm 1,9 km/h (1 Bft) W-SW 250 ° 0 min 0,000 mm 0,0 UV-I 65 W/m² 6,0 °C 8,7 °C 3,2 km/h (1 Bft)
07.12.2018 10:11 8,7 °C 83 % 1016,2 hPa 0,0 mm 3,2 km/h (1 Bft) W 278 ° 0 min 0,000 mm 0,0 UV-I 65 W/m² 6,0 °C 8,7 °C 4,8 km/h (1 Bft)
07.12.2018 10:12 8,7 °C 83 % 1016,2 hPa 0,0 mm 3,5 km/h (1 Bft) W 263 ° 0 min 0,000 mm 0,0 UV-I 67 W/m² 6,0 °C 8,7 °C 6,4 km/h (2 Bft)
07.12.2018 10:13 8,7 °C 83 % 1016,2 hPa 0,0 mm 3,7 km/h (1 Bft) W-NW 286 ° 0 min 0,000 mm 0,0 UV-I 67 W/m² 6,0 °C 8,7 °C 4,8 km/h (1 Bft)
07.12.2018 10:14 8,7 °C 83 % 1016,2 hPa 0,0 mm 2,9 km/h (1 Bft) W-NW 286 ° 0 min 0,000 mm 0,0 UV-I 70 W/m² 6,0 °C 8,7 °C 4,8 km/h (1 Bft)
07.12.2018 10:15 8,7 °C 83 % 1016,2 hPa 0,0 mm 0,1 km/h (0 Bft) W-NW 286 ° 0 min 0,000 mm 0,0 UV-I 72 W/m² 6,0 °C 8,7 °C 1,6 km/h (1 Bft)
07.12.2018 10:16 8,7 °C 83 % 1016,2 hPa 0,0 mm 1,2 km/h (1 Bft) W-NW 286 ° 0 min 0,000 mm 0,5 UV-I 72 W/m² 6,0 °C 8,7 °C 1,6 km/h (1 Bft)
07.12.2018 10:17 8,7 °C 84 % 1016,2 hPa 0,0 mm 1,9 km/h (1 Bft) W-NW 286 ° 0 min 0,000 mm 0,5 UV-I 74 W/m² 6,2 °C 8,7 °C 4,8 km/h (1 Bft)
07.12.2018 10:18 8,7 °C 84 % 1016,2 hPa 0,0 mm 0,7 km/h (0 Bft) W-NW 286 ° 0 min 0,000 mm 0,5 UV-I 74 W/m² 6,2 °C 8,7 °C 3,2 km/h (1 Bft)
07.12.2018 10:19 8,7 °C 84 % 1016,2 hPa 0,0 mm 0,0 km/h (0 Bft) W-NW 286 ° 0 min 0,000 mm 0,5 UV-I 74 W/m² 6,2 °C 8,7 °C 0,0 km/h (0 Bft)
07.12.2018 10:20 8,7 °C 84 % 1016,1 hPa 0,0 mm 0,0 km/h (0 Bft) W-NW 286 ° 0 min 0,000 mm 0,5 UV-I 76 W/m² 6,2 °C 8,7 °C 0,0 km/h (0 Bft)
07.12.2018 10:21 8,6 °C 84 % 1016,1 hPa 0,0 mm 0,0 km/h (0 Bft) W-NW 286 ° 0 min 0,000 mm 0,5 UV-I 76 W/m² 6,1 °C 8,6 °C 0,0 km/h (0 Bft)
07.12.2018 10:22 8,7 °C 84 % 1016,1 hPa 0,0 mm 0,1 km/h (0 Bft) W-NW 286 ° 0 min 0,000 mm 0,5 UV-I 77 W/m² 6,2 °C 8,7 °C 1,6 km/h (1 Bft)
07.12.2018 10:23 8,6 °C 84 % 1016,1 hPa 0,0 mm 0,0 km/h (0 Bft) W-NW 286 ° 0 min 0,000 mm 0,5 UV-I 79 W/m² 6,1 °C 8,6 °C 0,0 km/h (0 Bft)
07.12.2018 10:24 8,6 °C 84 % 1016,1 hPa 0,0 mm 0,0 km/h (0 Bft) W-NW 286 ° 0 min 0,000 mm 0,5 UV-I 81 W/m² 6,1 °C 8,6 °C 0,0 km/h (0 Bft)
07.12.2018 10:25 8,6 °C 84 % 1016,0 hPa 0,0 mm 0,3 km/h (0 Bft) W-NW 286 ° 0 min 0,000 mm 0,5 UV-I 83 W/m² 6,1 °C 8,6 °C 1,6 km/h (1 Bft)
07.12.2018 10:26 8,6 °C 84 % 1016,1 hPa 0,0 mm 0,0 km/h (0 Bft) W-NW 286 ° 0 min 0,000 mm 0,5 UV-I 83 W/m² 6,1 °C 8,6 °C 0,0 km/h (0 Bft)
07.12.2018 10:27 8,6 °C 84 % 1016,1 hPa 0,0 mm 0,0 km/h (0 Bft) W-NW 286 ° 0 min 0,000 mm 0,5 UV-I 83 W/m² 6,1 °C 8,6 °C 0,0 km/h (0 Bft)
07.12.2018 10:28 8,6 °C 84 % 1016,1 hPa 0,0 mm 0,8 km/h (0 Bft) W-NW 286 ° 0 min 0,000 mm 0,5 UV-I 83 W/m² 6,1 °C 8,6 °C 3,2 km/h (1 Bft)
07.12.2018 10:29 8,6 °C 84 % 1016,1 hPa 0,0 mm 0,0 km/h (0 Bft) W-NW 286 ° 0 min 0,000 mm 0,5 UV-I 81 W/m² 6,1 °C 8,6 °C 0,0 km/h (0 Bft)
07.12.2018 10:30 8,6 °C 84 % 1016,1 hPa 0,0 mm 1,6 km/h (1 Bft) W-NW 286 ° 0 min 0,000 mm 0,5 UV-I 81 W/m² 6,1 °C 8,6 °C 4,8 km/h (1 Bft)
07.12.2018 10:31 8,6 °C 84 % 1015,9 hPa 0,0 mm 0,8 km/h (0 Bft) W-NW 286 ° 0 min 0,000 mm 0,5 UV-I 79 W/m² 6,1 °C 8,6 °C 1,6 km/h (1 Bft)
07.12.2018 10:32 8,6 °C 84 % 1015,9 hPa 0,0 mm 0,0 km/h (0 Bft) W-NW 286 ° 0 min 0,000 mm 0,5 UV-I 79 W/m² 6,1 °C 8,6 °C 0,0 km/h (0 Bft)
07.12.2018 10:33 8,7 °C 85 % 1015,9 hPa 0,0 mm 0,0 km/h (0 Bft) W-NW 286 ° 0 min 0,000 mm 0,5 UV-I 77 W/m² 6,3 °C 8,7 °C 0,0 km/h (0 Bft)
07.12.2018 10:34 8,7 °C 85 % 1015,9 hPa 0,0 mm 0,0 km/h (0 Bft) W-NW 286 ° 0 min 0,000 mm 0,5 UV-I 77 W/m² 6,3 °C 8,7 °C 0,0 km/h (0 Bft)
07.12.2018 10:35 8,7 °C 85 % 1015,8 hPa 0,0 mm 0,0 km/h (0 Bft) W-NW 286 ° 0 min 0,000 mm 0,5 UV-I 77 W/m² 6,3 °C 8,7 °C 0,0 km/h (0 Bft)
07.12.2018 10:36 8,7 °C 85 % 1015,8 hPa 0,0 mm 0,0 km/h (0 Bft) W-NW 286 ° 0 min 0,000 mm 0,5 UV-I 77 W/m² 6,3 °C 8,7 °C 0,0 km/h (0 Bft)
07.12.2018 10:37 8,7 °C 85 % 1015,8 hPa 0,0 mm 0,0 km/h (0 Bft) W-NW 286 ° 0 min 0,000 mm 0,5 UV-I 81 W/m² 6,3 °C 8,7 °C 0,0 km/h (0 Bft)
07.12.2018 10:38 8,7 °C 85 % 1015,8 hPa 0,0 mm 0,0 km/h (0 Bft) W-NW 286 ° 0 min 0,000 mm 0,6 UV-I 83 W/m² 6,3 °C 8,7 °C 0,0 km/h (0 Bft)
07.12.2018 10:39 8,7 °C 85 % 1015,8 hPa 0,0 mm 0,0 km/h (0 Bft) W-NW 286 ° 0 min 0,000 mm 0,6 UV-I 83 W/m² 6,3 °C 8,7 °C 0,0 km/h (0 Bft)
07.12.2018 10:40 8,7 °C 85 % 1015,8 hPa 0,0 mm 0,0 km/h (0 Bft) W-NW 286 ° 0 min 0,000 mm 0,6 UV-I 84 W/m² 6,3 °C 8,7 °C 0,0 km/h (0 Bft)
07.12.2018 10:41 8,7 °C 85 % 1015,7 hPa 0,0 mm 0,0 km/h (0 Bft) W-NW 286 ° 0 min 0,000 mm 0,6 UV-I 86 W/m² 6,3 °C 8,7 °C 0,0 km/h (0 Bft)
07.12.2018 10:42 8,7 °C 85 % 1015,7 hPa 0,0 mm 0,0 km/h (0 Bft) W-NW 286 ° 0 min 0,000 mm 0,6 UV-I 90 W/m² 6,3 °C 8,7 °C 0,0 km/h (0 Bft)
07.12.2018 10:43 8,7 °C 85 % 1015,7 hPa 0,0 mm 0,0 km/h (0 Bft) W-NW 286 ° 0 min 0,000 mm 0,6 UV-I 91 W/m² 6,3 °C 8,7 °C 0,0 km/h (0 Bft)
07.12.2018 10:44 8,7 °C 84 % 1015,6 hPa 0,0 mm 0,1 km/h (0 Bft) W-NW 286 ° 0 min 0,000 mm 0,6 UV-I 91 W/m² 6,2 °C 8,7 °C 1,6 km/h (1 Bft)
07.12.2018 10:45 8,7 °C 84 % 1015,7 hPa 0,0 mm 0,0 km/h (0 Bft) W-NW 286 ° 0 min 0,000 mm 0,6 UV-I 90 W/m² 6,2 °C 8,7 °C 0,0 km/h (0 Bft)
07.12.2018 10:46 8,7 °C 85 % 1015,7 hPa 0,0 mm 0,0 km/h (0 Bft) W-NW 286 ° 0 min 0,000 mm 0,6 UV-I 86 W/m² 6,3 °C 8,7 °C 0,0 km/h (0 Bft)
07.12.2018 10:47 8,7 °C 85 % 1015,7 hPa 0,0 mm 0,0 km/h (0 Bft) W-NW 286 ° 0 min 0,000 mm 0,6 UV-I 84 W/m² 6,3 °C 8,7 °C 0,0 km/h (0 Bft)
07.12.2018 10:48 8,7 °C 85 % 1015,7 hPa 0,0 mm 0,0 km/h (0 Bft) W-NW 286 ° 0 min 0,000 mm 0,6 UV-I 83 W/m² 6,3 °C 8,7 °C 0,0 km/h (0 Bft)
07.12.2018 10:49 8,7 °C 85 % 1015,7 hPa 0,0 mm 0,0 km/h (0 Bft) W-NW 286 ° 0 min 0,000 mm 0,6 UV-I 77 W/m² 6,3 °C 8,7 °C 0,0 km/h (0 Bft)
07.12.2018 10:50 8,7 °C 85 % 1015,7 hPa 0,0 mm 0,0 km/h (0 Bft) W-NW 286 ° 0 min 0,000 mm 0,6 UV-I 77 W/m² 6,3 °C 8,7 °C 0,0 km/h (0 Bft)
07.12.2018 10:51 8,8 °C 85 % 1015,7 hPa 0,0 mm 0,0 km/h (0 Bft) W-NW 286 ° 0 min 0,000 mm 0,6 UV-I 77 W/m² 6,4 °C 8,8 °C 0,0 km/h (0 Bft)
07.12.2018 10:52 8,8 °C 85 % 1015,6 hPa 0,0 mm 0,0 km/h (0 Bft) W-NW 286 ° 0 min 0,000 mm 0,6 UV-I 76 W/m² 6,4 °C 8,8 °C 0,0 km/h (0 Bft)
07.12.2018 10:53 8,7 °C 85 % 1015,6 hPa 0,0 mm 0,0 km/h (0 Bft) W-NW 286 ° 0 min 0,000 mm 0,6 UV-I 76 W/m² 6,3 °C 8,7 °C 0,0 km/h (0 Bft)
07.12.2018 10:54 8,8 °C 85 % 1015,6 hPa 0,0 mm 0,0 km/h (0 Bft) W-NW 286 ° 0 min 0,000 mm 0,6 UV-I 76 W/m² 6,4 °C 8,8 °C 0,0 km/h (0 Bft)
07.12.2018 10:55 8,8 °C 85 % 1015,6 hPa 0,0 mm 0,0 km/h (0 Bft) W-NW 286 ° 0 min 0,000 mm 0,6 UV-I 79 W/m² 6,4 °C 8,8 °C 0,0 km/h (0 Bft)
07.12.2018 10:56 8,8 °C 85 % 1015,6 hPa 0,0 mm 0,0 km/h (0 Bft) W-NW 286 ° 0 min 0,000 mm 0,6 UV-I 81 W/m² 6,4 °C 8,8 °C 0,0 km/h (0 Bft)
07.12.2018 10:57 8,8 °C 85 % 1015,5 hPa 0,0 mm 0,0 km/h (0 Bft) W-NW 286 ° 0 min 0,000 mm 0,6 UV-I 83 W/m² 6,4 °C 8,8 °C 0,0 km/h (0 Bft)
07.12.2018 10:58 8,8 °C 85 % 1015,5 hPa 0,0 mm 0,0 km/h (0 Bft) W-NW 286 ° 0 min 0,000 mm 0,6 UV-I 84 W/m² 6,4 °C 8,8 °C 0,0 km/h (0 Bft)
07.12.2018 10:59 8,8 °C 85 % 1015,5 hPa 0,0 mm 0,0 km/h (0 Bft) W-NW 286 ° 0 min 0,000 mm 0,6 UV-I 84 W/m² 6,4 °C 8,8 °C 0,0 km/h (0 Bft)
07.12.2018 11:00 8,9 °C 85 % 1015,5 hPa 0,0 mm 0,0 km/h (0 Bft) W-NW 286 ° 0 min 0,026 mm 0,5 UV-I 83 W/m² 6,5 °C 8,9 °C 0,0 km/h (0 Bft)
07.12.2018 11:01 8,9 °C 86 % 1015,5 hPa 0,0 mm 0,0 km/h (0 Bft) W-NW 286 ° 0 min 0,000 mm 0,5 UV-I 79 W/m² 6,7 °C 8,9 °C 0,0 km/h (0 Bft)
07.12.2018 11:02 8,9 °C 86 % 1015,4 hPa 0,0 mm 0,0 km/h (0 Bft) W-NW 286 ° 0 min 0,000 mm 0,5 UV-I 77 W/m² 6,7 °C 8,9 °C 0,0 km/h (0 Bft)
07.12.2018 11:03 8,9 °C 86 % 1015,3 hPa 0,0 mm 0,0 km/h (0 Bft) W-NW 286 ° 0 min 0,000 mm 0,5 UV-I 74 W/m² 6,7 °C 8,9 °C 0,0 km/h (0 Bft)
07.12.2018 11:04 8,9 °C 86 % 1015,3 hPa 0,0 mm 0,7 km/h (0 Bft) W-NW 286 ° 0 min 0,000 mm 0,5 UV-I 72 W/m² 6,7 °C 8,9 °C 3,2 km/h (1 Bft)
07.12.2018 11:05 8,9 °C 85 % 1015,3 hPa 0,0 mm 0,0 km/h (0 Bft) W-NW 286 ° 0 min 0,000 mm 0,5 UV-I 72 W/m² 6,5 °C 8,9 °C 0,0 km/h (0 Bft)
07.12.2018 11:06 8,9 °C 84 % 1015,3 hPa 0,0 mm 0,0 km/h (0 Bft) W-NW 286 ° 0 min 0,000 mm 0,5 UV-I 83 W/m² 6,3 °C 8,9 °C 0,0 km/h (0 Bft)
07.12.2018 11:07 8,9 °C 84 % 1015,3 hPa 0,0 mm 0,1 km/h (0 Bft) W-NW 286 ° 0 min 0,000 mm 0,6 UV-I 88 W/m² 6,3 °C 8,9 °C 1,6 km/h (1 Bft)
07.12.2018 11:08 8,9 °C 83 % 1015,2 hPa 0,0 mm 0,0 km/h (0 Bft) W-NW 286 ° 0 min 0,000 mm 0,6 UV-I 90 W/m² 6,2 °C 8,9 °C 0,0 km/h (0 Bft)
07.12.2018 11:09 8,9 °C 83 % 1015,1 hPa 0,0 mm 0,6 km/h (0 Bft) W-NW 286 ° 0 min 0,000 mm 0,6 UV-I 91 W/m² 6,2 °C 8,9 °C 3,2 km/h (1 Bft)
07.12.2018 11:10 8,9 °C 82 % 1015,1 hPa 0,0 mm 0,9 km/h (0 Bft) W-NW 286 ° 0 min 0,000 mm 0,6 UV-I 91 W/m² 6,0 °C 8,9 °C 3,2 km/h (1 Bft)
07.12.2018 11:11 9,0 °C 82 % 1015,1 hPa 0,0 mm 1,1 km/h (1 Bft) W-NW 286 ° 0 min 0,000 mm 0,6 UV-I 86 W/m² 6,1 °C 9,0 °C 3,2 km/h (1 Bft)
07.12.2018 11:12 9,0 °C 81 % 1015,0 hPa 0,0 mm 0,0 km/h (0 Bft) W-NW 286 ° 0 min 0,000 mm 0,6 UV-I 86 W/m² 5,9 °C 9,0 °C 0,0 km/h (0 Bft)
07.12.2018 11:13 9,1 °C 81 % 1015,0 hPa 0,0 mm 1,9 km/h (1 Bft) W-NW 286 ° 0 min 0,000 mm 0,6 UV-I 86 W/m² 6,0 °C 9,1 °C 4,8 km/h (1 Bft)
07.12.2018 11:14 9,1 °C 81 % 1015,0 hPa 0,0 mm 0,9 km/h (0 Bft) W-NW 286 ° 0 min 0,000 mm 0,6 UV-I 84 W/m² 6,0 °C 9,1 °C 3,2 km/h (1 Bft)
07.12.2018 11:15 9,1 °C 81 % 1015,0 hPa 0,0 mm 0,0 km/h (0 Bft) W-NW 286 ° 0 min 0,000 mm 0,6 UV-I 83 W/m² 6,0 °C 9,1 °C 0,0 km/h (0 Bft)
07.12.2018 11:16 9,1 °C 81 % 1014,9 hPa 0,0 mm 0,3 km/h (0 Bft) W-NW 286 ° 0 min 0,000 mm 0,6 UV-I 83 W/m² 6,0 °C 9,1 °C 3,2 km/h (1 Bft)
07.12.2018 11:17 9,2 °C 81 % 1014,9 hPa 0,0 mm 1,0 km/h (0 Bft) W-NW 286 ° 0 min 0,000 mm 0,6 UV-I 83 W/m² 6,1 °C 9,2 °C 3,2 km/h (1 Bft)
07.12.2018 11:18 9,2 °C 81 % 1014,9 hPa 0,0 mm 0,6 km/h (0 Bft) W-NW 286 ° 0 min 0,000 mm 0,6 UV-I 88 W/m² 6,1 °C 9,2 °C 3,2 km/h (1 Bft)
07.12.2018 11:19 9,2 °C 81 % 1014,9 hPa 0,0 mm 0,2 km/h (0 Bft) W-NW 286 ° 0 min 0,000 mm 0,5 UV-I 88 W/m² 6,1 °C 9,2 °C 1,6 km/h (1 Bft)
07.12.2018 11:20 9,2 °C 82 % 1014,8 hPa 0,0 mm 0,0 km/h (0 Bft) W-NW 286 ° 0 min 0,000 mm 0,5 UV-I 88 W/m² 6,3 °C 9,2 °C 0,0 km/h (0 Bft)
07.12.2018 11:21 9,2 °C 82 % 1014,9 hPa 0,0 mm 0,0 km/h (0 Bft) W-NW 286 ° 0 min 0,000 mm 0,5 UV-I 88 W/m² 6,3 °C 9,2 °C 0,0 km/h (0 Bft)
07.12.2018 11:22 9,2 °C 82 % 1014,9 hPa 0,0 mm 1,0 km/h (0 Bft) W-NW 286 ° 0 min 0,000 mm 0,5 UV-I 86 W/m² 6,3 °C 9,2 °C 3,2 km/h (1 Bft)
07.12.2018 11:23 9,3 °C 82 % 1014,9 hPa 0,0 mm 0,0 km/h (0 Bft) W-NW 286 ° 0 min 0,000 mm 0,6 UV-I 84 W/m² 6,4 °C 9,3 °C 0,0 km/h (0 Bft)
07.12.2018 11:24 9,3 °C 82 % 1014,9 hPa 0,0 mm 0,2 km/h (0 Bft) W-NW 286 ° 0 min 0,000 mm 0,6 UV-I 84 W/m² 6,4 °C 9,3 °C 1,6 km/h (1 Bft)
07.12.2018 11:25 9,3 °C 83 % 1014,8 hPa 0,0 mm 2,0 km/h (1 Bft) W-NW 286 ° 0 min 0,000 mm 0,6 UV-I 86 W/m² 6,6 °C 9,3 °C 3,2 km/h (1 Bft)
07.12.2018 11:26 9,3 °C 83 % 1014,8 hPa 0,0 mm 1,6 km/h (1 Bft) W-NW 286 ° 0 min 0,000 mm 0,6 UV-I 90 W/m² 6,6 °C 9,3 °C 3,2 km/h (1 Bft)
07.12.2018 11:27 9,4 °C 83 % 1014,9 hPa 0,0 mm 0,4 km/h (0 Bft) W-NW 286 ° 0 min 0,000 mm 0,6 UV-I 95 W/m² 6,7 °C 9,4 °C 3,2 km/h (1 Bft)
07.12.2018 11:28 9,4 °C 83 % 1014,8 hPa 0,0 mm 0,0 km/h (0 Bft) W-NW 286 ° 0 min 0,000 mm 0,6 UV-I 98 W/m² 6,7 °C 9,4 °C 0,0 km/h (0 Bft)
07.12.2018 11:29 9,4 °C 83 % 1014,8 hPa 0,0 mm 0,0 km/h (0 Bft) W-NW 286 ° 0 min 0,000 mm 0,6 UV-I 104 W/m² 6,7 °C 9,4 °C 0,0 km/h (0 Bft)
07.12.2018 11:30 9,4 °C 83 % 1014,8 hPa 0,0 mm 0,0 km/h (0 Bft) W-NW 286 ° 0 min 0,000 mm 0,7 UV-I 111 W/m² 6,7 °C 9,4 °C 0,0 km/h (0 Bft)
07.12.2018 11:31 9,4 °C 83 % 1014,7 hPa 0,0 mm 1,1 km/h (1 Bft) W-NW 286 ° 0 min 0,000 mm 0,7 UV-I 114 W/m² 6,7 °C 9,4 °C 3,2 km/h (1 Bft)
07.12.2018 11:32 9,4 °C 82 % 1014,8 hPa 0,0 mm 2,1 km/h (1 Bft) W-NW 286 ° 0 min 0,000 mm 0,7 UV-I 116 W/m² 6,5 °C 9,4 °C 4,8 km/h (1 Bft)
07.12.2018 11:33 9,4 °C 82 % 1014,7 hPa 0,0 mm 1,5 km/h (1 Bft) W-NW 286 ° 0 min 0,000 mm 0,7 UV-I 118 W/m² 6,5 °C 9,4 °C 3,2 km/h (1 Bft)
07.12.2018 11:34 9,4 °C 82 % 1014,7 hPa 0,0 mm 1,9 km/h (1 Bft) W-NW 286 ° 0 min 0,000 mm 0,7 UV-I 121 W/m² 6,5 °C 9,4 °C 4,8 km/h (1 Bft)
07.12.2018 11:35 9,4 °C 82 % 1014,7 hPa 0,0 mm 4,8 km/h (1 Bft) S-SW 209 ° 0 min 0,000 mm 0,7 UV-I 127 W/m² 6,5 °C 9,1 °C 6,4 km/h (2 Bft)
07.12.2018 11:36 9,4 °C 82 % 1014,7 hPa 0,0 mm 2,2 km/h (1 Bft) S-SW 209 ° 0 min 0,000 mm 0,7 UV-I 130 W/m² 6,5 °C 9,4 °C 3,2 km/h (1 Bft)
07.12.2018 11:37 9,4 °C 82 % 1014,7 hPa 0,0 mm 0,3 km/h (0 Bft) S-SW 209 ° 0 min 0,000 mm 0,7 UV-I 134 W/m² 6,5 °C 9,4 °C 3,2 km/h (1 Bft)
07.12.2018 11:38 9,4 °C 82 % 1014,7 hPa 0,0 mm 2,4 km/h (1 Bft) W-NW 283 ° 0 min 0,000 mm 0,7 UV-I 135 W/m² 6,5 °C 9,4 °C 4,8 km/h (1 Bft)
07.12.2018 11:39 9,4 °C 83 % 1014,8 hPa 0,0 mm 3,9 km/h (1 Bft) W 281 ° 0 min 0,000 mm 0,7 UV-I 137 W/m² 6,7 °C 9,4 °C 6,4 km/h (2 Bft)
07.12.2018 11:40 9,4 °C 83 % 1014,7 hPa 0,0 mm 4,1 km/h (1 Bft) W 280 ° 0 min 0,000 mm 0,7 UV-I 141 W/m² 6,7 °C 9,4 °C 4,8 km/h (1 Bft)
07.12.2018 11:41 9,4 °C 83 % 1014,7 hPa 0,0 mm 3,7 km/h (1 Bft) W 280 ° 0 min 0,000 mm 0,7 UV-I 148 W/m² 6,7 °C 9,4 °C 6,4 km/h (2 Bft)
07.12.2018 11:42 9,4 °C 83 % 1014,7 hPa 0,0 mm 4,0 km/h (1 Bft) W-NW 285 ° 0 min 0,000 mm 0,8 UV-I 153 W/m² 6,7 °C 9,4 °C 6,4 km/h (2 Bft)
07.12.2018 11:43 9,4 °C 84 % 1014,7 hPa 0,0 mm 4,0 km/h (1 Bft) W-NW 285 ° 0 min 0,000 mm 0,8 UV-I 162 W/m² 6,8 °C 9,4 °C 4,8 km/h (1 Bft)
07.12.2018 11:44 9,4 °C 84 % 1014,7 hPa 0,0 mm 2,0 km/h (1 Bft) W-NW 285 ° 0 min 0,000 mm 0,9 UV-I 172 W/m² 6,8 °C 9,4 °C 4,8 km/h (1 Bft)
07.12.2018 11:45 9,4 °C 84 % 1014,7 hPa 0,0 mm 4,1 km/h (1 Bft) W-NW 302 ° 0 min 0,000 mm 0,9 UV-I 179 W/m² 6,8 °C 9,4 °C 6,4 km/h (2 Bft)
07.12.2018 11:46 9,4 °C 84 % 1014,7 hPa 0,0 mm 2,7 km/h (1 Bft) W-NW 302 ° 0 min 0,000 mm 0,9 UV-I 181 W/m² 6,8 °C 9,4 °C 4,8 km/h (1 Bft)
07.12.2018 11:47 9,4 °C 84 % 1014,7 hPa 0,0 mm 3,7 km/h (1 Bft) W-NW 296 ° 0 min 0,000 mm 0,9 UV-I 178 W/m² 6,8 °C 9,4 °C 4,8 km/h (1 Bft)
07.12.2018 11:48 9,6 °C 83 % 1014,6 hPa 0,0 mm 4,8 km/h (1 Bft) NW 323 ° 0 min 0,000 mm 0,9 UV-I 162 W/m² 6,9 °C 9,4 °C 6,4 km/h (2 Bft)
07.12.2018 11:49 9,6 °C 83 % 1014,6 hPa 0,0 mm 5,0 km/h (1 Bft) W-NW 296 ° 0 min 0,000 mm 0,8 UV-I 155 W/m² 6,9 °C 9,3 °C 8,0 km/h (2 Bft)
07.12.2018 11:50 9,6 °C 82 % 1014,7 hPa 0,0 mm 3,8 km/h (1 Bft) W 280 ° 0 min 0,000 mm 0,8 UV-I 149 W/m² 6,7 °C 9,6 °C 4,8 km/h (1 Bft)
07.12.2018 11:51 9,7 °C 82 % 1014,7 hPa 0,0 mm 3,2 km/h (1 Bft) W 263 ° 0 min 0,000 mm 0,8 UV-I 144 W/m² 6,8 °C 9,7 °C 4,8 km/h (1 Bft)
07.12.2018 11:52 9,7 °C 81 % 1014,6 hPa 0,0 mm 1,1 km/h (1 Bft) W 262 ° 0 min 0,000 mm 0,8 UV-I 139 W/m² 6,6 °C 9,7 °C 3,2 km/h (1 Bft)
07.12.2018 11:53 9,8 °C 80 % 1014,6 hPa 0,0 mm 3,4 km/h (1 Bft) W-NW 288 ° 0 min 0,000 mm 0,8 UV-I 135 W/m² 6,5 °C 9,8 °C 4,8 km/h (1 Bft)
07.12.2018 11:54 9,8 °C 81 % 1014,5 hPa 0,0 mm 2,2 km/h (1 Bft) W-NW 288 ° 0 min 0,000 mm 0,8 UV-I 135 W/m² 6,7 °C 9,8 °C 3,2 km/h (1 Bft)
07.12.2018 11:55 9,9 °C 80 % 1014,5 hPa 0,0 mm 1,6 km/h (1 Bft) W-NW 288 ° 0 min 0,000 mm 0,8 UV-I 135 W/m² 6,6 °C 9,9 °C 4,8 km/h (1 Bft)
07.12.2018 11:56 9,9 °C 80 % 1014,5 hPa 0,0 mm 3,2 km/h (1 Bft) W 279 ° 0 min 0,000 mm 0,9 UV-I 137 W/m² 6,6 °C 9,9 °C 6,4 km/h (2 Bft)
07.12.2018 11:57 9,9 °C 78 % 1014,5 hPa 0,0 mm 0,0 km/h (0 Bft) W 279 ° 0 min 0,000 mm 0,9 UV-I 139 W/m² 6,2 °C 9,9 °C 0,0 km/h (0 Bft)
07.12.2018 11:58 9,9 °C 79 % 1014,5 hPa 0,0 mm 0,7 km/h (0 Bft) W 279 ° 0 min 0,000 mm 0,9 UV-I 141 W/m² 6,4 °C 9,9 °C 3,2 km/h (1 Bft)
07.12.2018 11:59 10,0 °C 79 % 1014,5 hPa 0,0 mm 0,1 km/h (0 Bft) W 279 ° 0 min 0,000 mm 0,9 UV-I 144 W/m² 6,5 °C 10,0 °C 1,6 km/h (1 Bft)
07.12.2018 12:00 10,1 °C 79 % 1014,4 hPa 0,0 mm 3,7 km/h (1 Bft) W 279 ° 0 min 0,000 mm 0,9 UV-I 142 W/m² 6,6 °C 10,1 °C 4,8 km/h (1 Bft)
07.12.2018 12:01 10,1 °C 79 % 1014,4 hPa 0,0 mm 0,6 km/h (0 Bft) W 279 ° 0 min 0,051 mm 0,8 UV-I 141 W/m² 6,6 °C 10,1 °C 1,6 km/h (1 Bft)
07.12.2018 12:02 10,1 °C 79 % 1014,4 hPa 0,0 mm 1,5 km/h (1 Bft) W 279 ° 0 min 0,000 mm 0,8 UV-I 141 W/m² 6,6 °C 10,1 °C 3,2 km/h (1 Bft)
07.12.2018 12:03 10,1 °C 77 % 1014,4 hPa 0,0 mm 2,6 km/h (1 Bft) W 279 ° 0 min 0,000 mm 0,9 UV-I 141 W/m² 6,3 °C 10,1 °C 4,8 km/h (1 Bft)
07.12.2018 12:04 10,1 °C 78 % 1014,3 hPa 0,0 mm 0,9 km/h (0 Bft) W 279 ° 0 min 0,000 mm 0,9 UV-I 144 W/m² 6,4 °C 10,1 °C 3,2 km/h (1 Bft)
07.12.2018 12:05 10,1 °C 78 % 1014,3 hPa 0,0 mm 1,1 km/h (1 Bft) W 279 ° 0 min 0,000 mm 0,9 UV-I 151 W/m² 6,4 °C 10,1 °C 3,2 km/h (1 Bft)
07.12.2018 12:06 10,1 °C 77 % 1014,3 hPa 0,0 mm 1,9 km/h (1 Bft) SW 215 ° 0 min 0,000 mm 0,9 UV-I 155 W/m² 6,3 °C 10,1 °C 4,8 km/h (1 Bft)
07.12.2018 12:07 10,2 °C 77 % 1014,2 hPa 0,0 mm 5,0 km/h (1 Bft) W 268 ° 0 min 0,000 mm 0,9 UV-I 158 W/m² 6,4 °C 10,2 °C 6,4 km/h (2 Bft)
07.12.2018 12:08 10,1 °C 76 % 1014,2 hPa 0,0 mm 3,0 km/h (1 Bft) W 259 ° 0 min 0,000 mm 0,9 UV-I 160 W/m² 6,1 °C 10,1 °C 4,8 km/h (1 Bft)
07.12.2018 12:09 10,1 °C 76 % 1014,2 hPa 0,0 mm 3,6 km/h (1 Bft) W 259 ° 0 min 0,000 mm 0,9 UV-I 160 W/m² 6,1 °C 10,1 °C 6,4 km/h (2 Bft)
07.12.2018 12:10 10,1 °C 76 % 1014,2 hPa 0,0 mm 4,6 km/h (1 Bft) W-NW 283 ° 0 min 0,000 mm 0,9 UV-I 162 W/m² 6,1 °C 10,1 °C 6,4 km/h (2 Bft)
07.12.2018 12:11 10,1 °C 76 % 1014,2 hPa 0,0 mm 2,3 km/h (1 Bft) W-NW 284 ° 0 min 0,000 mm 1,0 UV-I 171 W/m² 6,1 °C 10,1 °C 3,2 km/h (1 Bft)
07.12.2018 12:12 10,1 °C 77 % 1014,1 hPa 0,0 mm 3,4 km/h (1 Bft) W-NW 288 ° 0 min 0,000 mm 1,0 UV-I 179 W/m² 6,3 °C 10,1 °C 6,4 km/h (2 Bft)
07.12.2018 12:13 10,2 °C 78 % 1014,1 hPa 0,0 mm 6,9 km/h (2 Bft) W 263 ° 0 min 0,000 mm 1,0 UV-I 185 W/m² 6,5 °C 10,2 °C 9,7 km/h (2 Bft)
07.12.2018 12:14 10,2 °C 77 % 1014,1 hPa 0,0 mm 4,5 km/h (1 Bft) W-SW 257 ° 0 min 0,000 mm 1,0 UV-I 188 W/m² 6,4 °C 10,2 °C 6,4 km/h (2 Bft)
07.12.2018 12:15 10,3 °C 77 % 1014,0 hPa 0,0 mm 5,3 km/h (1 Bft) W 269 ° 0 min 0,000 mm 1,0 UV-I 188 W/m² 6,4 °C 10,3 °C 9,7 km/h (2 Bft)
07.12.2018 12:16 10,3 °C 76 % 1014,0 hPa 0,0 mm 5,8 km/h (2 Bft) W 280 ° 0 min 0,000 mm 1,0 UV-I 190 W/m² 6,3 °C 10,3 °C 9,7 km/h (2 Bft)
07.12.2018 12:17 10,3 °C 77 % 1014,0 hPa 0,0 mm 1,9 km/h (1 Bft) W 267 ° 0 min 0,000 mm 1,0 UV-I 195 W/m² 6,4 °C 10,3 °C 4,8 km/h (1 Bft)
07.12.2018 12:18 10,3 °C 76 % 1014,0 hPa 0,0 mm 7,1 km/h (2 Bft) NW 307 ° 0 min 0,000 mm 1,1 UV-I 200 W/m² 6,3 °C 10,3 °C 12,9 km/h (3 Bft)
07.12.2018 12:19 10,3 °C 76 % 1014,0 hPa 0,0 mm 3,9 km/h (1 Bft) W 272 ° 0 min 0,000 mm 1,1 UV-I 202 W/m² 6,3 °C 10,3 °C 9,7 km/h (2 Bft)
07.12.2018 12:20 10,4 °C 76 % 1013,9 hPa 0,0 mm 4,0 km/h (1 Bft) SW 231 ° 0 min 0,000 mm 1,1 UV-I 202 W/m² 6,4 °C 10,4 °C 6,4 km/h (2 Bft)
07.12.2018 12:21 10,4 °C 77 % 1013,9 hPa 0,0 mm 14,4 km/h (3 Bft) W-NW 288 ° 0 min 0,000 mm 1,1 UV-I 202 W/m² 6,5 °C 10,4 °C 17,7 km/h (3 Bft)
07.12.2018 12:22 10,4 °C 76 % 1013,9 hPa 0,0 mm 10,1 km/h (2 Bft) NW 313 ° 0 min 0,000 mm 1,1 UV-I 202 W/m² 6,4 °C 10,4 °C 12,9 km/h (3 Bft)
07.12.2018 12:23 10,3 °C 75 % 1013,8 hPa 0,0 mm 8,4 km/h (2 Bft) W-SW 258 ° 0 min 0,000 mm 1,1 UV-I 200 W/m² 6,1 °C 10,3 °C 16,1 km/h (3 Bft)
07.12.2018 12:24 10,4 °C 76 % 1013,7 hPa 0,0 mm 7,0 km/h (2 Bft) W 274 ° 0 min 0,000 mm 1,1 UV-I 199 W/m² 6,4 °C 10,4 °C 14,5 km/h (3 Bft)
07.12.2018 12:25 10,4 °C 76 % 1013,8 hPa 0,0 mm 8,8 km/h (2 Bft) W 271 ° 0 min 0,000 mm 1,1 UV-I 197 W/m² 6,4 °C 10,4 °C 12,9 km/h (3 Bft)
07.12.2018 12:26 10,4 °C 76 % 1013,7 hPa 0,0 mm 9,1 km/h (2 Bft) W 272 ° 0 min 0,000 mm 1,1 UV-I 195 W/m² 6,4 °C 10,4 °C 11,3 km/h (2 Bft)
07.12.2018 12:27 10,4 °C 76 % 1013,7 hPa 0,0 mm 6,1 km/h (2 Bft) W-NW 282 ° 0 min 0,000 mm 1,1 UV-I 193 W/m² 6,4 °C 10,4 °C 6,4 km/h (2 Bft)
07.12.2018 12:28 10,4 °C 77 % 1013,7 hPa 0,0 mm 6,2 km/h (2 Bft) W 269 ° 0 min 0,000 mm 1,1 UV-I 199 W/m² 6,5 °C 10,4 °C 11,3 km/h (2 Bft)
07.12.2018 12:29 10,4 °C 76 % 1013,6 hPa 0,0 mm 4,8 km/h (1 Bft) W-SW 247 ° 0 min 0,000 mm 1,1 UV-I 202 W/m² 6,4 °C 10,4 °C 6,4 km/h (2 Bft)
07.12.2018 12:30 10,4 °C 76 % 1013,6 hPa 0,0 mm 4,3 km/h (1 Bft) W-SW 244 ° 0 min 0,000 mm 1,1 UV-I 206 W/m² 6,4 °C 10,4 °C 6,4 km/h (2 Bft)
07.12.2018 12:31 10,4 °C 76 % 1013,6 hPa 0,0 mm 3,6 km/h (1 Bft) W-SW 254 ° 0 min 0,000 mm 1,1 UV-I 209 W/m² 6,4 °C 10,4 °C 8,0 km/h (2 Bft)
07.12.2018 12:32 10,4 °C 76 % 1013,4 hPa 0,0 mm 6,5 km/h (2 Bft) W 263 ° 0 min 0,000 mm 1,1 UV-I 213 W/m² 6,4 °C 10,4 °C 11,3 km/h (2 Bft)
07.12.2018 12:33 10,4 °C 76 % 1013,4 hPa 0,0 mm 4,2 km/h (1 Bft) W-NW 286 ° 0 min 0,000 mm 1,1 UV-I 211 W/m² 6,4 °C 10,4 °C 6,4 km/h (2 Bft)
07.12.2018 12:34 10,5 °C 76 % 1013,4 hPa 0,0 mm 5,0 km/h (1 Bft) W-NW 295 ° 0 min 0,000 mm 1,1 UV-I 207 W/m² 6,5 °C 10,5 °C 11,3 km/h (2 Bft)
07.12.2018 12:35 10,6 °C 77 % 1013,4 hPa 0,0 mm 6,5 km/h (2 Bft) S 186 ° 0 min 0,000 mm 1,1 UV-I 207 W/m² 6,7 °C 10,6 °C 11,3 km/h (2 Bft)
07.12.2018 12:36 10,6 °C 75 % 1013,4 hPa 0,0 mm 2,7 km/h (1 Bft) SW 236 ° 0 min 0,000 mm 1,1 UV-I 207 W/m² 6,4 °C 10,6 °C 4,8 km/h (1 Bft)
07.12.2018 12:37 10,7 °C 76 % 1013,3 hPa 0,0 mm 7,5 km/h (2 Bft) W 259 ° 0 min 0,000 mm 1,1 UV-I 206 W/m² 6,6 °C 10,7 °C 12,9 km/h (3 Bft)
07.12.2018 12:38 10,7 °C 76 % 1013,3 hPa 0,0 mm 13,5 km/h (3 Bft) W 272 ° 0 min 0,000 mm 1,1 UV-I 200 W/m² 6,6 °C 10,7 °C 16,1 km/h (3 Bft)
07.12.2018 12:39 10,7 °C 75 % 1013,3 hPa 0,0 mm 7,4 km/h (2 Bft) W 276 ° 0 min 0,000 mm 1,1 UV-I 190 W/m² 6,5 °C 10,7 °C 11,3 km/h (2 Bft)
07.12.2018 12:40 10,7 °C 75 % 1013,2 hPa 0,0 mm 3,3 km/h (1 Bft) W 260 ° 0 min 0,000 mm 1,0 UV-I 169 W/m² 6,5 °C 10,7 °C 9,7 km/h (2 Bft)
07.12.2018 12:41 10,7 °C 75 % 1013,2 hPa 0,0 mm 8,8 km/h (2 Bft) W-NW 292 ° 0 min 0,000 mm 1,0 UV-I 160 W/m² 6,5 °C 10,7 °C 14,5 km/h (3 Bft)
07.12.2018 12:42 10,7 °C 75 % 1013,1 hPa 0,0 mm 8,0 km/h (2 Bft) W 276 ° 0 min 0,000 mm 1,0 UV-I 153 W/m² 6,5 °C 10,7 °C 12,9 km/h (3 Bft)
07.12.2018 12:43 10,7 °C 75 % 1013,2 hPa 0,0 mm 7,9 km/h (2 Bft) W 265 ° 0 min 0,000 mm 1,0 UV-I 151 W/m² 6,5 °C 10,7 °C 12,9 km/h (3 Bft)
07.12.2018 12:44 10,7 °C 76 % 1013,1 hPa 0,0 mm 8,0 km/h (2 Bft) W-SW 255 ° 0 min 0,000 mm 1,0 UV-I 149 W/m² 6,6 °C 10,7 °C 11,3 km/h (2 Bft)
07.12.2018 12:45 10,7 °C 75 % 1013,1 hPa 0,0 mm 11,9 km/h (2 Bft) W 260 ° 0 min 0,000 mm 1,0 UV-I 151 W/m² 6,5 °C 10,7 °C 14,5 km/h (3 Bft)
07.12.2018 12:46 10,7 °C 75 % 1013,1 hPa 0,0 mm 12,5 km/h (3 Bft) W-SW 250 ° 0 min 0,000 mm 1,0 UV-I 162 W/m² 6,5 °C 10,7 °C 14,5 km/h (3 Bft)
07.12.2018 12:47 10,7 °C 74 % 1013,1 hPa 0,0 mm 10,0 km/h (2 Bft) W-NW 292 ° 0 min 0,000 mm 1,0 UV-I 169 W/m² 6,3 °C 10,7 °C 14,5 km/h (3 Bft)
07.12.2018 12:48 10,7 °C 74 % 1013,1 hPa 0,0 mm 8,8 km/h (2 Bft) W 273 ° 0 min 0,000 mm 1,0 UV-I 176 W/m² 6,3 °C 10,7 °C 11,3 km/h (2 Bft)
07.12.2018 12:49 10,7 °C 74 % 1013,0 hPa 0,0 mm 4,7 km/h (1 Bft) W-NW 302 ° 0 min 0,000 mm 1,0 UV-I 183 W/m² 6,3 °C 10,7 °C 6,4 km/h (2 Bft)
07.12.2018 12:50 10,7 °C 75 % 1013,0 hPa 0,0 mm 4,6 km/h (1 Bft) W-NW 290 ° 0 min 0,000 mm 1,0 UV-I 188 W/m² 6,5 °C 10,7 °C 8,0 km/h (2 Bft)
07.12.2018 12:51 10,8 °C 75 % 1012,9 hPa 0,0 mm 5,9 km/h (2 Bft) W-NW 292 ° 0 min 0,000 mm 1,0 UV-I 188 W/m² 6,5 °C 10,8 °C 11,3 km/h (2 Bft)
07.12.2018 12:52 10,8 °C 74 % 1013,0 hPa 0,0 mm 5,8 km/h (2 Bft) NW 319 ° 0 min 0,000 mm 1,0 UV-I 181 W/m² 6,4 °C 10,8 °C 8,0 km/h (2 Bft)
07.12.2018 12:53 10,8 °C 74 % 1013,0 hPa 0,0 mm 4,4 km/h (1 Bft) W-SW 256 ° 0 min 0,000 mm 1,0 UV-I 176 W/m² 6,4 °C 10,8 °C 6,4 km/h (2 Bft)
07.12.2018 12:54 10,9 °C 74 % 1012,9 hPa 0,0 mm 3,5 km/h (1 Bft) W 261 ° 0 min 0,000 mm 0,9 UV-I 169 W/m² 6,5 °C 10,9 °C 4,8 km/h (1 Bft)
07.12.2018 12:55 10,9 °C 74 % 1013,0 hPa 0,0 mm 1,0 km/h (0 Bft) W 261 ° 0 min 0,000 mm 0,9 UV-I 162 W/m² 6,5 °C 10,9 °C 3,2 km/h (1 Bft)
07.12.2018 12:56 10,9 °C 75 % 1012,9 hPa 0,0 mm 3,1 km/h (1 Bft) W-SW 256 ° 0 min 0,000 mm 0,9 UV-I 155 W/m² 6,6 °C 10,9 °C 6,4 km/h (2 Bft)
07.12.2018 12:57 10,9 °C 74 % 1012,9 hPa 0,0 mm 0,3 km/h (0 Bft) W-SW 256 ° 0 min 0,000 mm 0,9 UV-I 144 W/m² 6,5 °C 10,9 °C 1,6 km/h (1 Bft)
07.12.2018 12:58 11,0 °C 75 % 1012,9 hPa 0,0 mm 4,6 km/h (1 Bft) W-SW 242 ° 0 min 0,000 mm 0,9 UV-I 139 W/m² 6,7 °C 11,0 °C 6,4 km/h (2 Bft)
07.12.2018 12:59 11,0 °C 73 % 1012,9 hPa 0,0 mm 2,1 km/h (1 Bft) W-SW 242 ° 0 min 0,000 mm 0,8 UV-I 135 W/m² 6,4 °C 11,0 °C 3,2 km/h (1 Bft)
07.12.2018 13:00 11,0 °C 73 % 1012,8 hPa 0,0 mm 1,9 km/h (1 Bft) W-SW 242 ° 0 min 0,000 mm 0,8 UV-I 130 W/m² 6,4 °C 11,0 °C 3,2 km/h (1 Bft)
07.12.2018 13:01 11,0 °C 73 % 1012,8 hPa 0,0 mm 3,2 km/h (1 Bft) W-SW 244 ° 0 min 0,101 mm 0,8 UV-I 125 W/m² 6,4 °C 11,0 °C 4,8 km/h (1 Bft)
07.12.2018 13:02 11,0 °C 73 % 1012,7 hPa 0,0 mm 4,4 km/h (1 Bft) W 276 ° 0 min 0,000 mm 0,8 UV-I 120 W/m² 6,4 °C 11,0 °C 4,8 km/h (1 Bft)
07.12.2018 13:03 10,9 °C 73 % 1012,7 hPa 0,0 mm 1,6 km/h (1 Bft) W 276 ° 0 min 0,000 mm 0,8 UV-I 114 W/m² 6,3 °C 10,9 °C 3,2 km/h (1 Bft)
07.12.2018 13:04 10,9 °C 73 % 1012,7 hPa 0,0 mm 3,2 km/h (1 Bft) W-NW 284 ° 0 min 0,000 mm 0,8 UV-I 114 W/m² 6,3 °C 10,9 °C 4,8 km/h (1 Bft)
07.12.2018 13:05 10,9 °C 74 % 1012,6 hPa 0,0 mm 2,5 km/h (1 Bft) W-NW 298 ° 0 min 0,000 mm 0,8 UV-I 116 W/m² 6,5 °C 10,9 °C 3,2 km/h (1 Bft)
07.12.2018 13:06 10,9 °C 74 % 1012,6 hPa 0,0 mm 1,3 km/h (1 Bft) W-NW 298 ° 0 min 0,000 mm 0,8 UV-I 116 W/m² 6,5 °C 10,9 °C 3,2 km/h (1 Bft)
07.12.2018 13:07 10,9 °C 75 % 1012,6 hPa 0,0 mm 1,9 km/h (1 Bft) W-NW 298 ° 0 min 0,000 mm 0,8 UV-I 116 W/m² 6,6 °C 10,9 °C 4,8 km/h (1 Bft)
07.12.2018 13:08 10,9 °C 73 % 1012,5 hPa 0,0 mm 2,5 km/h (1 Bft) W-NW 298 ° 0 min 0,000 mm 0,8 UV-I 116 W/m² 6,3 °C 10,9 °C 3,2 km/h (1 Bft)
07.12.2018 13:09 10,9 °C 73 % 1012,5 hPa 0,0 mm 1,2 km/h (1 Bft) W-NW 298 ° 0 min 0,000 mm 0,8 UV-I 118 W/m² 6,3 °C 10,9 °C 3,2 km/h (1 Bft)
07.12.2018 13:10 10,9 °C 73 % 1012,5 hPa 0,0 mm 0,0 km/h (0 Bft) W-NW 298 ° 0 min 0,000 mm 0,7 UV-I 120 W/m² 6,3 °C 10,9 °C 0,0 km/h (0 Bft)
07.12.2018 13:11 10,9 °C 75 % 1012,5 hPa 0,0 mm 3,4 km/h (1 Bft) W-NW 283 ° 0 min 0,000 mm 0,7 UV-I 123 W/m² 6,6 °C 10,9 °C 4,8 km/h (1 Bft)
07.12.2018 13:12 10,9 °C 74 % 1012,5 hPa 0,0 mm 3,9 km/h (1 Bft) W-NW 283 ° 0 min 0,000 mm 0,8 UV-I 123 W/m² 6,5 °C 10,9 °C 4,8 km/h (1 Bft)
07.12.2018 13:13 10,9 °C 74 % 1012,4 hPa 0,0 mm 3,4 km/h (1 Bft) W 273 ° 0 min 0,000 mm 0,7 UV-I 125 W/m² 6,5 °C 10,9 °C 6,4 km/h (2 Bft)
07.12.2018 13:14 10,9 °C 74 % 1012,3 hPa 0,0 mm 1,8 km/h (1 Bft) W 273 ° 0 min 0,000 mm 0,7 UV-I 125 W/m² 6,5 °C 10,9 °C 4,8 km/h (1 Bft)
07.12.2018 13:15 10,9 °C 75 % 1012,3 hPa 0,0 mm 3,0 km/h (1 Bft) W 273 ° 0 min 0,000 mm 0,7 UV-I 125 W/m² 6,6 °C 10,9 °C 6,4 km/h (2 Bft)
07.12.2018 13:16 10,9 °C 74 % 1012,3 hPa 0,0 mm 4,3 km/h (1 Bft) W 273 ° 0 min 0,000 mm 0,7 UV-I 123 W/m² 6,5 °C 10,9 °C 6,4 km/h (2 Bft)
07.12.2018 13:17 10,9 °C 73 % 1012,3 hPa 0,0 mm 0,6 km/h (0 Bft) W 273 ° 0 min 0,000 mm 0,7 UV-I 123 W/m² 6,3 °C 10,9 °C 3,2 km/h (1 Bft)
07.12.2018 13:18 10,9 °C 73 % 1012,3 hPa 0,0 mm 1,4 km/h (1 Bft) W 273 ° 0 min 0,000 mm 0,7 UV-I 120 W/m² 6,3 °C 10,9 °C 3,2 km/h (1 Bft)
07.12.2018 13:19 10,9 °C 73 % 1012,2 hPa 0,0 mm 2,0 km/h (1 Bft) W 273 ° 0 min 0,000 mm 0,7 UV-I 118 W/m² 6,3 °C 10,9 °C 4,8 km/h (1 Bft)
07.12.2018 13:20 10,9 °C 73 % 1012,2 hPa 0,0 mm 2,2 km/h (1 Bft) W 273 ° 0 min 0,000 mm 0,7 UV-I 114 W/m² 6,3 °C 10,9 °C 4,8 km/h (1 Bft)
07.12.2018 13:21 11,0 °C 76 % 1012,2 hPa 0,0 mm 1,9 km/h (1 Bft) W 273 ° 0 min 0,000 mm 0,7 UV-I 111 W/m² 6,9 °C 11,0 °C 3,2 km/h (1 Bft)
07.12.2018 13:22 11,0 °C 74 % 1012,2 hPa 0,0 mm 0,5 km/h (0 Bft) W 273 ° 0 min 0,000 mm 0,7 UV-I 105 W/m² 6,5 °C 11,0 °C 1,6 km/h (1 Bft)
07.12.2018 13:23 10,9 °C 73 % 1012,1 hPa 0,0 mm 0,0 km/h (0 Bft) W 273 ° 0 min 0,000 mm 0,6 UV-I 100 W/m² 6,3 °C 10,9 °C 0,0 km/h (0 Bft)
07.12.2018 13:24 10,9 °C 73 % 1012,1 hPa 0,0 mm 0,7 km/h (0 Bft) W 273 ° 0 min 0,000 mm 0,6 UV-I 95 W/m² 6,3 °C 10,9 °C 3,2 km/h (1 Bft)
07.12.2018 13:25 10,9 °C 74 % 1012,1 hPa 0,0 mm 2,2 km/h (1 Bft) W 273 ° 0 min 0,000 mm 0,6 UV-I 91 W/m² 6,5 °C 10,9 °C 3,2 km/h (1 Bft)
07.12.2018 13:26 10,9 °C 74 % 1012,1 hPa 0,0 mm 2,3 km/h (1 Bft) W 273 ° 0 min 0,000 mm 0,6 UV-I 90 W/m² 6,5 °C 10,9 °C 3,2 km/h (1 Bft)
07.12.2018 13:27 10,9 °C 73 % 1012,1 hPa 0,0 mm 2,5 km/h (1 Bft) W 273 ° 0 min 0,000 mm 0,6 UV-I 84 W/m² 6,3 °C 10,9 °C 3,2 km/h (1 Bft)
07.12.2018 13:28 10,9 °C 74 % 1012,1 hPa 0,0 mm 0,0 km/h (0 Bft) W 273 ° 0 min 0,000 mm 0,5 UV-I 83 W/m² 6,5 °C 10,9 °C 0,0 km/h (0 Bft)
07.12.2018 13:29 10,9 °C 74 % 1012,0 hPa 0,0 mm 0,0 km/h (0 Bft) W 273 ° 0 min 0,000 mm 0,5 UV-I 79 W/m² 6,5 °C 10,9 °C 0,0 km/h (0 Bft)
07.12.2018 13:30 10,9 °C 73 % 1011,9 hPa 0,0 mm 0,0 km/h (0 Bft) W 273 ° 0 min 0,000 mm 0,5 UV-I 79 W/m² 6,3 °C 10,9 °C 0,0 km/h (0 Bft)
07.12.2018 13:31 10,9 °C 73 % 1011,8 hPa 0,0 mm 0,0 km/h (0 Bft) W 273 ° 0 min 0,000 mm 0,5 UV-I 77 W/m² 6,3 °C 10,9 °C 0,0 km/h (0 Bft)
07.12.2018 13:32 10,9 °C 73 % 1011,8 hPa 0,0 mm 0,0 km/h (0 Bft) W 273 ° 0 min 0,000 mm 0,5 UV-I 79 W/m² 6,3 °C 10,9 °C 0,0 km/h (0 Bft)
07.12.2018 13:33 10,9 °C 73 % 1011,8 hPa 0,0 mm 0,0 km/h (0 Bft) W 273 ° 0 min 0,000 mm 0,5 UV-I 81 W/m² 6,3 °C 10,9 °C 0,0 km/h (0 Bft)
07.12.2018 13:34 10,9 °C 74 % 1011,7 hPa 0,0 mm 0,0 km/h (0 Bft) W 273 ° 0 min 0,000 mm 0,5 UV-I 81 W/m² 6,5 °C 10,9 °C 0,0 km/h (0 Bft)
07.12.2018 13:35 11,0 °C 74 % 1011,7 hPa 0,0 mm 0,0 km/h (0 Bft) W 273 ° 0 min 0,000 mm 0,5 UV-I 83 W/m² 6,5 °C 11,0 °C 0,0 km/h (0 Bft)
07.12.2018 13:36 11,0 °C 76 % 1011,6 hPa 0,0 mm 0,0 km/h (0 Bft) W 273 ° 0 min 0,000 mm 0,5 UV-I 83 W/m² 6,9 °C 11,0 °C 0,0 km/h (0 Bft)
07.12.2018 13:37 11,0 °C 78 % 1011,6 hPa 0,0 mm 0,0 km/h (0 Bft) W 273 ° 0 min 0,000 mm 0,5 UV-I 84 W/m² 7,3 °C 11,0 °C 0,0 km/h (0 Bft)
07.12.2018 13:38 10,9 °C 77 % 1011,5 hPa 0,0 mm 0,0 km/h (0 Bft) W 273 ° 0 min 0,000 mm 0,6 UV-I 86 W/m² 7,0 °C 10,9 °C 0,0 km/h (0 Bft)
07.12.2018 13:39 10,9 °C 75 % 1011,5 hPa 0,0 mm 0,0 km/h (0 Bft) W 273 ° 0 min 0,000 mm 0,6 UV-I 90 W/m² 6,6 °C 10,9 °C 0,0 km/h (0 Bft)
07.12.2018 13:40 10,9 °C 75 % 1011,4 hPa 0,0 mm 0,0 km/h (0 Bft) W 273 ° 0 min 0,000 mm 0,6 UV-I 91 W/m² 6,6 °C 10,9 °C 0,0 km/h (0 Bft)
07.12.2018 13:41 11,0 °C 75 % 1011,4 hPa 0,0 mm 0,0 km/h (0 Bft) W 273 ° 0 min 0,000 mm 0,6 UV-I 93 W/m² 6,7 °C 11,0 °C 0,0 km/h (0 Bft)
07.12.2018 13:42 10,9 °C 76 % 1011,4 hPa 0,0 mm 0,0 km/h (0 Bft) W 273 ° 0 min 0,000 mm 0,6 UV-I 100 W/m² 6,8 °C 10,9 °C 0,0 km/h (0 Bft)
07.12.2018 13:43 10,9 °C 76 % 1011,3 hPa 0,0 mm 0,0 km/h (0 Bft) W 273 ° 0 min 0,000 mm 0,6 UV-I 104 W/m² 6,8 °C 10,9 °C 0,0 km/h (0 Bft)
07.12.2018 13:44 10,9 °C 75 % 1011,3 hPa 0,0 mm 0,0 km/h (0 Bft) W 273 ° 0 min 0,000 mm 0,6 UV-I 102 W/m² 6,6 °C 10,9 °C 0,0 km/h (0 Bft)
07.12.2018 13:45 10,9 °C 76 % 1011,3 hPa 0,0 mm 0,0 km/h (0 Bft) W 273 ° 0 min 0,000 mm 0,6 UV-I 98 W/m² 6,8 °C 10,9 °C 0,0 km/h (0 Bft)
07.12.2018 13:46 10,9 °C 76 % 1011,2 hPa 0,0 mm 0,0 km/h (0 Bft) W 273 ° 0 min 0,000 mm 0,6 UV-I 93 W/m² 6,8 °C 10,9 °C 0,0 km/h (0 Bft)
07.12.2018 13:47 10,9 °C 75 % 1011,3 hPa 0,0 mm 0,0 km/h (0 Bft) W 273 ° 0 min 0,000 mm 0,6 UV-I 91 W/m² 6,6 °C 10,9 °C 0,0 km/h (0 Bft)
07.12.2018 13:48 10,9 °C 79 % 1011,2 hPa 0,0 mm 0,0 km/h (0 Bft) W 273 ° 0 min 0,000 mm 0,6 UV-I 90 W/m² 7,4 °C 10,9 °C 0,0 km/h (0 Bft)
07.12.2018 13:49 10,9 °C 80 % 1011,2 hPa 0,0 mm 0,0 km/h (0 Bft) W 273 ° 0 min 0,000 mm 0,6 UV-I 90 W/m² 7,6 °C 10,9 °C 0,0 km/h (0 Bft)
07.12.2018 13:50 10,9 °C 78 % 1011,1 hPa 0,0 mm 0,0 km/h (0 Bft) W 273 ° 0 min 0,000 mm 0,6 UV-I 91 W/m² 7,2 °C 10,9 °C 0,0 km/h (0 Bft)
07.12.2018 13:51 10,9 °C 79 % 1011,1 hPa 0,0 mm 0,0 km/h (0 Bft) W 273 ° 0 min 0,000 mm 0,6 UV-I 95 W/m² 7,4 °C 10,9 °C 0,0 km/h (0 Bft)
07.12.2018 13:52 10,9 °C 77 % 1011,1 hPa 0,0 mm 0,0 km/h (0 Bft) W 273 ° 0 min 0,000 mm 0,6 UV-I 97 W/m² 7,0 °C 10,9 °C 0,0 km/h (0 Bft)
07.12.2018 13:53 11,0 °C 77 % 1011,0 hPa 0,0 mm 0,0 km/h (0 Bft) W 273 ° 0 min 0,000 mm 0,6 UV-I 98 W/m² 7,1 °C 11,0 °C 0,0 km/h (0 Bft)
07.12.2018 13:54 11,1 °C 77 % 1011,0 hPa 0,0 mm 0,0 km/h (0 Bft) W 273 ° 0 min 0,000 mm 0,6 UV-I 102 W/m² 7,2 °C 11,1 °C 0,0 km/h (0 Bft)
07.12.2018 13:55 11,1 °C 75 % 1010,9 hPa 0,0 mm 0,0 km/h (0 Bft) W 273 ° 0 min 0,000 mm 0,6 UV-I 104 W/m² 6,8 °C 11,1 °C 0,0 km/h (0 Bft)
07.12.2018 13:56 11,1 °C 76 % 1010,9 hPa 0,0 mm 0,0 km/h (0 Bft) W 273 ° 0 min 0,000 mm 0,6 UV-I 109 W/m² 7,0 °C 11,1 °C 0,0 km/h (0 Bft)
07.12.2018 13:57 11,0 °C 77 % 1010,8 hPa 0,0 mm 0,0 km/h (0 Bft) W 273 ° 0 min 0,000 mm 0,7 UV-I 111 W/m² 7,1 °C 11,0 °C 0,0 km/h (0 Bft)
07.12.2018 13:58 11,0 °C 79 % 1010,9 hPa 0,0 mm 0,0 km/h (0 Bft) W 273 ° 0 min 0,000 mm 0,7 UV-I 113 W/m² 7,5 °C 11,0 °C 0,0 km/h (0 Bft)
07.12.2018 13:59 11,0 °C 79 % 1010,9 hPa 0,0 mm 0,0 km/h (0 Bft) W 273 ° 0 min 0,000 mm 0,7 UV-I 114 W/m² 7,5 °C 11,0 °C 0,0 km/h (0 Bft)
07.12.2018 14:00 11,1 °C 76 % 1010,9 hPa 0,0 mm 0,0 km/h (0 Bft) W 273 ° 0 min 0,000 mm 0,7 UV-I 118 W/m² 7,0 °C 11,1 °C 0,0 km/h (0 Bft)
07.12.2018 14:01 11,1 °C 77 % 1010,8 hPa 0,0 mm 0,0 km/h (0 Bft) W 273 ° 0 min 0,051 mm 0,7 UV-I 123 W/m² 7,2 °C 11,1 °C 0,0 km/h (0 Bft)
07.12.2018 14:02 11,1 °C 76 % 1010,8 hPa 0,0 mm 0,0 km/h (0 Bft) W 273 ° 0 min 0,000 mm 0,7 UV-I 121 W/m² 7,0 °C 11,1 °C 0,0 km/h (0 Bft)
07.12.2018 14:03 11,2 °C 75 % 1010,8 hPa 0,0 mm 0,0 km/h (0 Bft) W 273 ° 0 min 0,000 mm 0,7 UV-I 120 W/m² 6,9 °C 11,2 °C 0,0 km/h (0 Bft)
07.12.2018 14:04 11,2 °C 75 % 1010,8 hPa 0,0 mm 0,0 km/h (0 Bft) W 273 ° 0 min 0,000 mm 0,7 UV-I 113 W/m² 6,9 °C 11,2 °C 0,0 km/h (0 Bft)
07.12.2018 14:05 11,2 °C 76 % 1010,7 hPa 0,0 mm 0,0 km/h (0 Bft) W 273 ° 0 min 0,000 mm 0,7 UV-I 109 W/m² 7,1 °C 11,2 °C 0,0 km/h (0 Bft)
07.12.2018 14:06 11,2 °C 74 % 1010,7 hPa 0,0 mm 0,0 km/h (0 Bft) W 273 ° 0 min 0,000 mm 0,7 UV-I 104 W/m² 6,7 °C 11,2 °C 0,0 km/h (0 Bft)
07.12.2018 14:07 11,2 °C 74 % 1010,7 hPa 0,0 mm 0,0 km/h (0 Bft) W 273 ° 0 min 0,000 mm 0,7 UV-I 100 W/m² 6,7 °C 11,2 °C 0,0 km/h (0 Bft)
07.12.2018 14:08 11,2 °C 74 % 1010,7 hPa 0,0 mm 0,0 km/h (0 Bft) W 273 ° 0 min 0,000 mm 0,7 UV-I 98 W/m² 6,7 °C 11,2 °C 0,0 km/h (0 Bft)
07.12.2018 14:09 11,2 °C 75 % 1010,7 hPa 0,0 mm 0,0 km/h (0 Bft) W 273 ° 0 min 0,000 mm 0,7 UV-I 100 W/m² 6,9 °C 11,2 °C 0,0 km/h (0 Bft)
07.12.2018 14:10 11,2 °C 75 % 1010,7 hPa 0,0 mm 0,0 km/h (0 Bft) W 273 ° 0 min 0,000 mm 0,7 UV-I 98 W/m² 6,9 °C 11,2 °C 0,0 km/h (0 Bft)
07.12.2018 14:11 11,2 °C 74 % 1010,7 hPa 0,0 mm 0,0 km/h (0 Bft) W 273 ° 0 min 0,000 mm 0,7 UV-I 97 W/m² 6,7 °C 11,2 °C 0,0 km/h (0 Bft)
07.12.2018 14:12 11,2 °C 76 % 1010,6 hPa 0,0 mm 0,0 km/h (0 Bft) W 273 ° 0 min 0,000 mm 0,7 UV-I 97 W/m² 7,1 °C 11,2 °C 0,0 km/h (0 Bft)
07.12.2018 14:13 11,2 °C 76 % 1010,6 hPa 0,0 mm 0,0 km/h (0 Bft) W 273 ° 0 min 0,000 mm 0,7 UV-I 93 W/m² 7,1 °C 11,2 °C 0,0 km/h (0 Bft)
07.12.2018 14:14 11,1 °C 73 % 1010,6 hPa 0,0 mm 0,0 km/h (0 Bft) W 273 ° 0 min 0,000 mm 0,7 UV-I 90 W/m² 6,4 °C 11,1 °C 0,0 km/h (0 Bft)
07.12.2018 14:15 11,2 °C 73 % 1010,6 hPa 0,0 mm 0,0 km/h (0 Bft) W 273 ° 0 min 0,000 mm 0,7 UV-I 84 W/m² 6,5 °C 11,2 °C 0,0 km/h (0 Bft)
07.12.2018 14:16 11,2 °C 72 % 1010,6 hPa 0,0 mm 0,0 km/h (0 Bft) W 273 ° 0 min 0,000 mm 0,7 UV-I 74 W/m² 6,3 °C 11,2 °C 0,0 km/h (0 Bft)
07.12.2018 14:17 11,1 °C 72 % 1010,5 hPa 0,0 mm 0,0 km/h (0 Bft) W 273 ° 0 min 0,000 mm 0,7 UV-I 63 W/m² 6,2 °C 11,1 °C 0,0 km/h (0 Bft)
07.12.2018 14:18 11,1 °C 72 % 1010,5 hPa 0,0 mm 0,0 km/h (0 Bft) W 273 ° 0 min 0,000 mm 0,0 UV-I 54 W/m² 6,2 °C 11,1 °C 0,0 km/h (0 Bft)
07.12.2018 14:19 11,1 °C 72 % 1010,4 hPa 0,0 mm 0,0 km/h (0 Bft) W 273 ° 0 min 0,000 mm 0,0 UV-I 49 W/m² 6,2 °C 11,1 °C 0,0 km/h (0 Bft)
07.12.2018 14:20 11,1 °C 73 % 1010,5 hPa 0,0 mm 0,0 km/h (0 Bft) W 273 ° 0 min 0,000 mm 0,0 UV-I 44 W/m² 6,4 °C 11,1 °C 0,0 km/h (0 Bft)
07.12.2018 14:21 11,1 °C 74 % 1010,4 hPa 0,0 mm 0,0 km/h (0 Bft) W 273 ° 0 min 0,000 mm 0,0 UV-I 47 W/m² 6,6 °C 11,1 °C 0,0 km/h (0 Bft)
07.12.2018 14:22 10,9 °C 74 % 1010,4 hPa 0,0 mm 0,0 km/h (0 Bft) W 273 ° 0 min 0,000 mm 0,0 UV-I 49 W/m² 6,5 °C 10,9 °C 0,0 km/h (0 Bft)
07.12.2018 14:23 10,8 °C 76 % 1010,4 hPa 0,0 mm 0,0 km/h (0 Bft) W 273 ° 0 min 0,000 mm 0,0 UV-I 49 W/m² 6,7 °C 10,8 °C 0,0 km/h (0 Bft)
07.12.2018 14:24 10,8 °C 76 % 1010,4 hPa 0,0 mm 0,0 km/h (0 Bft) W 273 ° 0 min 0,000 mm 0,0 UV-I 49 W/m² 6,7 °C 10,8 °C 0,0 km/h (0 Bft)
07.12.2018 14:25 10,7 °C 76 % 1010,4 hPa 0,0 mm 0,0 km/h (0 Bft) W 273 ° 0 min 0,000 mm 0,0 UV-I 58 W/m² 6,6 °C 10,7 °C 0,0 km/h (0 Bft)
07.12.2018 14:26 10,7 °C 76 % 1010,4 hPa 0,0 mm 0,0 km/h (0 Bft) W 273 ° 0 min 0,000 mm 0,6 UV-I 65 W/m² 6,6 °C 10,7 °C 0,0 km/h (0 Bft)
07.12.2018 14:27 10,6 °C 76 % 1010,4 hPa 0,0 mm 0,0 km/h (0 Bft) W 273 ° 0 min 0,000 mm 0,6 UV-I 70 W/m² 6,5 °C 10,6 °C 0,0 km/h (0 Bft)
07.12.2018 14:28 10,6 °C 76 % 1010,4 hPa 0,0 mm 0,0 km/h (0 Bft) W 273 ° 0 min 0,000 mm 0,6 UV-I 76 W/m² 6,5 °C 10,6 °C 0,0 km/h (0 Bft)
07.12.2018 14:29 10,6 °C 76 % 1010,4 hPa 0,0 mm 0,0 km/h (0 Bft) W 273 ° 0 min 0,000 mm 0,6 UV-I 77 W/m² 6,5 °C 10,6 °C 0,0 km/h (0 Bft)
07.12.2018 14:30 10,6 °C 76 % 1010,3 hPa 0,0 mm 0,0 km/h (0 Bft) W 273 ° 0 min 0,000 mm 0,6 UV-I 79 W/m² 6,5 °C 10,6 °C 0,0 km/h (0 Bft)
07.12.2018 14:31 10,6 °C 76 % 1010,3 hPa 0,0 mm 0,0 km/h (0 Bft) W 273 ° 0 min 0,000 mm 0,5 UV-I 79 W/m² 6,5 °C 10,6 °C 0,0 km/h (0 Bft)
07.12.2018 14:32 10,6 °C 76 % 1010,2 hPa 0,0 mm 0,0 km/h (0 Bft) W 273 ° 0 min 0,000 mm 0,5 UV-I 81 W/m² 6,5 °C 10,6 °C 0,0 km/h (0 Bft)
07.12.2018 14:33 10,7 °C 76 % 1010,2 hPa 0,0 mm 0,0 km/h (0 Bft) W 273 ° 0 min 0,000 mm 0,5 UV-I 84 W/m² 6,6 °C 10,7 °C 0,0 km/h (0 Bft)
07.12.2018 14:34 10,6 °C 76 % 1010,2 hPa 0,0 mm 0,0 km/h (0 Bft) W 273 ° 0 min 0,000 mm 0,5 UV-I 86 W/m² 6,5 °C 10,6 °C 0,0 km/h (0 Bft)
07.12.2018 14:35 10,7 °C 76 % 1010,2 hPa 0,0 mm 0,0 km/h (0 Bft) W 273 ° 0 min 0,000 mm 0,5 UV-I 86 W/m² 6,6 °C 10,7 °C 0,0 km/h (0 Bft)
07.12.2018 14:36 10,7 °C 76 % 1010,2 hPa 0,0 mm 0,0 km/h (0 Bft) W 273 ° 0 min 0,000 mm 0,5 UV-I 84 W/m² 6,6 °C 10,7 °C 0,0 km/h (0 Bft)
07.12.2018 14:37 10,7 °C 76 % 1010,1 hPa 0,0 mm 0,0 km/h (0 Bft) W 273 ° 0 min 0,000 mm 0,5 UV-I 81 W/m² 6,6 °C 10,7 °C 0,0 km/h (0 Bft)
07.12.2018 14:38 10,8 °C 75 % 1010,1 hPa 0,0 mm 0,0 km/h (0 Bft) W 273 ° 0 min 0,000 mm 0,5 UV-I 77 W/m² 6,5 °C 10,8 °C 0,0 km/h (0 Bft)
07.12.2018 14:39 10,8 °C 75 % 1010,1 hPa 0,0 mm 0,0 km/h (0 Bft) W 273 ° 0 min 0,000 mm 0,5 UV-I 74 W/m² 6,5 °C 10,8 °C 0,0 km/h (0 Bft)
07.12.2018 14:40 10,8 °C 75 % 1010,1 hPa 0,0 mm 0,0 km/h (0 Bft) W 273 ° 0 min 0,000 mm 0,5 UV-I 70 W/m² 6,5 °C 10,8 °C 0,0 km/h (0 Bft)
07.12.2018 14:41 10,8 °C 75 % 1010,1 hPa 0,0 mm 0,0 km/h (0 Bft) W 273 ° 0 min 0,000 mm 0,5 UV-I 70 W/m² 6,5 °C 10,8 °C 0,0 km/h (0 Bft)
07.12.2018 14:42 10,8 °C 75 % 1010,1 hPa 0,0 mm 0,0 km/h (0 Bft) W 273 ° 0 min 0,000 mm 0,5 UV-I 70 W/m² 6,5 °C 10,8 °C 0,0 km/h (0 Bft)
07.12.2018 14:43 10,9 °C 75 % 1010,1 hPa 0,0 mm 0,0 km/h (0 Bft) W 273 ° 0 min 0,000 mm 0,5 UV-I 72 W/m² 6,6 °C 10,9 °C 0,0 km/h (0 Bft)
07.12.2018 14:44 10,9 °C 76 % 1010,1 hPa 0,0 mm 0,0 km/h (0 Bft) W 273 ° 0 min 0,000 mm 0,5 UV-I 74 W/m² 6,8 °C 10,9 °C 0,0 km/h (0 Bft)
07.12.2018 14:45 10,9 °C 77 % 1010,1 hPa 0,0 mm 0,0 km/h (0 Bft) W 273 ° 0 min 0,000 mm 0,5 UV-I 72 W/m² 7,0 °C 10,9 °C 0,0 km/h (0 Bft)
07.12.2018 14:46 10,8 °C 76 % 1010,1 hPa 0,0 mm 0,0 km/h (0 Bft) W 273 ° 0 min 0,000 mm 0,5 UV-I 70 W/m² 6,7 °C 10,8 °C 0,0 km/h (0 Bft)
07.12.2018 14:47 10,9 °C 76 % 1010,0 hPa 0,0 mm 0,0 km/h (0 Bft) W 273 ° 0 min 0,000 mm 0,5 UV-I 65 W/m² 6,8 °C 10,9 °C 0,0 km/h (0 Bft)
07.12.2018 14:48 10,9 °C 76 % 1010,1 hPa 0,0 mm 0,0 km/h (0 Bft) W 273 ° 0 min 0,000 mm 0,5 UV-I 62 W/m² 6,8 °C 10,9 °C 0,0 km/h (0 Bft)
07.12.2018 14:49 10,9 °C 76 % 1010,1 hPa 0,0 mm 0,0 km/h (0 Bft) W 273 ° 0 min 0,000 mm 0,5 UV-I 62 W/m² 6,8 °C 10,9 °C 0,0 km/h (0 Bft)
07.12.2018 14:50 10,9 °C 76 % 1010,1 hPa 0,0 mm 0,0 km/h (0 Bft) W 273 ° 0 min 0,000 mm 0,5 UV-I 62 W/m² 6,8 °C 10,9 °C 0,0 km/h (0 Bft)
07.12.2018 14:51 10,9 °C 76 % 1010,1 hPa 0,0 mm 0,0 km/h (0 Bft) W 273 ° 0 min 0,000 mm 0,5 UV-I 62 W/m² 6,8 °C 10,9 °C 0,0 km/h (0 Bft)
07.12.2018 14:52 10,9 °C 77 % 1010,1 hPa 0,0 mm 0,0 km/h (0 Bft) W 273 ° 0 min 0,000 mm 0,5 UV-I 60 W/m² 7,0 °C 10,9 °C 0,0 km/h (0 Bft)
07.12.2018 14:53 10,9 °C 78 % 1010,1 hPa 0,0 mm 0,0 km/h (0 Bft) W 273 ° 0 min 0,000 mm 0,5 UV-I 56 W/m² 7,2 °C 10,9 °C 0,0 km/h (0 Bft)
07.12.2018 14:54 10,9 °C 78 % 1010,0 hPa 0,0 mm 0,0 km/h (0 Bft) W 273 ° 0 min 0,000 mm 0,0 UV-I 53 W/m² 7,2 °C 10,9 °C 0,0 km/h (0 Bft)
07.12.2018 14:55 10,9 °C 78 % 1010,0 hPa 0,0 mm 0,0 km/h (0 Bft) W 273 ° 0 min 0,000 mm 0,0 UV-I 49 W/m² 7,2 °C 10,9 °C 0,0 km/h (0 Bft)
07.12.2018 14:56 10,9 °C 78 % 1010,0 hPa 0,0 mm 0,0 km/h (0 Bft) W 273 ° 0 min 0,000 mm 0,0 UV-I 51 W/m² 7,2 °C 10,9 °C 0,0 km/h (0 Bft)
07.12.2018 14:57 10,9 °C 77 % 1009,9 hPa 0,0 mm 0,0 km/h (0 Bft) W 273 ° 0 min 0,000 mm 0,0 UV-I 53 W/m² 7,0 °C 10,9 °C 0,0 km/h (0 Bft)
07.12.2018 14:58 10,8 °C 77 % 1009,9 hPa 0,0 mm 0,0 km/h (0 Bft) W 273 ° 0 min 0,000 mm 0,0 UV-I 53 W/m² 6,9 °C 10,8 °C 0,0 km/h (0 Bft)
07.12.2018 14:59 10,8 °C 77 % 1009,9 hPa 0,0 mm 0,0 km/h (0 Bft) W 273 ° 0 min 0,000 mm 0,0 UV-I 51 W/m² 6,9 °C 10,8 °C 0,0 km/h (0 Bft)
07.12.2018 15:00 10,8 °C 77 % 1009,9 hPa 0,0 mm 0,0 km/h (0 Bft) W 273 ° 0 min 0,000 mm 0,0 UV-I 49 W/m² 6,9 °C 10,8 °C 0,0 km/h (0 Bft)
07.12.2018 15:01 10,8 °C 78 % 1009,8 hPa 0,0 mm 0,0 km/h (0 Bft) W 273 ° 0 min 0,051 mm 0,0 UV-I 47 W/m² 7,1 °C 10,8 °C 0,0 km/h (0 Bft)
07.12.2018 15:02 10,8 °C 78 % 1009,9 hPa 0,0 mm 0,0 km/h (0 Bft) W 273 ° 0 min 0,000 mm 0,0 UV-I 47 W/m² 7,1 °C 10,8 °C 0,0 km/h (0 Bft)
07.12.2018 15:03 10,8 °C 78 % 1009,9 hPa 0,0 mm 0,0 km/h (0 Bft) W 273 ° 0 min 0,000 mm 0,0 UV-I 47 W/m² 7,1 °C 10,8 °C 0,0 km/h (0 Bft)
07.12.2018 15:04 10,8 °C 79 % 1009,9 hPa 0,0 mm 0,0 km/h (0 Bft) W 273 ° 0 min 0,000 mm 0,0 UV-I 47 W/m² 7,3 °C 10,8 °C 0,0 km/h (0 Bft)
07.12.2018 15:05 10,7 °C 79 % 1010,0 hPa 0,0 mm 0,0 km/h (0 Bft) W 273 ° 0 min 0,000 mm 0,0 UV-I 47 W/m² 7,2 °C 10,7 °C 0,0 km/h (0 Bft)
07.12.2018 15:06 10,7 °C 79 % 1010,0 hPa 0,0 mm 0,0 km/h (0 Bft) W 273 ° 0 min 0,000 mm 0,0 UV-I 47 W/m² 7,2 °C 10,7 °C 0,0 km/h (0 Bft)
07.12.2018 15:07 10,7 °C 79 % 1010,0 hPa 0,0 mm 0,0 km/h (0 Bft) W 273 ° 0 min 0,000 mm 0,0 UV-I 46 W/m² 7,2 °C 10,7 °C 0,0 km/h (0 Bft)
07.12.2018 15:08 10,7 °C 79 % 1010,0 hPa 0,0 mm 0,0 km/h (0 Bft) W 273 ° 0 min 0,000 mm 0,0 UV-I 46 W/m² 7,2 °C 10,7 °C 0,0 km/h (0 Bft)
07.12.2018 15:09 10,6 °C 80 % 1010,0 hPa 0,0 mm 0,0 km/h (0 Bft) W 273 ° 0 min 0,000 mm 0,0 UV-I 47 W/m² 7,3 °C 10,6 °C 0,0 km/h (0 Bft)
07.12.2018 15:10 10,7 °C 80 % 1009,9 hPa 0,0 mm 0,3 km/h (0 Bft) W 273 ° 0 min 0,000 mm 0,0 UV-I 53 W/m² 7,4 °C 10,7 °C 1,6 km/h (1 Bft)
07.12.2018 15:11 10,6 °C 79 % 1010,0 hPa 0,0 mm 2,1 km/h (1 Bft) W 273 ° 0 min 0,000 mm 0,0 UV-I 58 W/m² 7,1 °C 10,6 °C 3,2 km/h (1 Bft)
07.12.2018 15:12 10,6 °C 79 % 1010,1 hPa 0,0 mm 1,5 km/h (1 Bft) W 273 ° 0 min 0,000 mm 0,0 UV-I 63 W/m² 7,1 °C 10,6 °C 3,2 km/h (1 Bft)
07.12.2018 15:13 10,6 °C 79 % 1010,1 hPa 0,0 mm 3,9 km/h (1 Bft) W 273 ° 0 min 0,000 mm 0,0 UV-I 62 W/m² 7,1 °C 10,6 °C 4,8 km/h (1 Bft)
07.12.2018 15:14 10,6 °C 79 % 1010,2 hPa 0,0 mm 3,6 km/h (1 Bft) W 273 ° 0 min 0,000 mm 0,0 UV-I 58 W/m² 7,1 °C 10,6 °C 4,8 km/h (1 Bft)
07.12.2018 15:15 10,6 °C 80 % 1010,2 hPa 0,0 mm 4,2 km/h (1 Bft) W 271 ° 0 min 0,000 mm 0,0 UV-I 54 W/m² 7,3 °C 10,6 °C 4,8 km/h (1 Bft)
07.12.2018 15:16 10,6 °C 80 % 1010,3 hPa 0,0 mm 4,2 km/h (1 Bft) W-NW 296 ° 0 min 0,000 mm 0,0 UV-I 51 W/m² 7,3 °C 10,6 °C 6,4 km/h (2 Bft)
07.12.2018 15:17 10,6 °C 80 % 1010,2 hPa 0,0 mm 4,3 km/h (1 Bft) W-NW 302 ° 0 min 0,000 mm 0,0 UV-I 47 W/m² 7,3 °C 10,6 °C 6,4 km/h (2 Bft)
07.12.2018 15:18 10,6 °C 80 % 1010,2 hPa 0,0 mm 4,0 km/h (1 Bft) W-NW 292 ° 0 min 0,000 mm 0,0 UV-I 47 W/m² 7,3 °C 10,6 °C 4,8 km/h (1 Bft)
07.12.2018 15:19 10,6 °C 80 % 1010,3 hPa 0,0 mm 4,9 km/h (1 Bft) W 266 ° 0 min 0,000 mm 0,0 UV-I 47 W/m² 7,3 °C 10,6 °C 6,4 km/h (2 Bft)
07.12.2018 15:20 10,6 °C 80 % 1010,2 hPa 0,0 mm 3,5 km/h (1 Bft) W 266 ° 0 min 0,000 mm 0,0 UV-I 47 W/m² 7,3 °C 10,6 °C 4,8 km/h (1 Bft)
07.12.2018 15:21 10,6 °C 80 % 1010,2 hPa 0,0 mm 3,8 km/h (1 Bft) W 266 ° 0 min 0,000 mm 0,0 UV-I 46 W/m² 7,3 °C 10,6 °C 6,4 km/h (2 Bft)
07.12.2018 15:22 10,6 °C 80 % 1010,2 hPa 0,0 mm 3,7 km/h (1 Bft) W 266 ° 0 min 0,000 mm 0,0 UV-I 46 W/m² 7,3 °C 10,6 °C 4,8 km/h (1 Bft)
07.12.2018 15:23 10,6 °C 79 % 1010,2 hPa 0,0 mm 2,8 km/h (1 Bft) W-NW 289 ° 0 min 0,000 mm 0,0 UV-I 40 W/m² 7,1 °C 10,6 °C 4,8 km/h (1 Bft)
07.12.2018 15:24 10,6 °C 79 % 1010,2 hPa 0,0 mm 2,9 km/h (1 Bft) W-NW 289 ° 0 min 0,000 mm 0,0 UV-I 39 W/m² 7,1 °C 10,6 °C 3,2 km/h (1 Bft)
07.12.2018 15:25 10,6 °C 79 % 1010,2 hPa 0,0 mm 2,6 km/h (1 Bft) W-NW 289 ° 0 min 0,000 mm 0,0 UV-I 37 W/m² 7,1 °C 10,6 °C 4,8 km/h (1 Bft)
07.12.2018 15:26 10,6 °C 79 % 1010,2 hPa 0,0 mm 1,7 km/h (1 Bft) W-NW 289 ° 0 min 0,000 mm 0,0 UV-I 35 W/m² 7,1 °C 10,6 °C 3,2 km/h (1 Bft)
07.12.2018 15:27 10,6 °C 79 % 1010,1 hPa 0,0 mm 1,9 km/h (1 Bft) W-NW 289 ° 0 min 0,000 mm 0,0 UV-I 32 W/m² 7,1 °C 10,6 °C 4,8 km/h (1 Bft)
07.12.2018 15:28 10,6 °C 80 % 1010,1 hPa 0,0 mm 0,7 km/h (0 Bft) W-NW 289 ° 0 min 0,000 mm 0,0 UV-I 26 W/m² 7,3 °C 10,6 °C 3,2 km/h (1 Bft)
07.12.2018 15:29 10,6 °C 79 % 1010,1 hPa 0,0 mm 0,8 km/h (0 Bft) W-NW 289 ° 0 min 0,000 mm 0,0 UV-I 21 W/m² 7,1 °C 10,6 °C 3,2 km/h (1 Bft)
07.12.2018 15:30 10,6 °C 79 % 1010,1 hPa 0,0 mm 3,3 km/h (1 Bft) W-NW 289 ° 0 min 0,000 mm 0,0 UV-I 12 W/m² 7,1 °C 10,6 °C 4,8 km/h (1 Bft)
07.12.2018 15:31 10,6 °C 79 % 1010,1 hPa 0,0 mm 3,8 km/h (1 Bft) W-NW 289 ° 0 min 0,000 mm 0,0 UV-I 11 W/m² 7,1 °C 10,6 °C 4,8 km/h (1 Bft)
07.12.2018 15:32 10,6 °C 79 % 1010,1 hPa 0,0 mm 0,9 km/h (0 Bft) W-NW 289 ° 0 min 0,000 mm 0,0 UV-I 9 W/m² 7,1 °C 10,6 °C 3,2 km/h (1 Bft)
07.12.2018 15:33 10,6 °C 79 % 1010,1 hPa 0,0 mm 1,0 km/h (0 Bft) W-NW 289 ° 0 min 0,000 mm 0,0 UV-I 9 W/m² 7,1 °C 10,6 °C 3,2 km/h (1 Bft)
07.12.2018 15:34 10,6 °C 78 % 1010,1 hPa 0,0 mm 0,6 km/h (0 Bft) W-NW 289 ° 0 min 0,000 mm 0,0 UV-I 9 W/m² 6,9 °C 10,6 °C 1,6 km/h (1 Bft)
07.12.2018 15:35 10,6 °C 78 % 1010,0 hPa 0,0 mm 0,0 km/h (0 Bft) W-NW 289 ° 0 min 0,000 mm 0,0 UV-I 9 W/m² 6,9 °C 10,6 °C 0,0 km/h (0 Bft)
07.12.2018 15:36 10,6 °C 78 % 1010,1 hPa 0,0 mm 0,8 km/h (0 Bft) W-NW 289 ° 0 min 0,000 mm 0,0 UV-I 11 W/m² 6,9 °C 10,6 °C 3,2 km/h (1 Bft)
07.12.2018 15:37 10,6 °C 78 % 1010,1 hPa 0,0 mm 4,6 km/h (1 Bft) W-SW 254 ° 0 min 0,000 mm 0,0 UV-I 11 W/m² 6,9 °C 10,6 °C 8,0 km/h (2 Bft)
07.12.2018 15:38 10,6 °C 78 % 1010,1 hPa 0,0 mm 3,2 km/h (1 Bft) W-SW 254 ° 0 min 0,000 mm 0,0 UV-I 12 W/m² 6,9 °C 10,6 °C 4,8 km/h (1 Bft)
07.12.2018 15:39 10,6 °C 78 % 1010,1 hPa 0,0 mm 1,7 km/h (1 Bft) W-SW 254 ° 0 min 0,000 mm 0,0 UV-I 12 W/m² 6,9 °C 10,6 °C 3,2 km/h (1 Bft)
07.12.2018 15:40 10,6 °C 78 % 1010,0 hPa 0,0 mm 2,1 km/h (1 Bft) NW 309 ° 0 min 0,000 mm 0,0 UV-I 14 W/m² 6,9 °C 10,6 °C 4,8 km/h (1 Bft)
07.12.2018 15:41 10,6 °C 78 % 1009,9 hPa 0,0 mm 1,3 km/h (1 Bft) NW 309 ° 0 min 0,000 mm 0,0 UV-I 14 W/m² 6,9 °C 10,6 °C 4,8 km/h (1 Bft)
07.12.2018 15:42 10,6 °C 77 % 1009,9 hPa 0,0 mm 1,6 km/h (1 Bft) NW 309 ° 0 min 0,000 mm 0,0 UV-I 12 W/m² 6,7 °C 10,6 °C 3,2 km/h (1 Bft)
07.12.2018 15:43 10,6 °C 77 % 1009,9 hPa 0,0 mm 3,7 km/h (1 Bft) W-NW 288 ° 0 min 0,000 mm 0,0 UV-I 12 W/m² 6,7 °C 10,6 °C 6,4 km/h (2 Bft)
07.12.2018 15:44 10,6 °C 77 % 1009,9 hPa 0,0 mm 5,5 km/h (1 Bft) W-NW 290 ° 0 min 0,000 mm 0,0 UV-I 12 W/m² 6,7 °C 10,6 °C 8,0 km/h (2 Bft)
07.12.2018 15:45 10,5 °C 76 % 1009,9 hPa 0,0 mm 5,9 km/h (2 Bft) W 277 ° 0 min 0,000 mm 0,0 UV-I 12 W/m² 6,5 °C 10,5 °C 11,3 km/h (2 Bft)
07.12.2018 15:46 10,6 °C 76 % 1009,8 hPa 0,0 mm 2,7 km/h (1 Bft) W 277 ° 0 min 0,000 mm 0,0 UV-I 12 W/m² 6,5 °C 10,6 °C 3,2 km/h (1 Bft)
07.12.2018 15:47 10,6 °C 76 % 1009,8 hPa 0,0 mm 2,7 km/h (1 Bft) NW 321 ° 0 min 0,000 mm 0,0 UV-I 12 W/m² 6,5 °C 10,6 °C 8,0 km/h (2 Bft)
07.12.2018 15:48 10,6 °C 76 % 1009,8 hPa 0,0 mm 4,6 km/h (1 Bft) W-NW 283 ° 0 min 0,000 mm 0,0 UV-I 14 W/m² 6,5 °C 10,6 °C 12,9 km/h (3 Bft)
07.12.2018 15:49 10,6 °C 76 % 1009,8 hPa 0,0 mm 9,6 km/h (2 Bft) W-NW 290 ° 0 min 0,000 mm 0,0 UV-I 16 W/m² 6,5 °C 10,6 °C 14,5 km/h (3 Bft)
07.12.2018 15:50 10,5 °C 76 % 1009,9 hPa 0,0 mm 5,8 km/h (2 Bft) W-NW 296 ° 0 min 0,000 mm 0,0 UV-I 16 W/m² 6,5 °C 10,5 °C 9,7 km/h (2 Bft)
07.12.2018 15:51 10,6 °C 76 % 1009,9 hPa 0,0 mm 4,6 km/h (1 Bft) W 263 ° 0 min 0,000 mm 0,0 UV-I 18 W/m² 6,5 °C 10,6 °C 6,4 km/h (2 Bft)
07.12.2018 15:52 10,6 °C 76 % 1009,9 hPa 0,0 mm 9,5 km/h (2 Bft) W 263 ° 0 min 0,000 mm 0,0 UV-I 19 W/m² 6,5 °C 10,6 °C 12,9 km/h (3 Bft)
07.12.2018 15:53 10,5 °C 76 % 1009,9 hPa 0,0 mm 8,4 km/h (2 Bft) W-NW 295 ° 0 min 0,000 mm 0,0 UV-I 19 W/m² 6,5 °C 10,5 °C 14,5 km/h (3 Bft)
07.12.2018 15:54 10,6 °C 75 % 1009,9 hPa 0,0 mm 7,1 km/h (2 Bft) W-SW 246 ° 0 min 0,000 mm 0,0 UV-I 19 W/m² 6,4 °C 10,6 °C 11,3 km/h (2 Bft)
07.12.2018 15:55 10,5 °C 75 % 1009,8 hPa 0,0 mm 5,0 km/h (1 Bft) W-NW 300 ° 0 min 0,000 mm 0,0 UV-I 19 W/m² 6,3 °C 10,5 °C 6,4 km/h (2 Bft)
07.12.2018 15:56 10,6 °C 75 % 1009,8 hPa 0,0 mm 2,1 km/h (1 Bft) W-NW 300 ° 0 min 0,000 mm 0,0 UV-I 21 W/m² 6,4 °C 10,6 °C 3,2 km/h (1 Bft)
07.12.2018 15:57 10,6 °C 75 % 1009,8 hPa 0,0 mm 3,4 km/h (1 Bft) W 281 ° 0 min 0,000 mm 0,0 UV-I 21 W/m² 6,4 °C 10,6 °C 4,8 km/h (1 Bft)
07.12.2018 15:58 10,5 °C 75 % 1009,8 hPa 0,0 mm 1,7 km/h (1 Bft) W 281 ° 0 min 0,000 mm 0,0 UV-I 21 W/m² 6,3 °C 10,5 °C 3,2 km/h (1 Bft)
07.12.2018 15:59 10,5 °C 75 % 1009,8 hPa 0,0 mm 3,2 km/h (1 Bft) W 281 ° 0 min 0,000 mm 0,0 UV-I 19 W/m² 6,3 °C 10,5 °C 4,8 km/h (1 Bft)
07.12.2018 16:00 10,5 °C 75 % 1009,8 hPa 0,0 mm 7,1 km/h (2 Bft) NW 317 ° 0 min 0,000 mm 0,0 UV-I 18 W/m² 6,3 °C 10,5 °C 9,7 km/h (2 Bft)
07.12.2018 16:01 10,5 °C 76 % 1009,8 hPa 0,0 mm 8,6 km/h (2 Bft) W-NW 300 ° 0 min 0,025 mm 0,0 UV-I 18 W/m² 6,5 °C 10,5 °C 11,3 km/h (2 Bft)
07.12.2018 16:02 10,4 °C 75 % 1009,8 hPa 0,0 mm 3,7 km/h (1 Bft) W-NW 290 ° 0 min 0,000 mm 0,0 UV-I 16 W/m² 6,2 °C 10,4 °C 11,3 km/h (2 Bft)
07.12.2018 16:03 10,4 °C 75 % 1009,7 hPa 0,0 mm 8,6 km/h (2 Bft) W 270 ° 0 min 0,000 mm 0,0 UV-I 16 W/m² 6,2 °C 10,4 °C 16,1 km/h (3 Bft)
07.12.2018 16:04 10,4 °C 74 % 1009,7 hPa 0,0 mm 12,2 km/h (2 Bft) W-NW 293 ° 0 min 0,000 mm 0,0 UV-I 14 W/m² 6,0 °C 10,4 °C 16,1 km/h (3 Bft)
07.12.2018 16:05 10,4 °C 74 % 1009,7 hPa 0,0 mm 7,7 km/h (2 Bft) W-NW 288 ° 0 min 0,000 mm 0,0 UV-I 14 W/m² 6,0 °C 10,4 °C 11,3 km/h (2 Bft)
07.12.2018 16:06 10,4 °C 74 % 1009,7 hPa 0,0 mm 4,2 km/h (1 Bft) NW 307 ° 0 min 0,000 mm 0,0 UV-I 14 W/m² 6,0 °C 10,4 °C 8,0 km/h (2 Bft)
07.12.2018 16:07 10,4 °C 74 % 1009,7 hPa 0,0 mm 9,7 km/h (2 Bft) W 271 ° 0 min 0,000 mm 0,0 UV-I 14 W/m² 6,0 °C 10,4 °C 12,9 km/h (3 Bft)
07.12.2018 16:08 10,4 °C 74 % 1009,6 hPa 0,0 mm 4,7 km/h (1 Bft) W-NW 298 ° 0 min 0,000 mm 0,0 UV-I 14 W/m² 6,0 °C 10,4 °C 9,7 km/h (2 Bft)
07.12.2018 16:09 10,4 °C 74 % 1009,6 hPa 0,0 mm 4,5 km/h (1 Bft) W 277 ° 0 min 0,000 mm 0,0 UV-I 14 W/m² 6,0 °C 10,4 °C 6,4 km/h (2 Bft)
07.12.2018 16:10 10,4 °C 74 % 1009,5 hPa 0,0 mm 6,0 km/h (2 Bft) W 270 ° 0 min 0,000 mm 0,0 UV-I 16 W/m² 6,0 °C 10,4 °C 9,7 km/h (2 Bft)
07.12.2018 16:11 10,3 °C 74 % 1009,5 hPa 0,0 mm 2,7 km/h (1 Bft) W-NW 284 ° 0 min 0,000 mm 0,0 UV-I 16 W/m² 5,9 °C 10,3 °C 6,4 km/h (2 Bft)
07.12.2018 16:12 10,3 °C 74 % 1009,5 hPa 0,0 mm 3,0 km/h (1 Bft) W-NW 284 ° 0 min 0,000 mm 0,0 UV-I 16 W/m² 5,9 °C 10,3 °C 4,8 km/h (1 Bft)
07.12.2018 16:13 10,3 °C 74 % 1009,5 hPa 0,0 mm 1,8 km/h (1 Bft) W-SW 253 ° 0 min 0,000 mm 0,0 UV-I 16 W/m² 5,9 °C 10,3 °C 3,2 km/h (1 Bft)
07.12.2018 16:14 10,3 °C 74 % 1009,5 hPa 0,0 mm 4,1 km/h (1 Bft) W-SW 248 ° 0 min 0,000 mm 0,0 UV-I 16 W/m² 5,9 °C 10,3 °C 12,9 km/h (3 Bft)
07.12.2018 16:15 10,3 °C 74 % 1009,4 hPa 0,0 mm 7,3 km/h (2 Bft) NW 310 ° 0 min 0,000 mm 0,0 UV-I 16 W/m² 5,9 °C 10,3 °C 11,3 km/h (2 Bft)
07.12.2018 16:16 10,3 °C 74 % 1009,3 hPa 0,0 mm 3,1 km/h (1 Bft) W-SW 244 ° 0 min 0,000 mm 0,0 UV-I 14 W/m² 5,9 °C 10,3 °C 4,8 km/h (1 Bft)
07.12.2018 16:17 10,3 °C 74 % 1009,3 hPa 0,0 mm 3,6 km/h (1 Bft) SW 232 ° 0 min 0,000 mm 0,0 UV-I 12 W/m² 5,9 °C 10,3 °C 8,0 km/h (2 Bft)
07.12.2018 16:18 10,3 °C 74 % 1009,3 hPa 0,0 mm 3,7 km/h (1 Bft) W-SW 254 ° 0 min 0,000 mm 0,0 UV-I 12 W/m² 5,9 °C 10,3 °C 9,7 km/h (2 Bft)
07.12.2018 16:19 10,3 °C 74 % 1009,2 hPa 0,0 mm 4,9 km/h (1 Bft) W-SW 238 ° 0 min 0,000 mm 0,0 UV-I 11 W/m² 5,9 °C 10,3 °C 9,7 km/h (2 Bft)
07.12.2018 16:20 10,3 °C 74 % 1009,3 hPa 0,0 mm 8,0 km/h (2 Bft) SW 235 ° 0 min 0,000 mm 0,0 UV-I 11 W/m² 5,9 °C 10,3 °C 12,9 km/h (3 Bft)
07.12.2018 16:21 10,2 °C 74 % 1009,3 hPa 0,0 mm 7,8 km/h (2 Bft) W-SW 254 ° 0 min 0,000 mm 0,0 UV-I 11 W/m² 5,8 °C 10,2 °C 12,9 km/h (3 Bft)
07.12.2018 16:22 10,2 °C 74 % 1009,2 hPa 0,0 mm 5,9 km/h (2 Bft) W-NW 301 ° 0 min 0,000 mm 0,0 UV-I 11 W/m² 5,8 °C 10,2 °C 9,7 km/h (2 Bft)
07.12.2018 16:23 10,2 °C 74 % 1009,2 hPa 0,0 mm 2,6 km/h (1 Bft) W 273 ° 0 min 0,000 mm 0,0 UV-I 11 W/m² 5,8 °C 10,2 °C 4,8 km/h (1 Bft)
07.12.2018 16:24 10,2 °C 74 % 1009,2 hPa 0,0 mm 2,7 km/h (1 Bft) W-NW 300 ° 0 min 0,000 mm 0,0 UV-I 11 W/m² 5,8 °C 10,2 °C 6,4 km/h (2 Bft)
07.12.2018 16:25 10,2 °C 74 % 1009,1 hPa 0,0 mm 2,1 km/h (1 Bft) W-SW 248 ° 0 min 0,000 mm 0,0 UV-I 11 W/m² 5,8 °C 10,2 °C 3,2 km/h (1 Bft)
07.12.2018 16:26 10,2 °C 74 % 1009,1 hPa 0,0 mm 1,7 km/h (1 Bft) W 271 ° 0 min 0,000 mm 0,0 UV-I 9 W/m² 5,8 °C 10,2 °C 4,8 km/h (1 Bft)
07.12.2018 16:27 10,2 °C 74 % 1009,1 hPa 0,0 mm 0,8 km/h (0 Bft) W 271 ° 0 min 0,000 mm 0,0 UV-I 9 W/m² 5,8 °C 10,2 °C 3,2 km/h (1 Bft)
07.12.2018 16:28 10,1 °C 74 % 1009,1 hPa 0,0 mm 0,7 km/h (0 Bft) W 271 ° 0 min 0,000 mm 0,0 UV-I 9 W/m² 5,7 °C 10,1 °C 1,6 km/h (1 Bft)
07.12.2018 16:29 10,1 °C 74 % 1009,1 hPa 0,0 mm 3,2 km/h (1 Bft) W 270 ° 0 min 0,000 mm 0,0 UV-I 7 W/m² 5,7 °C 10,1 °C 4,8 km/h (1 Bft)
07.12.2018 16:30 10,1 °C 74 % 1009,1 hPa 0,0 mm 1,0 km/h (0 Bft) W 270 ° 0 min 0,000 mm 0,0 UV-I 5 W/m² 5,7 °C 10,1 °C 3,2 km/h (1 Bft)
07.12.2018 16:31 10,1 °C 74 % 1009,1 hPa 0,0 mm 0,5 km/h (0 Bft) W 270 ° 0 min 0,000 mm 0,0 UV-I 5 W/m² 5,7 °C 10,1 °C 1,6 km/h (1 Bft)
07.12.2018 16:32 10,1 °C 74 % 1009,0 hPa 0,0 mm 0,0 km/h (0 Bft) W 270 ° 0 min 0,000 mm 0,0 UV-I 0 W/m² 5,7 °C 10,1 °C 0,0 km/h (0 Bft)
07.12.2018 16:33 10,1 °C 74 % 1008,9 hPa 0,0 mm 0,8 km/h (0 Bft) W 270 ° 0 min 0,000 mm 0,0 UV-I 0 W/m² 5,7 °C 10,1 °C 1,6 km/h (1 Bft)
07.12.2018 16:34 10,1 °C 74 % 1008,8 hPa 0,0 mm 3,9 km/h (1 Bft) S-SW 198 ° 0 min 0,000 mm 0,0 UV-I 0 W/m² 5,7 °C 10,1 °C 4,8 km/h (1 Bft)
07.12.2018 16:35 10,0 °C 74 % 1008,8 hPa 0,0 mm 0,5 km/h (0 Bft) S-SW 198 ° 0 min 0,000 mm 0,0 UV-I 0 W/m² 5,6 °C 10,0 °C 1,6 km/h (1 Bft)
07.12.2018 16:36 9,9 °C 74 % 1008,8 hPa 0,0 mm 3,5 km/h (1 Bft) W 263 ° 0 min 0,000 mm 0,0 UV-I 0 W/m² 5,5 °C 9,9 °C 4,8 km/h (1 Bft)
07.12.2018 16:37 9,9 °C 74 % 1008,8 hPa 0,0 mm 3,5 km/h (1 Bft) W 263 ° 0 min 0,000 mm 0,0 UV-I 0 W/m² 5,5 °C 9,9 °C 4,8 km/h (1 Bft)
07.12.2018 16:38 9,9 °C 74 % 1008,8 hPa 0,0 mm 1,7 km/h (1 Bft) W 263 ° 0 min 0,000 mm 0,0 UV-I 0 W/m² 5,5 °C 9,9 °C 3,2 km/h (1 Bft)
07.12.2018 16:39 9,9 °C 74 % 1008,8 hPa 0,0 mm 4,4 km/h (1 Bft) W 267 ° 0 min 0,000 mm 0,0 UV-I 0 W/m² 5,5 °C 9,9 °C 9,7 km/h (2 Bft)
07.12.2018 16:40 9,8 °C 74 % 1008,8 hPa 0,0 mm 3,2 km/h (1 Bft) W 267 ° 0 min 0,000 mm 0,0 UV-I 0 W/m² 5,4 °C 9,8 °C 4,8 km/h (1 Bft)
07.12.2018 16:41 9,8 °C 74 % 1008,7 hPa 0,0 mm 0,2 km/h (0 Bft) W 267 ° 0 min 0,000 mm 0,0 UV-I 0 W/m² 5,4 °C 9,8 °C 1,6 km/h (1 Bft)
07.12.2018 16:42 9,8 °C 74 % 1008,7 hPa 0,0 mm 0,0 km/h (0 Bft) W 267 ° 0 min 0,000 mm 0,0 UV-I 0 W/m² 5,4 °C 9,8 °C 0,0 km/h (0 Bft)
07.12.2018 16:43 9,8 °C 74 % 1008,6 hPa 0,0 mm 2,2 km/h (1 Bft) W 267 ° 0 min 0,000 mm 0,0 UV-I 0 W/m² 5,4 °C 9,8 °C 3,2 km/h (1 Bft)
07.12.2018 16:44 9,8 °C 74 % 1008,6 hPa 0,0 mm 1,7 km/h (1 Bft) SW 235 ° 0 min 0,000 mm 0,0 UV-I 0 W/m² 5,4 °C 9,8 °C 4,8 km/h (1 Bft)
07.12.2018 16:45 9,7 °C 74 % 1008,5 hPa 0,0 mm 1,3 km/h (1 Bft) SW 235 ° 0 min 0,000 mm 0,0 UV-I 0 W/m² 5,3 °C 9,7 °C 3,2 km/h (1 Bft)
07.12.2018 16:46 9,7 °C 75 % 1008,5 hPa 0,0 mm 0,5 km/h (0 Bft) SW 235 ° 0 min 0,000 mm 0,0 UV-I 0 W/m² 5,5 °C 9,7 °C 1,6 km/h (1 Bft)
07.12.2018 16:47 9,7 °C 75 % 1008,5 hPa 0,0 mm 0,0 km/h (0 Bft) SW 235 ° 0 min 0,000 mm 0,0 UV-I 0 W/m² 5,5 °C 9,7 °C 0,0 km/h (0 Bft)
07.12.2018 16:48 9,7 °C 75 % 1008,4 hPa 0,0 mm 0,0 km/h (0 Bft) SW 235 ° 0 min 0,000 mm 0,0 UV-I 0 W/m² 5,5 °C 9,7 °C 0,0 km/h (0 Bft)
07.12.2018 16:49 9,6 °C 75 % 1008,4 hPa 0,0 mm 0,0 km/h (0 Bft) SW 235 ° 0 min 0,000 mm 0,0 UV-I 0 W/m² 5,4 °C 9,6 °C 0,0 km/h (0 Bft)
07.12.2018 16:50 9,6 °C 75 % 1008,4 hPa 0,0 mm 0,0 km/h (0 Bft) SW 235 ° 0 min 0,000 mm 0,0 UV-I 0 W/m² 5,4 °C 9,6 °C 0,0 km/h (0 Bft)
07.12.2018 16:51 9,6 °C 75 % 1008,4 hPa 0,0 mm 0,0 km/h (0 Bft) SW 235 ° 0 min 0,000 mm 0,0 UV-I 0 W/m² 5,4 °C 9,6 °C 0,0 km/h (0 Bft)
07.12.2018 16:52 9,6 °C 75 % 1008,4 hPa 0,0 mm 0,0 km/h (0 Bft) SW 235 ° 0 min 0,000 mm 0,0 UV-I 0 W/m² 5,4 °C 9,6 °C 0,0 km/h (0 Bft)
07.12.2018 16:53 9,5 °C 75 % 1008,4 hPa 0,0 mm 0,0 km/h (0 Bft) SW 235 ° 0 min 0,000 mm 0,0 UV-I 0 W/m² 5,3 °C 9,5 °C 0,0 km/h (0 Bft)
07.12.2018 16:54 9,4 °C 76 % 1008,4 hPa 0,0 mm 0,0 km/h (0 Bft) SW 235 ° 0 min 0,000 mm 0,0 UV-I 0 W/m² 5,4 °C 9,4 °C 0,0 km/h (0 Bft)
07.12.2018 16:55 9,4 °C 76 % 1008,4 hPa 0,0 mm 0,0 km/h (0 Bft) SW 235 ° 0 min 0,000 mm 0,0 UV-I 0 W/m² 5,4 °C 9,4 °C 0,0 km/h (0 Bft)
07.12.2018 16:56 9,3 °C 76 % 1008,4 hPa 0,0 mm 0,0 km/h (0 Bft) SW 235 ° 0 min 0,000 mm 0,0 UV-I 0 W/m² 5,3 °C 9,3 °C 0,0 km/h (0 Bft)
07.12.2018 16:57 9,3 °C 76 % 1008,4 hPa 0,0 mm 0,0 km/h (0 Bft) SW 235 ° 0 min 0,000 mm 0,0 UV-I 0 W/m² 5,3 °C 9,3 °C 0,0 km/h (0 Bft)
07.12.2018 16:58 9,3 °C 76 % 1008,4 hPa 0,0 mm 0,0 km/h (0 Bft) SW 235 ° 0 min 0,000 mm 0,0 UV-I 0 W/m² 5,3 °C 9,3 °C 0,0 km/h (0 Bft)
07.12.2018 16:59 9,3 °C 76 % 1008,3 hPa 0,0 mm 0,0 km/h (0 Bft) SW 235 ° 0 min 0,000 mm 0,0 UV-I 0 W/m² 5,3 °C 9,3 °C 0,0 km/h (0 Bft)
07.12.2018 17:00 9,2 °C 76 % 1008,3 hPa 0,0 mm 0,0 km/h (0 Bft) SW 235 ° 0 min 0,000 mm 0,0 UV-I 0 W/m² 5,2 °C 9,2 °C 0,0 km/h (0 Bft)
07.12.2018 17:01 9,2 °C 76 % 1008,2 hPa 0,0 mm 0,0 km/h (0 Bft) SW 235 ° 0 min 0,026 mm 0,0 UV-I 0 W/m² 5,2 °C 9,2 °C 0,0 km/h (0 Bft)
07.12.2018 17:02 9,2 °C 77 % 1008,2 hPa 0,0 mm 0,0 km/h (0 Bft) SW 235 ° 0 min 0,000 mm 0,0 UV-I 0 W/m² 5,4 °C 9,2 °C 0,0 km/h (0 Bft)
07.12.2018 17:03 9,2 °C 77 % 1008,2 hPa 0,0 mm 0,8 km/h (0 Bft) SW 235 ° 0 min 0,000 mm 0,0 UV-I 0 W/m² 5,4 °C 9,2 °C 1,6 km/h (1 Bft)
07.12.2018 17:04 9,2 °C 77 % 1008,2 hPa 0,0 mm 2,2 km/h (1 Bft) SW 235 ° 0 min 0,000 mm 0,0 UV-I 0 W/m² 5,4 °C 9,2 °C 4,8 km/h (1 Bft)
07.12.2018 17:05 9,1 °C 77 % 1008,3 hPa 0,0 mm 1,7 km/h (1 Bft) SW 235 ° 0 min 0,000 mm 0,0 UV-I 0 W/m² 5,3 °C 9,1 °C 3,2 km/h (1 Bft)
07.12.2018 17:06 9,1 °C 77 % 1008,3 hPa 0,0 mm 2,4 km/h (1 Bft) SW 235 ° 0 min 0,000 mm 0,0 UV-I 0 W/m² 5,3 °C 9,1 °C 3,2 km/h (1 Bft)
07.12.2018 17:07 9,0 °C 77 % 1008,1 hPa 0,0 mm 1,0 km/h (0 Bft) SW 235 ° 0 min 0,000 mm 0,0 UV-I 0 W/m² 5,2 °C 9,0 °C 3,2 km/h (1 Bft)
07.12.2018 17:08 8,9 °C 77 % 1008,2 hPa 0,0 mm 2,3 km/h (1 Bft) SW 235 ° 0 min 0,000 mm 0,0 UV-I 0 W/m² 5,1 °C 8,9 °C 3,2 km/h (1 Bft)
07.12.2018 17:09 8,9 °C 78 % 1008,2 hPa 0,0 mm 1,7 km/h (1 Bft) SW 235 ° 0 min 0,000 mm 0,0 UV-I 0 W/m² 5,3 °C 8,9 °C 3,2 km/h (1 Bft)
07.12.2018 17:10 8,8 °C 78 % 1008,1 hPa 0,0 mm 1,7 km/h (1 Bft) SW 235 ° 0 min 0,000 mm 0,0 UV-I 0 W/m² 5,2 °C 8,8 °C 3,2 km/h (1 Bft)
07.12.2018 17:11 8,8 °C 78 % 1008,2 hPa 0,0 mm 1,8 km/h (1 Bft) SW 235 ° 0 min 0,000 mm 0,0 UV-I 0 W/m² 5,2 °C 8,8 °C 3,2 km/h (1 Bft)
07.12.2018 17:12 8,8 °C 78 % 1008,2 hPa 0,0 mm 1,6 km/h (1 Bft) SW 235 ° 0 min 0,000 mm 0,0 UV-I 0 W/m² 5,2 °C 8,8 °C 3,2 km/h (1 Bft)
07.12.2018 17:13 8,7 °C 78 % 1008,1 hPa 0,0 mm 1,9 km/h (1 Bft) SW 235 ° 0 min 0,000 mm 0,0 UV-I 0 W/m² 5,1 °C 8,7 °C 3,2 km/h (1 Bft)
07.12.2018 17:14 8,6 °C 79 % 1008,0 hPa 0,0 mm 2,1 km/h (1 Bft) SW 235 ° 0 min 0,000 mm 0,0 UV-I 0 W/m² 5,2 °C 8,6 °C 3,2 km/h (1 Bft)
07.12.2018 17:15 8,6 °C 79 % 1008,0 hPa 0,0 mm 1,0 km/h (0 Bft) SW 235 ° 0 min 0,000 mm 0,0 UV-I 0 W/m² 5,2 °C 8,6 °C 1,6 km/h (1 Bft)
07.12.2018 17:16 8,5 °C 79 % 1007,9 hPa 0,0 mm 1,3 km/h (1 Bft) SW 235 ° 0 min 0,000 mm 0,0 UV-I 0 W/m² 5,1 °C 8,5 °C 1,6 km/h (1 Bft)
07.12.2018 17:17 8,4 °C 79 % 1007,9 hPa 0,0 mm 1,8 km/h (1 Bft) SW 235 ° 0 min 0,000 mm 0,0 UV-I 0 W/m² 5,0 °C 8,4 °C 3,2 km/h (1 Bft)
07.12.2018 17:18 8,4 °C 79 % 1007,8 hPa 0,0 mm 3,4 km/h (1 Bft) S-SW 209 ° 0 min 0,000 mm 0,0 UV-I 0 W/m² 5,0 °C 8,4 °C 4,8 km/h (1 Bft)
07.12.2018 17:19 8,3 °C 80 % 1007,7 hPa 0,0 mm 1,1 km/h (1 Bft) S-SW 209 ° 0 min 0,000 mm 0,0 UV-I 0 W/m² 5,1 °C 8,3 °C 3,2 km/h (1 Bft)
07.12.2018 17:20 8,3 °C 80 % 1007,7 hPa 0,0 mm 0,0 km/h (0 Bft) S-SW 209 ° 0 min 0,000 mm 0,0 UV-I 0 W/m² 5,1 °C 8,3 °C 0,0 km/h (0 Bft)
07.12.2018 17:21 8,3 °C 80 % 1007,6 hPa 0,0 mm 0,0 km/h (0 Bft) S-SW 209 ° 0 min 0,000 mm 0,0 UV-I 0 W/m² 5,1 °C 8,3 °C 0,0 km/h (0 Bft)
07.12.2018 17:22 8,3 °C 80 % 1007,6 hPa 0,0 mm 0,0 km/h (0 Bft) S-SW 209 ° 0 min 0,000 mm 0,0 UV-I 0 W/m² 5,1 °C 8,3 °C 0,0 km/h (0 Bft)
07.12.2018 17:23 8,2 °C 80 % 1007,6 hPa 0,0 mm 0,0 km/h (0 Bft) S-SW 209 ° 0 min 0,000 mm 0,0 UV-I 0 W/m² 5,0 °C 8,2 °C 0,0 km/h (0 Bft)
07.12.2018 17:24 8,2 °C 80 % 1007,6 hPa 0,0 mm 0,0 km/h (0 Bft) S-SW 209 ° 0 min 0,000 mm 0,0 UV-I 0 W/m² 5,0 °C 8,2 °C 0,0 km/h (0 Bft)
07.12.2018 17:25 8,2 °C 80 % 1007,5 hPa 0,0 mm 3,4 km/h (1 Bft) S 173 ° 0 min 0,000 mm 0,0 UV-I 0 W/m² 5,0 °C 8,2 °C 4,8 km/h (1 Bft)
07.12.2018 17:26 8,1 °C 80 % 1007,5 hPa 0,0 mm 2,5 km/h (1 Bft) S 173 ° 0 min 0,000 mm 0,0 UV-I 0 W/m² 4,9 °C 8,1 °C 3,2 km/h (1 Bft)
07.12.2018 17:27 8,1 °C 80 % 1007,4 hPa 0,0 mm 1,8 km/h (1 Bft) S 173 ° 0 min 0,000 mm 0,0 UV-I 0 W/m² 4,9 °C 8,1 °C 3,2 km/h (1 Bft)
07.12.2018 17:28 8,0 °C 80 % 1007,4 hPa 0,0 mm 0,5 km/h (0 Bft) S 173 ° 0 min 0,000 mm 0,0 UV-I 0 W/m² 4,8 °C 8,0 °C 1,6 km/h (1 Bft)
07.12.2018 17:29 7,9 °C 80 % 1007,3 hPa 0,0 mm 0,0 km/h (0 Bft) S 173 ° 0 min 0,000 mm 0,0 UV-I 0 W/m² 4,7 °C 7,9 °C 0,0 km/h (0 Bft)
07.12.2018 17:30 7,9 °C 80 % 1007,3 hPa 0,0 mm 0,0 km/h (0 Bft) S 173 ° 0 min 0,000 mm 0,0 UV-I 0 W/m² 4,7 °C 7,9 °C 0,0 km/h (0 Bft)
07.12.2018 17:31 7,9 °C 80 % 1007,2 hPa 0,0 mm 0,0 km/h (0 Bft) S 173 ° 0 min 0,000 mm 0,0 UV-I 0 W/m² 4,7 °C 7,9 °C 0,0 km/h (0 Bft)
07.12.2018 17:32 7,8 °C 80 % 1007,3 hPa 0,0 mm 0,0 km/h (0 Bft) S 173 ° 0 min 0,000 mm 0,0 UV-I 0 W/m² 4,6 °C 7,8 °C 0,0 km/h (0 Bft)
07.12.2018 17:33 7,8 °C 80 % 1007,2 hPa 0,0 mm 0,0 km/h (0 Bft) S 173 ° 0 min 0,000 mm 0,0 UV-I 0 W/m² 4,6 °C 7,8 °C 0,0 km/h (0 Bft)
07.12.2018 17:34 7,8 °C 81 % 1007,2 hPa 0,0 mm 0,0 km/h (0 Bft) S 173 ° 0 min 0,000 mm 0,0 UV-I 0 W/m² 4,7 °C 7,8 °C 0,0 km/h (0 Bft)
07.12.2018 17:35 7,7 °C 81 % 1007,4 hPa 0,0 mm 0,0 km/h (0 Bft) S 173 ° 0 min 0,000 mm 0,0 UV-I 0 W/m² 4,7 °C 7,7 °C 0,0 km/h (0 Bft)
07.12.2018 17:36 7,7 °C 81 % 1007,5 hPa 0,0 mm 0,0 km/h (0 Bft) S 173 ° 0 min 0,000 mm 0,0 UV-I 0 W/m² 4,7 °C 7,7 °C 0,0 km/h (0 Bft)
07.12.2018 17:37 7,6 °C 81 % 1007,6 hPa 0,0 mm 0,0 km/h (0 Bft) S 173 ° 0 min 0,000 mm 0,0 UV-I 0 W/m² 4,6 °C 7,6 °C 0,0 km/h (0 Bft)
07.12.2018 17:38 7,6 °C 81 % 1007,5 hPa 0,0 mm 0,0 km/h (0 Bft) S 173 ° 0 min 0,000 mm 0,0 UV-I 0 W/m² 4,6 °C 7,6 °C 0,0 km/h (0 Bft)
07.12.2018 17:39 7,5 °C 81 % 1007,5 hPa 0,0 mm 0,0 km/h (0 Bft) S 173 ° 0 min 0,000 mm 0,0 UV-I 0 W/m² 4,5 °C 7,5 °C 0,0 km/h (0 Bft)
07.12.2018 17:40 7,4 °C 80 % 1007,5 hPa 0,0 mm 0,0 km/h (0 Bft) S 173 ° 0 min 0,000 mm 0,0 UV-I 0 W/m² 4,2 °C 7,4 °C 0,0 km/h (0 Bft)
07.12.2018 17:41 7,4 °C 80 % 1007,4 hPa 0,0 mm 0,0 km/h (0 Bft) S 173 ° 0 min 0,000 mm 0,0 UV-I 0 W/m² 4,2 °C 7,4 °C 0,0 km/h (0 Bft)
07.12.2018 17:42 7,3 °C 81 % 1007,4 hPa 0,0 mm 0,0 km/h (0 Bft) S 173 ° 0 min 0,000 mm 0,0 UV-I 0 W/m² 4,3 °C 7,3 °C 0,0 km/h (0 Bft)
07.12.2018 17:43 7,3 °C 81 % 1007,2 hPa 0,0 mm 0,0 km/h (0 Bft) S 173 ° 0 min 0,000 mm 0,0 UV-I 0 W/m² 4,3 °C 7,3 °C 0,0 km/h (0 Bft)
07.12.2018 17:44 7,3 °C 81 % 1007,2 hPa 0,0 mm 0,0 km/h (0 Bft) S 173 ° 0 min 0,000 mm 0,0 UV-I 0 W/m² 4,3 °C 7,3 °C 0,0 km/h (0 Bft)
07.12.2018 17:45 7,2 °C 82 % 1007,3 hPa 0,0 mm 0,0 km/h (0 Bft) S 173 ° 0 min 0,000 mm 0,0 UV-I 0 W/m² 4,3 °C 7,2 °C 0,0 km/h (0 Bft)
07.12.2018 17:46 7,2 °C 82 % 1007,3 hPa 0,0 mm 0,0 km/h (0 Bft) S 173 ° 0 min 0,000 mm 0,0 UV-I 0 W/m² 4,3 °C 7,2 °C 0,0 km/h (0 Bft)
07.12.2018 17:47 7,2 °C 82 % 1007,3 hPa 0,0 mm 0,0 km/h (0 Bft) S 173 ° 0 min 0,000 mm 0,0 UV-I 0 W/m² 4,3 °C 7,2 °C 0,0 km/h (0 Bft)
07.12.2018 17:48 7,1 °C 82 % 1007,3 hPa 0,0 mm 0,0 km/h (0 Bft) S 173 ° 0 min 0,000 mm 0,0 UV-I 0 W/m² 4,2 °C 7,1 °C 0,0 km/h (0 Bft)
07.12.2018 17:49 7,1 °C 83 % 1007,3 hPa 0,0 mm 0,0 km/h (0 Bft) S 173 ° 0 min 0,000 mm 0,0 UV-I 0 W/m² 4,4 °C 7,1 °C 0,0 km/h (0 Bft)
07.12.2018 17:50 7,1 °C 83 % 1007,2 hPa 0,0 mm 0,0 km/h (0 Bft) S 173 ° 0 min 0,000 mm 0,0 UV-I 0 W/m² 4,4 °C 7,1 °C 0,0 km/h (0 Bft)
07.12.2018 17:51 7,0 °C 83 % 1007,1 hPa 0,0 mm 0,0 km/h (0 Bft) S 173 ° 0 min 0,000 mm 0,0 UV-I 0 W/m² 4,3 °C 7,0 °C 0,0 km/h (0 Bft)
07.12.2018 17:52 6,9 °C 83 % 1007,0 hPa 0,0 mm 0,0 km/h (0 Bft) S 173 ° 0 min 0,000 mm 0,0 UV-I 0 W/m² 4,2 °C 6,9 °C 0,0 km/h (0 Bft)
07.12.2018 17:53 6,9 °C 83 % 1007,0 hPa 0,0 mm 0,0 km/h (0 Bft) S 173 ° 0 min 0,000 mm 0,0 UV-I 0 W/m² 4,2 °C 6,9 °C 0,0 km/h (0 Bft)
07.12.2018 17:54 6,9 °C 83 % 1006,9 hPa 0,0 mm 0,0 km/h (0 Bft) S 173 ° 0 min 0,000 mm 0,0 UV-I 0 W/m² 4,2 °C 6,9 °C 0,0 km/h (0 Bft)
07.12.2018 17:55 6,8 °C 83 % 1006,9 hPa 0,0 mm 0,0 km/h (0 Bft) S 175 ° 0 min 0,000 mm 0,0 UV-I 0 W/m² 4,1 °C 6,8 °C 0,0 km/h (0 Bft)
07.12.2018 17:56 6,8 °C 83 % 1006,8 hPa 0,0 mm 0,0 km/h (0 Bft) S 175 ° 0 min 0,000 mm 0,0 UV-I 0 W/m² 4,1 °C 6,8 °C 0,0 km/h (0 Bft)
07.12.2018 17:57 6,8 °C 83 % 1006,8 hPa 0,0 mm 0,0 km/h (0 Bft) S 175 ° 0 min 0,000 mm 0,0 UV-I 0 W/m² 4,1 °C 6,8 °C 0,0 km/h (0 Bft)
07.12.2018 17:58 6,7 °C 83 % 1006,8 hPa 0,0 mm 0,0 km/h (0 Bft) S 175 ° 0 min 0,000 mm 0,0 UV-I 0 W/m² 4,0 °C 6,7 °C 0,0 km/h (0 Bft)
07.12.2018 17:59 6,7 °C 83 % 1006,8 hPa 0,0 mm 0,0 km/h (0 Bft) S 175 ° 0 min 0,000 mm 0,0 UV-I 0 W/m² 4,0 °C 6,7 °C 0,0 km/h (0 Bft)
07.12.2018 18:00 6,6 °C 83 % 1006,8 hPa 0,0 mm 0,0 km/h (0 Bft) S 175 ° 0 min 0,000 mm 0,0 UV-I 0 W/m² 3,9 °C 6,6 °C 0,0 km/h (0 Bft)
07.12.2018 18:01 6,6 °C 83 % 1006,8 hPa 0,0 mm 0,0 km/h (0 Bft) S 175 ° 0 min 0,025 mm 0,0 UV-I 0 W/m² 3,9 °C 6,6 °C 0,0 km/h (0 Bft)
07.12.2018 18:02 6,5 °C 84 % 1006,8 hPa 0,0 mm 0,0 km/h (0 Bft) S 175 ° 0 min 0,000 mm 0,0 UV-I 0 W/m² 4,0 °C 6,5 °C 0,0 km/h (0 Bft)
07.12.2018 18:03 6,4 °C 84 % 1006,7 hPa 0,0 mm 0,0 km/h (0 Bft) S 175 ° 0 min 0,000 mm 0,0 UV-I 0 W/m² 3,9 °C 6,4 °C 0,0 km/h (0 Bft)
07.12.2018 18:04 6,4 °C 84 % 1006,7 hPa 0,0 mm 0,0 km/h (0 Bft) S 175 ° 0 min 0,000 mm 0,0 UV-I 0 W/m² 3,9 °C 6,4 °C 0,0 km/h (0 Bft)
07.12.2018 18:05 6,3 °C 84 % 1006,8 hPa 0,0 mm 0,0 km/h (0 Bft) S 175 ° 0 min 0,000 mm 0,0 UV-I 0 W/m² 3,8 °C 6,3 °C 0,0 km/h (0 Bft)
07.12.2018 18:06 6,3 °C 84 % 1006,8 hPa 0,0 mm 0,0 km/h (0 Bft) S 175 ° 0 min 0,000 mm 0,0 UV-I 0 W/m² 3,8 °C 6,3 °C 0,0 km/h (0 Bft)
07.12.2018 18:07 6,3 °C 84 % 1006,8 hPa 0,0 mm 0,0 km/h (0 Bft) S 175 ° 0 min 0,000 mm 0,0 UV-I 0 W/m² 3,8 °C 6,3 °C 0,0 km/h (0 Bft)
07.12.2018 18:08 6,3 °C 84 % 1006,9 hPa 0,0 mm 0,0 km/h (0 Bft) S 175 ° 0 min 0,000 mm 0,0 UV-I 0 W/m² 3,8 °C 6,3 °C 0,0 km/h (0 Bft)
07.12.2018 18:09 6,2 °C 84 % 1006,9 hPa 0,0 mm 0,0 km/h (0 Bft) S 175 ° 0 min 0,000 mm 0,0 UV-I 0 W/m² 3,7 °C 6,2 °C 0,0 km/h (0 Bft)
07.12.2018 18:10 6,2 °C 84 % 1006,9 hPa 0,0 mm 0,0 km/h (0 Bft) S 175 ° 0 min 0,000 mm 0,0 UV-I 0 W/m² 3,7 °C 6,2 °C 0,0 km/h (0 Bft)
07.12.2018 18:11 6,2 °C 84 % 1006,9 hPa 0,0 mm 0,0 km/h (0 Bft) S 175 ° 0 min 0,000 mm 0,0 UV-I 0 W/m² 3,7 °C 6,2 °C 0,0 km/h (0 Bft)
07.12.2018 18:12 6,2 °C 84 % 1007,0 hPa 0,0 mm 0,0 km/h (0 Bft) S 175 ° 0 min 0,000 mm 0,0 UV-I 0 W/m² 3,7 °C 6,2 °C 0,0 km/h (0 Bft)
07.12.2018 18:13 6,1 °C 84 % 1007,0 hPa 0,0 mm 0,0 km/h (0 Bft) S 175 ° 0 min 0,000 mm 0,0 UV-I 0 W/m² 3,6 °C 6,1 °C 0,0 km/h (0 Bft)
07.12.2018 18:14 6,1 °C 84 % 1007,1 hPa 0,0 mm 0,0 km/h (0 Bft) S 175 ° 0 min 0,000 mm 0,0 UV-I 0 W/m² 3,6 °C 6,1 °C 0,0 km/h (0 Bft)
07.12.2018 18:15 6,1 °C 84 % 1007,1 hPa 0,0 mm 0,0 km/h (0 Bft) S 175 ° 0 min 0,000 mm 0,0 UV-I 0 W/m² 3,6 °C 6,1 °C 0,0 km/h (0 Bft)
07.12.2018 18:16 6,0 °C 84 % 1007,1 hPa 0,0 mm 0,0 km/h (0 Bft) S 175 ° 0 min 0,000 mm 0,0 UV-I 0 W/m² 3,5 °C 6,0 °C 0,0 km/h (0 Bft)
07.12.2018 18:17 5,9 °C 84 % 1007,1 hPa 0,0 mm 0,0 km/h (0 Bft) S 175 ° 0 min 0,000 mm 0,0 UV-I 0 W/m² 3,4 °C 5,9 °C 0,0 km/h (0 Bft)
07.12.2018 18:18 5,9 °C 84 % 1007,0 hPa 0,0 mm 0,0 km/h (0 Bft) S 175 ° 0 min 0,000 mm 0,0 UV-I 0 W/m² 3,4 °C 5,9 °C 0,0 km/h (0 Bft)
07.12.2018 18:19 5,9 °C 84 % 1007,0 hPa 0,0 mm 0,0 km/h (0 Bft) S 175 ° 0 min 0,000 mm 0,0 UV-I 0 W/m² 3,4 °C 5,9 °C 0,0 km/h (0 Bft)
07.12.2018 18:20 5,8 °C 84 % 1007,0 hPa 0,0 mm 0,0 km/h (0 Bft) S 175 ° 0 min 0,000 mm 0,0 UV-I 0 W/m² 3,3 °C 5,8 °C 0,0 km/h (0 Bft)
07.12.2018 18:21 5,8 °C 84 % 1007,0 hPa 0,0 mm 0,0 km/h (0 Bft) S 175 ° 0 min 0,000 mm 0,0 UV-I 0 W/m² 3,3 °C 5,8 °C 0,0 km/h (0 Bft)
07.12.2018 18:22 5,8 °C 85 % 1007,1 hPa 0,0 mm 0,0 km/h (0 Bft) S 175 ° 0 min 0,000 mm 0,0 UV-I 0 W/m² 3,5 °C 5,8 °C 0,0 km/h (0 Bft)
07.12.2018 18:23 5,8 °C 86 % 1007,1 hPa 0,0 mm 0,0 km/h (0 Bft) S 175 ° 0 min 0,000 mm 0,0 UV-I 0 W/m² 3,6 °C 5,8 °C 0,0 km/h (0 Bft)
07.12.2018 18:24 5,8 °C 86 % 1007,0 hPa 0,0 mm 0,0 km/h (0 Bft) S 175 ° 0 min 0,000 mm 0,0 UV-I 0 W/m² 3,6 °C 5,8 °C 0,0 km/h (0 Bft)
07.12.2018 18:25 5,7 °C 87 % 1007,1 hPa 0,0 mm 0,0 km/h (0 Bft) S 175 ° 0 min 0,000 mm 0,0 UV-I 0 W/m² 3,7 °C 5,7 °C 0,0 km/h (0 Bft)
07.12.2018 18:26 5,7 °C 87 % 1007,0 hPa 0,0 mm 0,0 km/h (0 Bft) S 175 ° 0 min 0,000 mm 0,0 UV-I 0 W/m² 3,7 °C 5,7 °C 0,0 km/h (0 Bft)
07.12.2018 18:27 5,6 °C 87 % 1007,1 hPa 0,0 mm 0,0 km/h (0 Bft) S 175 ° 0 min 0,000 mm 0,0 UV-I 0 W/m² 3,6 °C 5,6 °C 0,0 km/h (0 Bft)
07.12.2018 18:28 5,6 °C 87 % 1007,1 hPa 0,0 mm 0,0 km/h (0 Bft) S 175 ° 0 min 0,000 mm 0,0 UV-I 0 W/m² 3,6 °C 5,6 °C 0,0 km/h (0 Bft)
07.12.2018 18:29 5,6 °C 87 % 1007,1 hPa 0,0 mm 0,0 km/h (0 Bft) S 175 ° 0 min 0,000 mm 0,0 UV-I 0 W/m² 3,6 °C 5,6 °C 0,0 km/h (0 Bft)
07.12.2018 18:30 5,6 °C 88 % 1007,1 hPa 0,0 mm 0,0 km/h (0 Bft) S 175 ° 0 min 0,000 mm 0,0 UV-I 0 W/m² 3,8 °C 5,6 °C 0,0 km/h (0 Bft)
07.12.2018 18:31 5,6 °C 88 % 1007,2 hPa 0,0 mm 0,0 km/h (0 Bft) S 175 ° 0 min 0,000 mm 0,0 UV-I 0 W/m² 3,8 °C 5,6 °C 0,0 km/h (0 Bft)
07.12.2018 18:32 5,6 °C 88 % 1007,1 hPa 0,0 mm 0,0 km/h (0 Bft) S 175 ° 0 min 0,000 mm 0,0 UV-I 0 W/m² 3,8 °C 5,6 °C 0,0 km/h (0 Bft)
07.12.2018 18:33 5,5 °C 88 % 1007,2 hPa 0,0 mm 0,0 km/h (0 Bft) S 175 ° 0 min 0,000 mm 0,0 UV-I 0 W/m² 3,7 °C 5,5 °C 0,0 km/h (0 Bft)
07.12.2018 18:34 5,6 °C 88 % 1007,2 hPa 0,0 mm 0,2 km/h (0 Bft) S 175 ° 0 min 0,000 mm 0,0 UV-I 0 W/m² 3,8 °C 5,6 °C 1,6 km/h (1 Bft)
07.12.2018 18:35 5,5 °C 88 % 1007,2 hPa 0,0 mm 4,4 km/h (1 Bft) S 175 ° 0 min 0,000 mm 0,0 UV-I 0 W/m² 3,7 °C 5,5 °C 6,4 km/h (2 Bft)
07.12.2018 18:36 5,5 °C 88 % 1007,2 hPa 0,0 mm 3,0 km/h (1 Bft) S 175 ° 0 min 0,000 mm 0,0 UV-I 0 W/m² 3,7 °C 5,5 °C 4,8 km/h (1 Bft)
07.12.2018 18:37 5,5 °C 88 % 1007,2 hPa 0,0 mm 2,2 km/h (1 Bft) S 175 ° 0 min 0,000 mm 0,0 UV-I 0 W/m² 3,7 °C 5,5 °C 3,2 km/h (1 Bft)
07.12.2018 18:38 5,5 °C 88 % 1007,2 hPa 0,0 mm 0,8 km/h (0 Bft) S 175 ° 0 min 0,000 mm 0,0 UV-I 0 W/m² 3,7 °C 5,5 °C 3,2 km/h (1 Bft)
07.12.2018 18:39 5,5 °C 88 % 1007,2 hPa 0,0 mm 2,3 km/h (1 Bft) S 175 ° 0 min 0,000 mm 0,0 UV-I 0 W/m² 3,7 °C 5,5 °C 3,2 km/h (1 Bft)
07.12.2018 18:40 5,5 °C 89 % 1007,1 hPa 0,0 mm 0,1 km/h (0 Bft) S 175 ° 0 min 0,000 mm 0,0 UV-I 0 W/m² 3,8 °C 5,5 °C 1,6 km/h (1 Bft)
07.12.2018 18:41 5,4 °C 88 % 1007,1 hPa 0,0 mm 0,1 km/h (0 Bft) S 175 ° 0 min 0,000 mm 0,0 UV-I 0 W/m² 3,6 °C 5,4 °C 1,6 km/h (1 Bft)
07.12.2018 18:42 5,4 °C 88 % 1007,0 hPa 0,0 mm 0,0 km/h (0 Bft) S 175 ° 0 min 0,000 mm 0,0 UV-I 0 W/m² 3,6 °C 5,4 °C 0,0 km/h (0 Bft)
07.12.2018 18:43 5,4 °C 88 % 1007,0 hPa 0,0 mm 2,6 km/h (1 Bft) S 175 ° 0 min 0,000 mm 0,0 UV-I 0 W/m² 3,6 °C 5,4 °C 4,8 km/h (1 Bft)
07.12.2018 18:44 5,4 °C 89 % 1007,0 hPa 0,0 mm 3,8 km/h (1 Bft) S 175 ° 0 min 0,000 mm 0,0 UV-I 0 W/m² 3,7 °C 5,4 °C 4,8 km/h (1 Bft)
07.12.2018 18:45 5,4 °C 89 % 1007,0 hPa 0,0 mm 3,6 km/h (1 Bft) S 175 ° 0 min 0,000 mm 0,0 UV-I 0 W/m² 3,7 °C 5,4 °C 4,8 km/h (1 Bft)
07.12.2018 18:46 5,4 °C 89 % 1007,1 hPa 0,0 mm 4,1 km/h (1 Bft) W-SW 238 ° 0 min 0,000 mm 0,0 UV-I 0 W/m² 3,7 °C 5,4 °C 6,4 km/h (2 Bft)
07.12.2018 18:47 5,4 °C 89 % 1007,1 hPa 0,0 mm 3,8 km/h (1 Bft) S-SW 209 ° 0 min 0,000 mm 0,0 UV-I 0 W/m² 3,7 °C 5,4 °C 4,8 km/h (1 Bft)
07.12.2018 18:48 5,4 °C 89 % 1007,1 hPa 0,0 mm 4,7 km/h (1 Bft) W 261 ° 0 min 0,000 mm 0,0 UV-I 0 W/m² 3,7 °C 4,7 °C 11,3 km/h (2 Bft)
07.12.2018 18:49 5,4 °C 89 % 1007,1 hPa 0,0 mm 2,6 km/h (1 Bft) W 267 ° 0 min 0,000 mm 0,0 UV-I 0 W/m² 3,7 °C 5,4 °C 6,4 km/h (2 Bft)
07.12.2018 18:50 5,4 °C 89 % 1007,1 hPa 0,0 mm 2,5 km/h (1 Bft) SW 225 ° 0 min 0,000 mm 0,0 UV-I 0 W/m² 3,7 °C 5,4 °C 4,8 km/h (1 Bft)
07.12.2018 18:51 5,5 °C 89 % 1007,0 hPa 0,0 mm 1,3 km/h (1 Bft) SW 225 ° 0 min 0,000 mm 0,0 UV-I 0 W/m² 3,8 °C 5,5 °C 3,2 km/h (1 Bft)
07.12.2018 18:52 5,5 °C 89 % 1006,9 hPa 0,0 mm 2,5 km/h (1 Bft) SW 222 ° 0 min 0,000 mm 0,0 UV-I 0 W/m² 3,8 °C 5,5 °C 3,2 km/h (1 Bft)
07.12.2018 18:53 5,6 °C 89 % 1006,8 hPa 0,0 mm 2,7 km/h (1 Bft) S 191 ° 0 min 0,000 mm 0,0 UV-I 0 W/m² 3,9 °C 5,6 °C 4,8 km/h (1 Bft)
07.12.2018 18:54 5,6 °C 89 % 1006,8 hPa 0,0 mm 2,3 km/h (1 Bft) S 191 ° 0 min 0,000 mm 0,0 UV-I 0 W/m² 3,9 °C 5,6 °C 4,8 km/h (1 Bft)
07.12.2018 18:55 5,6 °C 89 % 1006,9 hPa 0,0 mm 3,8 km/h (1 Bft) S-SW 192 ° 0 min 0,000 mm 0,0 UV-I 0 W/m² 3,9 °C 5,6 °C 4,8 km/h (1 Bft)
07.12.2018 18:56 5,7 °C 89 % 1006,8 hPa 0,0 mm 2,5 km/h (1 Bft) S-SW 192 ° 0 min 0,000 mm 0,0 UV-I 0 W/m² 4,0 °C 5,7 °C 4,8 km/h (1 Bft)
07.12.2018 18:57 5,7 °C 89 % 1006,7 hPa 0,0 mm 4,0 km/h (1 Bft) S 173 ° 0 min 0,000 mm 0,0 UV-I 0 W/m² 4,0 °C 5,7 °C 4,8 km/h (1 Bft)
07.12.2018 18:58 5,7 °C 89 % 1006,5 hPa 0,0 mm 5,8 km/h (2 Bft) S-SO 164 ° 0 min 0,000 mm 0,0 UV-I 0 W/m² 4,0 °C 4,6 °C 8,0 km/h (2 Bft)
07.12.2018 18:59 5,7 °C 89 % 1006,6 hPa 0,0 mm 0,5 km/h (0 Bft) S-SO 164 ° 0 min 0,000 mm 0,0 UV-I 0 W/m² 4,0 °C 5,7 °C 1,6 km/h (1 Bft)
07.12.2018 19:00 5,7 °C 89 % 1006,9 hPa 0,0 mm 2,0 km/h (1 Bft) SW 229 ° 0 min 0,000 mm 0,0 UV-I 0 W/m² 4,0 °C 5,7 °C 4,8 km/h (1 Bft)
07.12.2018 19:01 5,8 °C 89 % 1007,0 hPa 0,0 mm 3,7 km/h (1 Bft) SW 234 ° 0 min 0,000 mm 0,0 UV-I 0 W/m² 4,1 °C 5,8 °C 6,4 km/h (2 Bft)
07.12.2018 19:02 5,8 °C 89 % 1007,0 hPa 0,0 mm 2,8 km/h (1 Bft) SW 223 ° 0 min 0,000 mm 0,0 UV-I 0 W/m² 4,1 °C 5,8 °C 4,8 km/h (1 Bft)
07.12.2018 19:03 5,8 °C 89 % 1007,0 hPa 0,0 mm 0,1 km/h (0 Bft) SW 223 ° 0 min 0,000 mm 0,0 UV-I 0 W/m² 4,1 °C 5,8 °C 1,6 km/h (1 Bft)
07.12.2018 19:04 5,8 °C 89 % 1007,1 hPa 0,0 mm 1,6 km/h (1 Bft) NW 311 ° 0 min 0,000 mm 0,0 UV-I 0 W/m² 4,1 °C 5,8 °C 4,8 km/h (1 Bft)
07.12.2018 19:05 5,8 °C 89 % 1007,3 hPa 0,0 mm 4,5 km/h (1 Bft) NW 307 ° 0 min 0,000 mm 0,0 UV-I 0 W/m² 4,1 °C 5,8 °C 6,4 km/h (2 Bft)
07.12.2018 19:06 5,8 °C 89 % 1007,3 hPa 0,0 mm 2,5 km/h (1 Bft) NW 307 ° 0 min 0,000 mm 0,0 UV-I 0 W/m² 4,1 °C 5,8 °C 4,8 km/h (1 Bft)
07.12.2018 19:07 5,8 °C 89 % 1007,2 hPa 0,0 mm 0,0 km/h (0 Bft) NW 307 ° 0 min 0,000 mm 0,0 UV-I 0 W/m² 4,1 °C 5,8 °C 0,0 km/h (0 Bft)
07.12.2018 19:08 5,8 °C 88 % 1007,2 hPa 0,0 mm 0,0 km/h (0 Bft) NW 307 ° 0 min 0,000 mm 0,0 UV-I 0 W/m² 4,0 °C 5,8 °C 0,0 km/h (0 Bft)
07.12.2018 19:09 5,8 °C 88 % 1007,2 hPa 0,0 mm 0,0 km/h (0 Bft) NW 307 ° 0 min 0,000 mm 0,0 UV-I 0 W/m² 4,0 °C 5,8 °C 0,0 km/h (0 Bft)
07.12.2018 19:10 5,8 °C 89 % 1007,3 hPa 0,0 mm 0,5 km/h (0 Bft) NW 307 ° 0 min 0,000 mm 0,0 UV-I 0 W/m² 4,1 °C 5,8 °C 1,6 km/h (1 Bft)
07.12.2018 19:11 5,8 °C 89 % 1007,3 hPa 0,0 mm 0,5 km/h (0 Bft) NW 307 ° 0 min 0,000 mm 0,0 UV-I 0 W/m² 4,1 °C 5,8 °C 1,6 km/h (1 Bft)
07.12.2018 19:12 5,8 °C 88 % 1007,3 hPa 0,0 mm 1,0 km/h (0 Bft) NW 307 ° 0 min 0,000 mm 0,0 UV-I 0 W/m² 4,0 °C 5,8 °C 1,6 km/h (1 Bft)
07.12.2018 19:13 5,8 °C 88 % 1007,4 hPa 0,0 mm 0,0 km/h (0 Bft) NW 307 ° 0 min 0,000 mm 0,0 UV-I 0 W/m² 4,0 °C 5,8 °C 0,0 km/h (0 Bft)
07.12.2018 19:14 5,8 °C 88 % 1007,3 hPa 0,0 mm 0,3 km/h (0 Bft) W-NW 300 ° 0 min 0,000 mm 0,0 UV-I 0 W/m² 4,0 °C 5,8 °C 3,2 km/h (1 Bft)
07.12.2018 19:15 5,8 °C 88 % 1007,4 hPa 0,0 mm 2,5 km/h (1 Bft) W-NW 300 ° 0 min 0,000 mm 0,0 UV-I 0 W/m² 4,0 °C 5,8 °C 4,8 km/h (1 Bft)
07.12.2018 19:16 5,8 °C 88 % 1007,3 hPa 0,0 mm 0,0 km/h (0 Bft) W-NW 300 ° 0 min 0,000 mm 0,0 UV-I 0 W/m² 4,0 °C 5,8 °C 0,0 km/h (0 Bft)
07.12.2018 19:17 5,8 °C 89 % 1007,4 hPa 0,0 mm 0,6 km/h (0 Bft) W-SW 249 ° 0 min 0,000 mm 0,0 UV-I 0 W/m² 4,1 °C 5,8 °C 3,2 km/h (1 Bft)
07.12.2018 19:18 5,8 °C 89 % 1007,4 hPa 0,0 mm 6,6 km/h (2 Bft) S-SW 210 ° 0 min 0,000 mm 0,0 UV-I 0 W/m² 4,1 °C 4,5 °C 12,9 km/h (3 Bft)
07.12.2018 19:19 5,8 °C 89 % 1007,4 hPa 0,0 mm 3,8 km/h (1 Bft) S-SW 193 ° 0 min 0,000 mm 0,0 UV-I 0 W/m² 4,1 °C 5,8 °C 4,8 km/h (1 Bft)
07.12.2018 19:20 5,9 °C 89 % 1007,3 hPa 0,0 mm 3,4 km/h (1 Bft) SW 218 ° 0 min 0,000 mm 0,0 UV-I 0 W/m² 4,2 °C 5,9 °C 4,8 km/h (1 Bft)
07.12.2018 19:21 5,9 °C 89 % 1007,4 hPa 0,0 mm 3,5 km/h (1 Bft) W-SW 252 ° 0 min 0,000 mm 0,0 UV-I 0 W/m² 4,2 °C 5,9 °C 4,8 km/h (1 Bft)
07.12.2018 19:22 5,9 °C 89 % 1007,3 hPa 0,0 mm 3,5 km/h (1 Bft) W-SW 250 ° 0 min 0,000 mm 0,0 UV-I 0 W/m² 4,2 °C 5,9 °C 4,8 km/h (1 Bft)
07.12.2018 19:23 5,9 °C 89 % 1007,3 hPa 0,0 mm 4,1 km/h (1 Bft) W 267 ° 0 min 0,000 mm 0,0 UV-I 0 W/m² 4,2 °C 5,9 °C 11,3 km/h (2 Bft)
07.12.2018 19:24 5,9 °C 89 % 1007,3 hPa 0,0 mm 6,6 km/h (2 Bft) W 266 ° 0 min 0,000 mm 0,0 UV-I 0 W/m² 4,2 °C 4,6 °C 12,9 km/h (3 Bft)
07.12.2018 19:25 5,9 °C 89 % 1007,3 hPa 0,0 mm 3,8 km/h (1 Bft) W 265 ° 0 min 0,000 mm 0,0 UV-I 0 W/m² 4,2 °C 5,9 °C 6,4 km/h (2 Bft)
07.12.2018 19:26 6,0 °C 89 % 1007,3 hPa 0,0 mm 4,4 km/h (1 Bft) W-SW 254 ° 0 min 0,000 mm 0,0 UV-I 0 W/m² 4,3 °C 6,0 °C 9,7 km/h (2 Bft)
07.12.2018 19:27 6,0 °C 89 % 1007,2 hPa 0,0 mm 4,8 km/h (1 Bft) W-SW 250 ° 0 min 0,000 mm 0,0 UV-I 0 W/m² 4,3 °C 5,3 °C 9,7 km/h (2 Bft)
07.12.2018 19:28 6,1 °C 89 % 1007,3 hPa 0,0 mm 9,9 km/h (2 Bft) W 265 ° 0 min 0,000 mm 0,0 UV-I 0 W/m² 4,4 °C 4,0 °C 14,5 km/h (3 Bft)
07.12.2018 19:29 6,1 °C 89 % 1007,2 hPa 0,0 mm 7,2 km/h (2 Bft) W 269 ° 0 min 0,000 mm 0,0 UV-I 0 W/m² 4,4 °C 4,6 °C 14,5 km/h (3 Bft)
07.12.2018 19:30 6,1 °C 89 % 1007,1 hPa 0,0 mm 3,8 km/h (1 Bft) W-SW 244 ° 0 min 0,000 mm 0,0 UV-I 0 W/m² 4,4 °C 6,1 °C 9,7 km/h (2 Bft)
07.12.2018 19:31 6,1 °C 89 % 1007,1 hPa 0,0 mm 4,3 km/h (1 Bft) W 279 ° 0 min 0,000 mm 0,0 UV-I 0 W/m² 4,4 °C 6,1 °C 8,0 km/h (2 Bft)
07.12.2018 19:32 6,1 °C 89 % 1007,2 hPa 0,0 mm 5,0 km/h (1 Bft) W-NW 294 ° 0 min 0,000 mm 0,0 UV-I 0 W/m² 4,4 °C 5,3 °C 6,4 km/h (2 Bft)
07.12.2018 19:33 6,1 °C 89 % 1007,1 hPa 0,0 mm 5,2 km/h (1 Bft) W 264 ° 0 min 0,000 mm 0,0 UV-I 0 W/m² 4,4 °C 5,3 °C 11,3 km/h (2 Bft)
07.12.2018 19:34 6,1 °C 88 % 1007,2 hPa 0,0 mm 6,8 km/h (2 Bft) W-NW 292 ° 0 min 0,000 mm 0,0 UV-I 0 W/m² 4,3 °C 4,7 °C 11,3 km/h (2 Bft)
07.12.2018 19:35 6,1 °C 89 % 1007,2 hPa 0,0 mm 7,3 km/h (2 Bft) W 259 ° 0 min 0,000 mm 0,0 UV-I 0 W/m² 4,4 °C 4,6 °C 11,3 km/h (2 Bft)
07.12.2018 19:36 6,1 °C 88 % 1007,2 hPa 0,0 mm 5,1 km/h (1 Bft) W 263 ° 0 min 0,000 mm 0,0 UV-I 0 W/m² 4,3 °C 5,3 °C 11,3 km/h (2 Bft)
07.12.2018 19:37 6,1 °C 89 % 1007,3 hPa 0,0 mm 4,6 km/h (1 Bft) W 270 ° 0 min 0,000 mm 0,0 UV-I 0 W/m² 4,4 °C 5,5 °C 6,4 km/h (2 Bft)
07.12.2018 19:38 6,1 °C 89 % 1007,4 hPa 0,0 mm 5,7 km/h (1 Bft) W 261 ° 0 min 0,000 mm 0,0 UV-I 0 W/m² 4,4 °C 5,1 °C 11,3 km/h (2 Bft)
07.12.2018 19:39 6,1 °C 89 % 1007,4 hPa 0,0 mm 6,4 km/h (2 Bft) NW 319 ° 0 min 0,000 mm 0,0 UV-I 0 W/m² 4,4 °C 4,9 °C 14,5 km/h (3 Bft)
07.12.2018 19:40 6,1 °C 89 % 1007,4 hPa 0,0 mm 9,6 km/h (2 Bft) W-SW 254 ° 0 min 0,000 mm 0,0 UV-I 0 W/m² 4,4 °C 4,1 °C 14,5 km/h (3 Bft)
07.12.2018 19:41 6,1 °C 89 % 1007,3 hPa 0,0 mm 6,3 km/h (2 Bft) W 281 ° 0 min 0,000 mm 0,0 UV-I 0 W/m² 4,4 °C 4,9 °C 11,3 km/h (2 Bft)
07.12.2018 19:42 6,1 °C 88 % 1007,4 hPa 0,0 mm 6,1 km/h (2 Bft) W 277 ° 0 min 0,000 mm 0,0 UV-I 0 W/m² 4,3 °C 5,0 °C 9,7 km/h (2 Bft)
07.12.2018 19:43 6,1 °C 89 % 1007,5 hPa 0,0 mm 4,0 km/h (1 Bft) W-SW 243 ° 0 min 0,000 mm 0,0 UV-I 0 W/m² 4,4 °C 6,1 °C 8,0 km/h (2 Bft)
07.12.2018 19:44 6,1 °C 88 % 1007,5 hPa 0,0 mm 5,1 km/h (1 Bft) W-SW 243 ° 0 min 0,000 mm 0,0 UV-I 0 W/m² 4,3 °C 5,3 °C 9,7 km/h (2 Bft)
07.12.2018 19:45 6,1 °C 89 % 1007,5 hPa 0,0 mm 4,5 km/h (1 Bft) W 261 ° 0 min 0,000 mm 0,0 UV-I 0 W/m² 4,4 °C 6,1 °C 6,4 km/h (2 Bft)
07.12.2018 19:46 6,1 °C 89 % 1007,5 hPa 0,0 mm 3,6 km/h (1 Bft) W-SW 243 ° 0 min 0,000 mm 0,0 UV-I 0 W/m² 4,4 °C 6,1 °C 9,7 km/h (2 Bft)
07.12.2018 19:47 6,1 °C 89 % 1007,5 hPa 0,0 mm 8,7 km/h (2 Bft) W-SW 237 ° 0 min 0,000 mm 0,0 UV-I 0 W/m² 4,4 °C 4,3 °C 16,1 km/h (3 Bft)
07.12.2018 19:48 6,2 °C 89 % 1007,4 hPa 0,0 mm 7,7 km/h (2 Bft) W-NW 300 ° 0 min 0,000 mm 0,0 UV-I 0 W/m² 4,5 °C 4,6 °C 11,3 km/h (2 Bft)
07.12.2018 19:49 6,2 °C 89 % 1007,4 hPa 0,0 mm 2,4 km/h (1 Bft) W-NW 293 ° 0 min 0,000 mm 0,0 UV-I 0 W/m² 4,5 °C 6,2 °C 4,8 km/h (1 Bft)
07.12.2018 19:50 6,2 °C 89 % 1007,3 hPa 0,0 mm 6,5 km/h (2 Bft) W 261 ° 0 min 0,000 mm 0,0 UV-I 0 W/m² 4,5 °C 4,9 °C 12,9 km/h (3 Bft)
07.12.2018 19:51 6,2 °C 89 % 1007,4 hPa 0,0 mm 8,0 km/h (2 Bft) W-SW 245 ° 0 min 0,000 mm 0,0 UV-I 0 W/m² 4,5 °C 4,5 °C 12,9 km/h (3 Bft)
07.12.2018 19:52 6,2 °C 89 % 1007,4 hPa 0,0 mm 13,5 km/h (3 Bft) SW 234 ° 0 min 0,000 mm 0,0 UV-I 0 W/m² 4,5 °C 3,5 °C 24,1 km/h (4 Bft)
07.12.2018 19:53 6,3 °C 89 % 1007,4 hPa 0,0 mm 8,8 km/h (2 Bft) W-SW 250 ° 0 min 0,000 mm 0,0 UV-I 0 W/m² 4,6 °C 4,5 °C 11,3 km/h (2 Bft)
07.12.2018 19:54 6,3 °C 89 % 1007,3 hPa 0,0 mm 1,7 km/h (1 Bft) W-SW 242 ° 0 min 0,000 mm 0,0 UV-I 0 W/m² 4,6 °C 6,3 °C 4,8 km/h (1 Bft)
07.12.2018 19:55 6,3 °C 88 % 1007,2 hPa 0,0 mm 5,9 km/h (2 Bft) SW 234 ° 0 min 0,000 mm 0,0 UV-I 0 W/m² 4,5 °C 5,2 °C 12,9 km/h (3 Bft)
07.12.2018 19:56 6,3 °C 88 % 1007,3 hPa 0,0 mm 6,9 km/h (2 Bft) W 267 ° 0 min 0,000 mm 0,0 UV-I 0 W/m² 4,5 °C 5,0 °C 12,9 km/h (3 Bft)
07.12.2018 19:57 6,4 °C 88 % 1007,3 hPa 0,0 mm 10,4 km/h (2 Bft) W 265 ° 0 min 0,000 mm 0,0 UV-I 0 W/m² 4,6 °C 4,3 °C 16,1 km/h (3 Bft)
07.12.2018 19:58 6,4 °C 89 % 1007,4 hPa 0,0 mm 9,2 km/h (2 Bft) W-SW 253 ° 0 min 0,000 mm 0,0 UV-I 0 W/m² 4,7 °C 4,5 °C 12,9 km/h (3 Bft)
07.12.2018 19:59 6,4 °C 88 % 1007,5 hPa 0,0 mm 13,5 km/h (3 Bft) SW 232 ° 0 min 0,000 mm 0,0 UV-I 0 W/m² 4,6 °C 3,7 °C 20,9 km/h (4 Bft)
07.12.2018 20:00 6,4 °C 88 % 1007,4 hPa 0,0 mm 11,7 km/h (2 Bft) W 263 ° 0 min 0,000 mm 0,0 UV-I 0 W/m² 4,6 °C 4,0 °C 22,5 km/h (4 Bft)
07.12.2018 20:01 6,5 °C 88 % 1007,4 hPa 0,0 mm 10,8 km/h (2 Bft) W 263 ° 0 min 0,000 mm 0,0 UV-I 0 W/m² 4,7 °C 4,3 °C 25,7 km/h (4 Bft)
07.12.2018 20:02 6,6 °C 88 % 1007,3 hPa 0,0 mm 12,3 km/h (3 Bft) W-SW 253 ° 0 min 0,000 mm 0,0 UV-I 0 W/m² 4,8 °C 4,1 °C 22,5 km/h (4 Bft)
07.12.2018 20:03 6,6 °C 88 % 1007,3 hPa 0,0 mm 9,7 km/h (2 Bft) W-SW 252 ° 0 min 0,000 mm 0,0 UV-I 0 W/m² 4,8 °C 4,6 °C 16,1 km/h (3 Bft)
07.12.2018 20:04 6,6 °C 88 % 1007,3 hPa 0,0 mm 16,6 km/h (3 Bft) W 275 ° 0 min 0,000 mm 0,0 UV-I 0 W/m² 4,8 °C 3,5 °C 25,7 km/h (4 Bft)
07.12.2018 20:05 6,7 °C 88 % 1007,5 hPa 0,0 mm 14,9 km/h (3 Bft) W 265 ° 0 min 0,000 mm 0,0 UV-I 0 W/m² 4,9 °C 3,9 °C 22,5 km/h (4 Bft)
07.12.2018 20:06 6,7 °C 88 % 1007,4 hPa 0,0 mm 16,0 km/h (3 Bft) W-SW 252 ° 0 min 0,000 mm 0,0 UV-I 0 W/m² 4,9 °C 3,7 °C 29,0 km/h (5 Bft)
07.12.2018 20:07 6,8 °C 88 % 1007,4 hPa 0,0 mm 16,7 km/h (3 Bft) W-SW 256 ° 0 min 0,000 mm 0,0 UV-I 0 W/m² 5,0 °C 3,7 °C 25,7 km/h (4 Bft)
07.12.2018 20:08 6,8 °C 88 % 1007,5 hPa 0,0 mm 14,4 km/h (3 Bft) W-NW 289 ° 0 min 0,000 mm 0,0 UV-I 0 W/m² 5,0 °C 4,1 °C 19,3 km/h (3 Bft)
07.12.2018 20:09 6,8 °C 87 % 1007,5 hPa 0,0 mm 12,8 km/h (3 Bft) W 263 ° 0 min 0,000 mm 0,0 UV-I 0 W/m² 4,8 °C 4,3 °C 16,1 km/h (3 Bft)
07.12.2018 20:10 6,8 °C 87 % 1007,5 hPa 0,0 mm 15,8 km/h (3 Bft) W-SW 249 ° 0 min 0,000 mm 0,0 UV-I 0 W/m² 4,8 °C 3,9 °C 24,1 km/h (4 Bft)
07.12.2018 20:11 6,9 °C 87 % 1007,6 hPa 0,0 mm 19,1 km/h (3 Bft) W 278 ° 0 min 0,000 mm 0,0 UV-I 0 W/m² 4,9 °C 3,6 °C 33,8 km/h (5 Bft)
07.12.2018 20:12 6,9 °C 87 % 1007,7 hPa 0,0 mm 14,7 km/h (3 Bft) W 262 ° 0 min 0,000 mm 0,0 UV-I 0 W/m² 4,9 °C 4,1 °C 27,4 km/h (4 Bft)
07.12.2018 20:13 7,0 °C 87 % 1007,7 hPa 0,0 mm 21,3 km/h (4 Bft) W 271 ° 0 min 0,000 mm 0,0 UV-I 0 W/m² 5,0 °C 3,5 °C 27,4 km/h (4 Bft)
07.12.2018 20:14 7,1 °C 87 % 1007,7 hPa 0,0 mm 17,8 km/h (3 Bft) W 267 ° 0 min 0,000 mm 0,0 UV-I 0 W/m² 5,1 °C 4,0 °C 24,1 km/h (4 Bft)
07.12.2018 20:15 7,1 °C 87 % 1007,7 hPa 0,0 mm 16,5 km/h (3 Bft) S 175 ° 0 min 0,000 mm 0,0 UV-I 0 W/m² 5,1 °C 4,1 °C 22,5 km/h (4 Bft)
07.12.2018 20:16 7,1 °C 87 % 1007,7 hPa 0,0 mm 9,4 km/h (2 Bft) SW 223 ° 0 min 0,000 mm 0,0 UV-I 0 W/m² 5,1 °C 5,3 °C 19,3 km/h (3 Bft)
07.12.2018 20:17 7,1 °C 87 % 1007,7 hPa 0,0 mm 13,1 km/h (3 Bft) S-SW 198 ° 0 min 0,000 mm 0,0 UV-I 0 W/m² 5,1 °C 4,6 °C 17,7 km/h (3 Bft)
07.12.2018 20:18 7,2 °C 86 % 1007,8 hPa 0,0 mm 20,6 km/h (4 Bft) W 262 ° 0 min 0,000 mm 0,0 UV-I 0 W/m² 5,0 °C 3,8 °C 27,4 km/h (4 Bft)
07.12.2018 20:19 7,2 °C 86 % 1007,9 hPa 0,0 mm 19,4 km/h (3 Bft) W-SW 251 ° 0 min 0,000 mm 0,0 UV-I 0 W/m² 5,0 °C 3,9 °C 30,6 km/h (5 Bft)
07.12.2018 20:20 7,2 °C 86 % 1007,8 hPa 0,0 mm 13,9 km/h (3 Bft) W 273 ° 0 min 0,000 mm 0,0 UV-I 0 W/m² 5,0 °C 4,6 °C 24,1 km/h (4 Bft)
07.12.2018 20:21 7,3 °C 86 % 1007,9 hPa 0,0 mm 14,3 km/h (3 Bft) W 279 ° 0 min 0,000 mm 0,0 UV-I 0 W/m² 5,1 °C 4,7 °C 22,5 km/h (4 Bft)
07.12.2018 20:22 7,3 °C 86 % 1007,9 hPa 0,0 mm 14,4 km/h (3 Bft) W-NW 284 ° 0 min 0,000 mm 0,0 UV-I 0 W/m² 5,1 °C 4,7 °C 19,3 km/h (3 Bft)
07.12.2018 20:23 7,3 °C 86 % 1007,8 hPa 0,0 mm 15,5 km/h (3 Bft) W 265 ° 0 min 0,000 mm 0,0 UV-I 0 W/m² 5,1 °C 4,5 °C 22,5 km/h (4 Bft)
07.12.2018 20:24 7,3 °C 86 % 1007,9 hPa 0,0 mm 14,6 km/h (3 Bft) NW 306 ° 0 min 0,000 mm 0,0 UV-I 0 W/m² 5,1 °C 4,6 °C 22,5 km/h (4 Bft)
07.12.2018 20:25 7,3 °C 86 % 1007,7 hPa 0,0 mm 12,9 km/h (3 Bft) W-NW 286 ° 0 min 0,000 mm 0,0 UV-I 0 W/m² 5,1 °C 4,9 °C 17,7 km/h (3 Bft)
07.12.2018 20:26 7,3 °C 85 % 1007,8 hPa 0,0 mm 15,9 km/h (3 Bft) W 267 ° 0 min 0,000 mm 0,0 UV-I 0 W/m² 4,9 °C 4,5 °C 29,0 km/h (5 Bft)
07.12.2018 20:27 7,3 °C 85 % 1007,8 hPa 0,0 mm 17,4 km/h (3 Bft) W-SW 240 ° 0 min 0,000 mm 0,0 UV-I 0 W/m² 4,9 °C 4,3 °C 22,5 km/h (4 Bft)
07.12.2018 20:28 7,4 °C 85 % 1007,7 hPa 0,0 mm 10,4 km/h (2 Bft) SW 229 ° 0 min 0,000 mm 0,0 UV-I 0 W/m² 5,0 °C 5,4 °C 16,1 km/h (3 Bft)
07.12.2018 20:29 7,4 °C 85 % 1007,7 hPa 0,0 mm 12,5 km/h (3 Bft) W 269 ° 0 min 0,000 mm 0,0 UV-I 0 W/m² 5,0 °C 5,1 °C 22,5 km/h (4 Bft)
07.12.2018 20:30 7,4 °C 85 % 1007,7 hPa 0,0 mm 17,7 km/h (3 Bft) W 261 ° 0 min 0,000 mm 0,0 UV-I 0 W/m² 5,0 °C 4,4 °C 22,5 km/h (4 Bft)
07.12.2018 20:31 7,4 °C 85 % 1007,7 hPa 0,0 mm 17,4 km/h (3 Bft) W-NW 287 ° 0 min 0,000 mm 0,0 UV-I 0 W/m² 5,0 °C 4,4 °C 20,9 km/h (4 Bft)
07.12.2018 20:32 7,4 °C 85 % 1007,7 hPa 0,0 mm 12,1 km/h (2 Bft) SW 232 ° 0 min 0,000 mm 0,0 UV-I 0 W/m² 5,0 °C 5,1 °C 16,1 km/h (3 Bft)
07.12.2018 20:33 7,4 °C 85 % 1007,6 hPa 0,0 mm 8,9 km/h (2 Bft) W-NW 286 ° 0 min 0,000 mm 0,0 UV-I 0 W/m² 5,0 °C 5,8 °C 16,1 km/h (3 Bft)
07.12.2018 20:34 7,4 °C 85 % 1007,6 hPa 0,0 mm 12,4 km/h (3 Bft) W-NW 296 ° 0 min 0,000 mm 0,0 UV-I 0 W/m² 5,0 °C 5,1 °C 16,1 km/h (3 Bft)
07.12.2018 20:35 7,4 °C 85 % 1007,6 hPa 0,0 mm 10,7 km/h (2 Bft) W-SW 246 ° 0 min 0,000 mm 0,0 UV-I 0 W/m² 5,0 °C 5,4 °C 14,5 km/h (3 Bft)
07.12.2018 20:36 7,4 °C 85 % 1007,5 hPa 0,0 mm 6,6 km/h (2 Bft) W-NW 285 ° 0 min 0,000 mm 0,0 UV-I 0 W/m² 5,0 °C 6,3 °C 14,5 km/h (3 Bft)
07.12.2018 20:37 7,4 °C 85 % 1007,5 hPa 0,0 mm 13,1 km/h (3 Bft) W 273 ° 0 min 0,000 mm 0,0 UV-I 0 W/m² 5,0 °C 5,0 °C 17,7 km/h (3 Bft)
07.12.2018 20:38 7,5 °C 85 % 1007,4 hPa 0,0 mm 30,2 km/h (5 Bft) W-SW 256 ° 0 min 0,000 mm 0,0 UV-I 0 W/m² 5,1 °C 3,3 °C 41,8 km/h (6 Bft)
07.12.2018 20:39 7,6 °C 84 % 1007,6 hPa 0,2 mm 28,7 km/h (4 Bft) W 263 ° 0 min 0,000 mm 0,0 UV-I 0 W/m² 5,1 °C 3,5 °C 49,9 km/h (6 Bft)
07.12.2018 20:40 7,6 °C 84 % 1007,6 hPa 0,0 mm 30,3 km/h (5 Bft) W 279 ° 0 min 0,000 mm 0,0 UV-I 0 W/m² 5,1 °C 3,4 °C 49,9 km/h (6 Bft)
07.12.2018 20:41 7,7 °C 83 % 1007,5 hPa 0,0 mm 19,9 km/h (4 Bft) W-SW 257 ° 0 min 0,000 mm 0,0 UV-I 0 W/m² 5,0 °C 4,5 °C 30,6 km/h (5 Bft)
07.12.2018 20:42 7,7 °C 83 % 1007,4 hPa 0,0 mm 22,7 km/h (4 Bft) W-NW 296 ° 0 min 0,000 mm 0,0 UV-I 0 W/m² 5,0 °C 4,2 °C 29,0 km/h (5 Bft)
07.12.2018 20:43 7,8 °C 83 % 1007,3 hPa 0,0 mm 18,4 km/h (3 Bft) W 264 ° 0 min 0,000 mm 0,0 UV-I 0 W/m² 5,1 °C 4,8 °C 27,4 km/h (4 Bft)
07.12.2018 20:44 7,8 °C 83 % 1007,4 hPa 0,0 mm 20,8 km/h (4 Bft) W 266 ° 0 min 0,000 mm 0,0 UV-I 0 W/m² 5,1 °C 4,5 °C 25,7 km/h (4 Bft)
07.12.2018 20:45 7,9 °C 83 % 1007,4 hPa 0,0 mm 19,4 km/h (3 Bft) W 279 ° 0 min 0,000 mm 0,0 UV-I 0 W/m² 5,2 °C 4,8 °C 30,6 km/h (5 Bft)
07.12.2018 20:46 7,9 °C 82 % 1007,4 hPa 0,0 mm 18,8 km/h (3 Bft) W-SW 249 ° 0 min 0,000 mm 0,0 UV-I 0 W/m² 5,0 °C 4,9 °C 29,0 km/h (5 Bft)
07.12.2018 20:47 7,9 °C 82 % 1007,4 hPa 0,0 mm 20,6 km/h (4 Bft) W-NW 288 ° 0 min 0,000 mm 0,0 UV-I 0 W/m² 5,0 °C 4,7 °C 35,4 km/h (5 Bft)
07.12.2018 20:48 7,9 °C 82 % 1007,2 hPa 0,0 mm 22,3 km/h (4 Bft) W-NW 297 ° 0 min 0,000 mm 0,0 UV-I 0 W/m² 5,0 °C 4,5 °C 35,4 km/h (5 Bft)
07.12.2018 20:49 8,0 °C 82 % 1007,3 hPa 0,0 mm 20,5 km/h (4 Bft) W-NW 292 ° 0 min 0,000 mm 0,0 UV-I 0 W/m² 5,1 °C 4,8 °C 25,7 km/h (4 Bft)
07.12.2018 20:50 8,0 °C 82 % 1007,2 hPa 0,0 mm 13,8 km/h (3 Bft) S-SW 207 ° 0 min 0,000 mm 0,0 UV-I 0 W/m² 5,1 °C 5,6 °C 27,4 km/h (4 Bft)
07.12.2018 20:51 8,1 °C 81 % 1007,3 hPa 0,0 mm 13,9 km/h (3 Bft) W-NW 296 ° 0 min 0,000 mm 0,0 UV-I 0 W/m² 5,0 °C 5,7 °C 24,1 km/h (4 Bft)
07.12.2018 20:52 8,1 °C 81 % 1007,3 hPa 0,0 mm 23,7 km/h (4 Bft) W 276 ° 0 min 0,000 mm 0,0 UV-I 0 W/m² 5,0 °C 4,6 °C 33,8 km/h (5 Bft)
07.12.2018 20:53 8,1 °C 81 % 1007,3 hPa 0,0 mm 27,6 km/h (4 Bft) W 274 ° 0 min 0,000 mm 0,0 UV-I 0 W/m² 5,0 °C 4,3 °C 49,9 km/h (6 Bft)
07.12.2018 20:54 8,2 °C 81 % 1007,3 hPa 0,0 mm 22,0 km/h (4 Bft) W 269 ° 0 min 0,000 mm 0,0 UV-I 0 W/m² 5,1 °C 4,9 °C 38,6 km/h (5 Bft)
07.12.2018 20:55 8,2 °C 81 % 1007,4 hPa 0,0 mm 28,3 km/h (4 Bft) W 276 ° 0 min 0,000 mm 0,0 UV-I 0 W/m² 5,1 °C 4,4 °C 43,5 km/h (6 Bft)
07.12.2018 20:56 8,3 °C 80 % 1007,3 hPa 0,0 mm 22,7 km/h (4 Bft) W-NW 295 ° 0 min 0,000 mm 0,0 UV-I 0 W/m² 5,1 °C 5,0 °C 32,2 km/h (5 Bft)
07.12.2018 20:57 8,3 °C 80 % 1007,3 hPa 0,0 mm 23,8 km/h (4 Bft) W 281 ° 0 min 0,000 mm 0,0 UV-I 0 W/m² 5,1 °C 4,9 °C 32,2 km/h (5 Bft)
07.12.2018 20:58 8,3 °C 80 % 1007,1 hPa 0,0 mm 28,8 km/h (4 Bft) W 265 ° 0 min 0,000 mm 0,0 UV-I 0 W/m² 5,1 °C 4,4 °C 43,5 km/h (6 Bft)
07.12.2018 20:59 8,4 °C 80 % 1007,3 hPa 0,0 mm 35,7 km/h (5 Bft) W-SW 258 ° 0 min 0,000 mm 0,0 UV-I 0 W/m² 5,2 °C 4,1 °C 51,5 km/h (7 Bft)
07.12.2018 21:00 8,4 °C 79 % 1007,3 hPa 0,0 mm 25,2 km/h (4 Bft) W-SW 242 ° 0 min 0,000 mm 0,0 UV-I 0 W/m² 5,0 °C 4,9 °C 37,0 km/h (5 Bft)
07.12.2018 21:01 8,4 °C 79 % 1007,3 hPa 0,0 mm 26,4 km/h (4 Bft) W-SW 249 ° 0 min 0,025 mm 0,0 UV-I 0 W/m² 5,0 °C 4,8 °C 41,8 km/h (6 Bft)
07.12.2018 21:02 8,5 °C 79 % 1007,4 hPa 0,0 mm 26,8 km/h (4 Bft) W 270 ° 0 min 0,000 mm 0,0 UV-I 0 W/m² 5,1 °C 4,9 °C 37,0 km/h (5 Bft)
07.12.2018 21:03 8,5 °C 79 % 1007,3 hPa 0,0 mm 23,4 km/h (4 Bft) W-SW 253 ° 0 min 0,000 mm 0,0 UV-I 0 W/m² 5,1 °C 5,2 °C 29,0 km/h (5 Bft)
07.12.2018 21:04 8,6 °C 79 % 1007,3 hPa 0,0 mm 21,3 km/h (4 Bft) SW 236 ° 0 min 0,000 mm 0,0 UV-I 0 W/m² 5,2 °C 5,5 °C 30,6 km/h (5 Bft)
07.12.2018 21:05 8,5 °C 79 % 1007,3 hPa 0,0 mm 23,0 km/h (4 Bft) W-SW 257 ° 0 min 0,000 mm 0,0 UV-I 0 W/m² 5,1 °C 5,2 °C 35,4 km/h (5 Bft)
07.12.2018 21:06 8,6 °C 79 % 1007,3 hPa 0,0 mm 27,4 km/h (4 Bft) W 272 ° 0 min 0,000 mm 0,0 UV-I 0 W/m² 5,2 °C 4,9 °C 45,1 km/h (6 Bft)
07.12.2018 21:07 8,6 °C 79 % 1007,3 hPa 0,0 mm 24,6 km/h (4 Bft) NW 311 ° 0 min 0,000 mm 0,0 UV-I 0 W/m² 5,2 °C 5,2 °C 45,1 km/h (6 Bft)
07.12.2018 21:08 8,6 °C 79 % 1007,3 hPa 0,0 mm 24,1 km/h (4 Bft) W 261 ° 0 min 0,000 mm 0,0 UV-I 0 W/m² 5,2 °C 5,2 °C 35,4 km/h (5 Bft)
07.12.2018 21:09 8,6 °C 79 % 1007,3 hPa 0,0 mm 24,3 km/h (4 Bft) NW 317 ° 0 min 0,000 mm 0,0 UV-I 0 W/m² 5,2 °C 5,2 °C 32,2 km/h (5 Bft)
07.12.2018 21:10 8,6 °C 79 % 1007,1 hPa 0,0 mm 17,9 km/h (3 Bft) W-SW 252 ° 0 min 0,000 mm 0,0 UV-I 0 W/m² 5,2 °C 5,8 °C 25,7 km/h (4 Bft)
07.12.2018 21:11 8,6 °C 79 % 1007,3 hPa 0,0 mm 25,1 km/h (4 Bft) W-SW 250 ° 0 min 0,000 mm 0,0 UV-I 0 W/m² 5,2 °C 5,1 °C 38,6 km/h (5 Bft)
07.12.2018 21:12 8,6 °C 78 % 1007,2 hPa 0,0 mm 24,9 km/h (4 Bft) W-NW 296 ° 0 min 0,000 mm 0,0 UV-I 0 W/m² 5,0 °C 5,2 °C 41,8 km/h (6 Bft)
07.12.2018 21:13 8,6 °C 78 % 1007,1 hPa 0,0 mm 19,2 km/h (3 Bft) W 266 ° 0 min 0,000 mm 0,0 UV-I 0 W/m² 5,0 °C 5,7 °C 30,6 km/h (5 Bft)
07.12.2018 21:14 8,6 °C 78 % 1007,2 hPa 0,0 mm 18,1 km/h (3 Bft) W-NW 283 ° 0 min 0,000 mm 0,0 UV-I 0 W/m² 5,0 °C 5,8 °C 24,1 km/h (4 Bft)
07.12.2018 21:15 8,6 °C 78 % 1007,3 hPa 0,0 mm 22,5 km/h (4 Bft) W 268 ° 0 min 0,000 mm 0,0 UV-I 0 W/m² 5,0 °C 5,4 °C 41,8 km/h (6 Bft)
07.12.2018 21:16 8,6 °C 78 % 1007,3 hPa 0,0 mm 27,0 km/h (4 Bft) W 275 ° 0 min 0,000 mm 0,0 UV-I 0 W/m² 5,0 °C 5,0 °C 37,0 km/h (5 Bft)
07.12.2018 21:17 8,6 °C 78 % 1007,2 hPa 0,0 mm 18,5 km/h (3 Bft) W-SW 255 ° 0 min 0,000 mm 0,0 UV-I 0 W/m² 5,0 °C 5,8 °C 27,4 km/h (4 Bft)
07.12.2018 21:18 8,6 °C 78 % 1007,2 hPa 0,0 mm 24,9 km/h (4 Bft) W-NW 295 ° 0 min 0,000 mm 0,0 UV-I 0 W/m² 5,0 °C 5,2 °C 35,4 km/h (5 Bft)
07.12.2018 21:19 8,6 °C 78 % 1007,3 hPa 0,0 mm 18,8 km/h (3 Bft) W 271 ° 0 min 0,000 mm 0,0 UV-I 0 W/m² 5,0 °C 5,7 °C 29,0 km/h (5 Bft)
07.12.2018 21:20 8,6 °C 78 % 1007,3 hPa 0,0 mm 19,8 km/h (3 Bft) W 259 ° 0 min 0,000 mm 0,0 UV-I 0 W/m² 5,0 °C 5,6 °C 24,1 km/h (4 Bft)
07.12.2018 21:21 8,6 °C 78 % 1007,3 hPa 0,0 mm 26,8 km/h (4 Bft) W 279 ° 0 min 0,000 mm 0,0 UV-I 0 W/m² 5,0 °C 5,0 °C 40,2 km/h (6 Bft)
07.12.2018 21:22 8,6 °C 78 % 1007,2 hPa 0,0 mm 19,5 km/h (3 Bft) W 267 ° 0 min 0,000 mm 0,0 UV-I 0 W/m² 5,0 °C 5,7 °C 29,0 km/h (5 Bft)
07.12.2018 21:23 8,6 °C 78 % 1007,2 hPa 0,0 mm 19,3 km/h (3 Bft) W 271 ° 0 min 0,000 mm 0,0 UV-I 0 W/m² 5,0 °C 5,7 °C 32,2 km/h (5 Bft)
07.12.2018 21:24 8,6 °C 78 % 1007,2 hPa 0,0 mm 15,5 km/h (3 Bft) W 263 ° 0 min 0,000 mm 0,0 UV-I 0 W/m² 5,0 °C 6,1 °C 17,7 km/h (3 Bft)
07.12.2018 21:25 8,6 °C 78 % 1007,3 hPa 0,0 mm 17,4 km/h (3 Bft) W-SW 255 ° 0 min 0,000 mm 0,0 UV-I 0 W/m² 5,0 °C 5,9 °C 24,1 km/h (4 Bft)
07.12.2018 21:26 8,6 °C 78 % 1007,3 hPa 0,0 mm 20,9 km/h (4 Bft) W-NW 288 ° 0 min 0,000 mm 0,0 UV-I 0 W/m² 5,0 °C 5,5 °C 29,0 km/h (5 Bft)
07.12.2018 21:27 8,6 °C 78 % 1007,3 hPa 0,0 mm 15,3 km/h (3 Bft) W-NW 283 ° 0 min 0,000 mm 0,0 UV-I 0 W/m² 5,0 °C 6,1 °C 19,3 km/h (3 Bft)
07.12.2018 21:28 8,6 °C 78 % 1007,4 hPa 0,0 mm 23,0 km/h (4 Bft) W 270 ° 0 min 0,000 mm 0,0 UV-I 0 W/m² 5,0 °C 5,3 °C 35,4 km/h (5 Bft)
07.12.2018 21:29 8,6 °C 78 % 1007,2 hPa 0,0 mm 14,5 km/h (3 Bft) NW 308 ° 0 min 0,000 mm 0,0 UV-I 0 W/m² 5,0 °C 6,3 °C 19,3 km/h (3 Bft)
07.12.2018 21:30 8,6 °C 78 % 1007,4 hPa 0,0 mm 17,3 km/h (3 Bft) W 259 ° 0 min 0,000 mm 0,0 UV-I 0 W/m² 5,0 °C 5,9 °C 30,6 km/h (5 Bft)
07.12.2018 21:31 8,6 °C 78 % 1007,2 hPa 0,0 mm 18,9 km/h (3 Bft) W-NW 289 ° 0 min 0,000 mm 0,0 UV-I 0 W/m² 5,0 °C 5,7 °C 27,4 km/h (4 Bft)
07.12.2018 21:32 8,6 °C 77 % 1007,3 hPa 0,0 mm 24,4 km/h (4 Bft) W-NW 290 ° 0 min 0,000 mm 0,0 UV-I 0 W/m² 4,8 °C 5,2 °C 35,4 km/h (5 Bft)
07.12.2018 21:33 8,6 °C 77 % 1007,3 hPa 0,0 mm 21,5 km/h (4 Bft) W 268 ° 0 min 0,000 mm 0,0 UV-I 0 W/m² 4,8 °C 5,5 °C 29,0 km/h (5 Bft)
07.12.2018 21:34 8,6 °C 77 % 1007,3 hPa 0,0 mm 15,2 km/h (3 Bft) W 269 ° 0 min 0,000 mm 0,0 UV-I 0 W/m² 4,8 °C 6,2 °C 22,5 km/h (4 Bft)
07.12.2018 21:35 8,6 °C 77 % 1007,4 hPa 0,0 mm 16,3 km/h (3 Bft) W-NW 284 ° 0 min 0,000 mm 0,0 UV-I 0 W/m² 4,8 °C 6,0 °C 20,9 km/h (4 Bft)
07.12.2018 21:36 8,7 °C 77 % 1007,4 hPa 0,0 mm 14,1 km/h (3 Bft) W-NW 283 ° 0 min 0,000 mm 0,0 UV-I 0 W/m² 4,9 °C 6,4 °C 17,7 km/h (3 Bft)
07.12.2018 21:37 8,7 °C 77 % 1007,4 hPa 0,0 mm 12,9 km/h (3 Bft) W-NW 288 ° 0 min 0,000 mm 0,0 UV-I 0 W/m² 4,9 °C 6,6 °C 19,3 km/h (3 Bft)
07.12.2018 21:38 8,7 °C 77 % 1007,4 hPa 0,0 mm 17,8 km/h (3 Bft) W 277 ° 0 min 0,000 mm 0,0 UV-I 0 W/m² 4,9 °C 6,0 °C 25,7 km/h (4 Bft)
07.12.2018 21:39 8,7 °C 77 % 1007,4 hPa 0,0 mm 19,2 km/h (3 Bft) W 280 ° 0 min 0,000 mm 0,0 UV-I 0 W/m² 4,9 °C 5,8 °C 35,4 km/h (5 Bft)
07.12.2018 21:40 8,7 °C 77 % 1007,5 hPa 0,0 mm 20,4 km/h (4 Bft) W 277 ° 0 min 0,000 mm 0,0 UV-I 0 W/m² 4,9 °C 5,7 °C 29,0 km/h (5 Bft)
07.12.2018 21:41 8,7 °C 77 % 1007,5 hPa 0,0 mm 18,9 km/h (3 Bft) W 273 ° 0 min 0,000 mm 0,0 UV-I 0 W/m² 4,9 °C 5,9 °C 29,0 km/h (5 Bft)
07.12.2018 21:42 8,7 °C 77 % 1007,6 hPa 0,0 mm 19,2 km/h (3 Bft) W-NW 288 ° 0 min 0,000 mm 0,0 UV-I 0 W/m² 4,9 °C 5,8 °C 27,4 km/h (4 Bft)
07.12.2018 21:43 8,7 °C 77 % 1007,5 hPa 0,0 mm 12,2 km/h (2 Bft) W-NW 283 ° 0 min 0,000 mm 0,0 UV-I 0 W/m² 4,9 °C 6,7 °C 20,9 km/h (4 Bft)
07.12.2018 21:44 8,7 °C 77 % 1007,4 hPa 0,0 mm 13,4 km/h (3 Bft) W-NW 292 ° 0 min 0,000 mm 0,0 UV-I 0 W/m² 4,9 °C 6,5 °C 22,5 km/h (4 Bft)
07.12.2018 21:45 8,8 °C 77 % 1007,5 hPa 0,0 mm 12,8 km/h (3 Bft) W-SW 244 ° 0 min 0,000 mm 0,0 UV-I 0 W/m² 5,0 °C 6,7 °C 24,1 km/h (4 Bft)
07.12.2018 21:46 8,7 °C 77 % 1007,4 hPa 0,0 mm 13,9 km/h (3 Bft) W-SW 250 ° 0 min 0,000 mm 0,0 UV-I 0 W/m² 4,9 °C 6,5 °C 22,5 km/h (4 Bft)
07.12.2018 21:47 8,7 °C 77 % 1007,5 hPa 0,0 mm 19,2 km/h (3 Bft) W-SW 249 ° 0 min 0,000 mm 0,0 UV-I 0 W/m² 4,9 °C 5,8 °C 25,7 km/h (4 Bft)
07.12.2018 21:48 8,8 °C 77 % 1007,6 hPa 0,0 mm 18,5 km/h (3 Bft) W-NW 299 ° 0 min 0,000 mm 0,0 UV-I 0 W/m² 5,0 °C 6,0 °C 25,7 km/h (4 Bft)
07.12.2018 21:49 8,8 °C 77 % 1007,6 hPa 0,0 mm 20,4 km/h (4 Bft) W-NW 300 ° 0 min 0,000 mm 0,0 UV-I 0 W/m² 5,0 °C 5,8 °C 29,0 km/h (5 Bft)
07.12.2018 21:50 8,8 °C 77 % 1007,6 hPa 0,0 mm 18,0 km/h (3 Bft) W-SW 248 ° 0 min 0,000 mm 0,0 UV-I 0 W/m² 5,0 °C 6,1 °C 27,4 km/h (4 Bft)
07.12.2018 21:51 8,8 °C 77 % 1007,5 hPa 0,0 mm 10,2 km/h (2 Bft) W-NW 294 ° 0 min 0,000 mm 0,0 UV-I 0 W/m² 5,0 °C 7,2 °C 17,7 km/h (3 Bft)
07.12.2018 21:52 8,8 °C 77 % 1007,5 hPa 0,0 mm 14,5 km/h (3 Bft) W-NW 300 ° 0 min 0,000 mm 0,0 UV-I 0 W/m² 5,0 °C 6,5 °C 19,3 km/h (3 Bft)
07.12.2018 21:53 8,8 °C 77 % 1007,5 hPa 0,0 mm 19,3 km/h (3 Bft) W 281 ° 0 min 0,000 mm 0,0 UV-I 0 W/m² 5,0 °C 5,9 °C 29,0 km/h (5 Bft)
07.12.2018 21:54 8,8 °C 77 % 1007,5 hPa 0,0 mm 20,0 km/h (4 Bft) W-NW 299 ° 0 min 0,000 mm 0,0 UV-I 0 W/m² 5,0 °C 5,9 °C 29,0 km/h (5 Bft)
07.12.2018 21:55 8,8 °C 77 % 1007,5 hPa 0,0 mm 21,4 km/h (4 Bft) W-NW 301 ° 0 min 0,000 mm 0,0 UV-I 0 W/m² 5,0 °C 5,7 °C 35,4 km/h (5 Bft)
07.12.2018 21:56 8,8 °C 77 % 1007,4 hPa 0,0 mm 15,5 km/h (3 Bft) W-SW 252 ° 0 min 0,000 mm 0,0 UV-I 0 W/m² 5,0 °C 6,4 °C 19,3 km/h (3 Bft)
07.12.2018 21:57 8,9 °C 77 % 1007,5 hPa 0,0 mm 19,0 km/h (3 Bft) W 263 ° 0 min 0,000 mm 0,0 UV-I 0 W/m² 5,1 °C 6,1 °C 29,0 km/h (5 Bft)
07.12.2018 21:58 8,8 °C 77 % 1007,5 hPa 0,0 mm 22,0 km/h (4 Bft) W 262 ° 0 min 0,000 mm 0,0 UV-I 0 W/m² 5,0 °C 5,7 °C 29,0 km/h (5 Bft)
07.12.2018 21:59 8,8 °C 77 % 1007,5 hPa 0,0 mm 20,4 km/h (4 Bft) W-NW 282 ° 0 min 0,000 mm 0,0 UV-I 0 W/m² 5,0 °C 5,8 °C 27,4 km/h (4 Bft)
07.12.2018 22:00 8,8 °C 77 % 1007,5 hPa 0,0 mm 29,2 km/h (5 Bft) W 272 ° 0 min 0,000 mm 0,0 UV-I 0 W/m² 5,0 °C 5,1 °C 38,6 km/h (5 Bft)
07.12.2018 22:01 8,9 °C 77 % 1007,5 hPa 0,0 mm 16,4 km/h (3 Bft) W-NW 291 ° 0 min 0,051 mm 0,0 UV-I 0 W/m² 5,1 °C 6,4 °C 20,9 km/h (4 Bft)
07.12.2018 22:02 8,8 °C 77 % 1007,5 hPa 0,0 mm 21,7 km/h (4 Bft) W-SW 238 ° 0 min 0,000 mm 0,0 UV-I 0 W/m² 5,0 °C 5,7 °C 30,6 km/h (5 Bft)
07.12.2018 22:03 8,9 °C 77 % 1007,4 hPa 0,0 mm 24,2 km/h (4 Bft) W-SW 250 ° 0 min 0,000 mm 0,0 UV-I 0 W/m² 5,1 °C 5,6 °C 43,5 km/h (6 Bft)
07.12.2018 22:04 8,8 °C 77 % 1007,4 hPa 0,0 mm 22,7 km/h (4 Bft) N-NW 327 ° 0 min 0,000 mm 0,0 UV-I 0 W/m² 5,0 °C 5,6 °C 29,0 km/h (5 Bft)
07.12.2018 22:05 8,8 °C 77 % 1007,4 hPa 0,0 mm 21,6 km/h (4 Bft) W-SW 256 ° 0 min 0,000 mm 0,0 UV-I 0 W/m² 5,0 °C 5,7 °C 33,8 km/h (5 Bft)
07.12.2018 22:06 8,8 °C 78 % 1007,5 hPa 0,0 mm 22,9 km/h (4 Bft) NW 309 ° 0 min 0,000 mm 0,0 UV-I 0 W/m² 5,2 °C 5,6 °C 35,4 km/h (5 Bft)
07.12.2018 22:07 8,8 °C 78 % 1007,3 hPa 0,0 mm 22,5 km/h (4 Bft) W 279 ° 0 min 0,000 mm 0,0 UV-I 0 W/m² 5,2 °C 5,6 °C 35,4 km/h (5 Bft)
07.12.2018 22:08 8,8 °C 78 % 1007,1 hPa 0,0 mm 21,4 km/h (4 Bft) W 264 ° 0 min 0,000 mm 0,0 UV-I 0 W/m² 5,2 °C 5,7 °C 29,0 km/h (5 Bft)
07.12.2018 22:09 8,7 °C 78 % 1007,1 hPa 0,0 mm 20,5 km/h (4 Bft) W-NW 284 ° 0 min 0,000 mm 0,0 UV-I 0 W/m² 5,1 °C 5,7 °C 29,0 km/h (5 Bft)
07.12.2018 22:10 8,7 °C 78 % 1007,2 hPa 0,0 mm 20,6 km/h (4 Bft) W-SW 254 ° 0 min 0,000 mm 0,0 UV-I 0 W/m² 5,1 °C 5,7 °C 35,4 km/h (5 Bft)
07.12.2018 22:11 8,7 °C 78 % 1007,2 hPa 0,0 mm 21,3 km/h (4 Bft) W-SW 245 ° 0 min 0,000 mm 0,0 UV-I 0 W/m² 5,1 °C 5,6 °C 40,2 km/h (6 Bft)
07.12.2018 22:12 8,7 °C 78 % 1007,1 hPa 0,0 mm 26,1 km/h (4 Bft) W-SW 252 ° 0 min 0,000 mm 0,0 UV-I 0 W/m² 5,1 °C 5,2 °C 43,5 km/h (6 Bft)
07.12.2018 22:13 8,7 °C 78 % 1007,1 hPa 0,0 mm 26,5 km/h (4 Bft) W-SW 250 ° 0 min 0,000 mm 0,0 UV-I 0 W/m² 5,1 °C 5,1 °C 37,0 km/h (5 Bft)
07.12.2018 22:14 8,6 °C 79 % 1007,1 hPa 0,0 mm 22,4 km/h (4 Bft) W 273 ° 0 min 0,000 mm 0,0 UV-I 0 W/m² 5,2 °C 5,4 °C 29,0 km/h (5 Bft)
07.12.2018 22:15 8,6 °C 79 % 1007,0 hPa 0,0 mm 23,4 km/h (4 Bft) W-NW 285 ° 0 min 0,000 mm 0,0 UV-I 0 W/m² 5,2 °C 5,3 °C 30,6 km/h (5 Bft)
07.12.2018 22:16 8,6 °C 79 % 1007,0 hPa 0,0 mm 21,7 km/h (4 Bft) W 259 ° 0 min 0,000 mm 0,0 UV-I 0 W/m² 5,2 °C 5,4 °C 27,4 km/h (4 Bft)
07.12.2018 22:17 8,6 °C 79 % 1007,0 hPa 0,0 mm 26,5 km/h (4 Bft) NW 317 ° 0 min 0,000 mm 0,0 UV-I 0 W/m² 5,2 °C 5,0 °C 40,2 km/h (6 Bft)
07.12.2018 22:18 8,5 °C 80 % 1006,8 hPa 0,0 mm 22,5 km/h (4 Bft) W 264 ° 0 min 0,000 mm 0,0 UV-I 0 W/m² 5,3 °C 5,2 °C 35,4 km/h (5 Bft)
07.12.2018 22:19 8,5 °C 80 % 1006,8 hPa 0,0 mm 18,6 km/h (3 Bft) W-SW 246 ° 0 min 0,000 mm 0,0 UV-I 0 W/m² 5,3 °C 5,6 °C 24,1 km/h (4 Bft)
07.12.2018 22:20 8,4 °C 80 % 1006,7 hPa 0,0 mm 15,9 km/h (3 Bft) W-NW 284 ° 0 min 0,000 mm 0,0 UV-I 0 W/m² 5,2 °C 5,8 °C 35,4 km/h (5 Bft)
07.12.2018 22:21 8,4 °C 80 % 1006,8 hPa 0,0 mm 11,7 km/h (2 Bft) W-SW 257 ° 0 min 0,000 mm 0,0 UV-I 0 W/m² 5,2 °C 6,4 °C 17,7 km/h (3 Bft)
07.12.2018 22:22 8,3 °C 81 % 1006,8 hPa 0,0 mm 13,0 km/h (3 Bft) W 262 ° 0 min 0,000 mm 0,0 UV-I 0 W/m² 5,2 °C 6,1 °C 20,9 km/h (4 Bft)
07.12.2018 22:23 8,3 °C 81 % 1006,7 hPa 0,0 mm 15,9 km/h (3 Bft) W-SW 237 ° 0 min 0,000 mm 0,0 UV-I 0 W/m² 5,2 °C 5,7 °C 20,9 km/h (4 Bft)
07.12.2018 22:24 8,3 °C 81 % 1006,7 hPa 0,0 mm 12,3 km/h (3 Bft) W 267 ° 0 min 0,000 mm 0,0 UV-I 0 W/m² 5,2 °C 6,2 °C 19,3 km/h (3 Bft)
07.12.2018 22:25 8,3 °C 81 % 1006,7 hPa 0,0 mm 13,3 km/h (3 Bft) SW 235 ° 0 min 0,000 mm 0,0 UV-I 0 W/m² 5,2 °C 6,1 °C 16,1 km/h (3 Bft)
07.12.2018 22:26 8,2 °C 81 % 1006,7 hPa 0,0 mm 10,4 km/h (2 Bft) SW 223 ° 0 min 0,000 mm 0,0 UV-I 0 W/m² 5,1 °C 6,4 °C 22,5 km/h (4 Bft)
07.12.2018 22:27 8,2 °C 81 % 1006,6 hPa 0,0 mm 10,6 km/h (2 Bft) W-SW 258 ° 0 min 0,000 mm 0,0 UV-I 0 W/m² 5,1 °C 6,4 °C 14,5 km/h (3 Bft)
07.12.2018 22:28 8,2 °C 81 % 1006,6 hPa 0,0 mm 13,3 km/h (3 Bft) W 265 ° 0 min 0,000 mm 0,0 UV-I 0 W/m² 5,1 °C 5,9 °C 22,5 km/h (4 Bft)
07.12.2018 22:29 8,2 °C 81 % 1006,6 hPa 0,0 mm 20,3 km/h (4 Bft) W 280 ° 0 min 0,000 mm 0,0 UV-I 0 W/m² 5,1 °C 5,1 °C 27,4 km/h (4 Bft)
07.12.2018 22:30 8,2 °C 81 % 1006,6 hPa 0,0 mm 14,3 km/h (3 Bft) W 274 ° 0 min 0,000 mm 0,0 UV-I 0 W/m² 5,1 °C 5,8 °C 20,9 km/h (4 Bft)
07.12.2018 22:31 8,1 °C 81 % 1006,6 hPa 0,0 mm 14,5 km/h (3 Bft) W 259 ° 0 min 0,000 mm 0,0 UV-I 0 W/m² 5,0 °C 5,6 °C 19,3 km/h (3 Bft)
07.12.2018 22:32 8,1 °C 81 % 1006,7 hPa 0,0 mm 12,2 km/h (2 Bft) W-SW 243 ° 0 min 0,000 mm 0,0 UV-I 0 W/m² 5,0 °C 6,0 °C 17,7 km/h (3 Bft)
07.12.2018 22:33 8,1 °C 81 % 1006,6 hPa 0,0 mm 10,1 km/h (2 Bft) W 277 ° 0 min 0,000 mm 0,0 UV-I 0 W/m² 5,0 °C 6,3 °C 14,5 km/h (3 Bft)
07.12.2018 22:34 8,1 °C 81 % 1006,6 hPa 0,0 mm 16,4 km/h (3 Bft) W 270 ° 0 min 0,000 mm 0,0 UV-I 0 W/m² 5,0 °C 5,4 °C 25,7 km/h (4 Bft)
07.12.2018 22:35 8,1 °C 81 % 1006,6 hPa 0,0 mm 14,6 km/h (3 Bft) W 259 ° 0 min 0,000 mm 0,0 UV-I 0 W/m² 5,0 °C 5,6 °C 17,7 km/h (3 Bft)
07.12.2018 22:36 8,1 °C 81 % 1006,6 hPa 0,0 mm 10,3 km/h (2 Bft) W-SW 240 ° 0 min 0,000 mm 0,0 UV-I 0 W/m² 5,0 °C 6,3 °C 16,1 km/h (3 Bft)
07.12.2018 22:37 8,1 °C 82 % 1006,6 hPa 0,0 mm 9,9 km/h (2 Bft) W-SW 238 ° 0 min 0,000 mm 0,0 UV-I 0 W/m² 5,2 °C 6,4 °C 17,7 km/h (3 Bft)
07.12.2018 22:38 8,1 °C 81 % 1006,5 hPa 0,0 mm 11,7 km/h (2 Bft) S 186 ° 0 min 0,000 mm 0,0 UV-I 0 W/m² 5,0 °C 6,1 °C 16,1 km/h (3 Bft)
07.12.2018 22:39 8,0 °C 81 % 1006,6 hPa 0,0 mm 15,4 km/h (3 Bft) W 269 ° 0 min 0,000 mm 0,0 UV-I 0 W/m² 4,9 °C 5,4 °C 32,2 km/h (5 Bft)
07.12.2018 22:40 8,0 °C 81 % 1006,5 hPa 0,0 mm 14,4 km/h (3 Bft) W-SW 256 ° 0 min 0,000 mm 0,0 UV-I 0 W/m² 4,9 °C 5,5 °C 17,7 km/h (3 Bft)
07.12.2018 22:41 8,0 °C 81 % 1006,6 hPa 0,0 mm 9,7 km/h (2 Bft) W-SW 257 ° 0 min 0,000 mm 0,0 UV-I 0 W/m² 4,9 °C 6,3 °C 14,5 km/h (3 Bft)
07.12.2018 22:42 8,1 °C 81 % 1006,4 hPa 0,0 mm 13,2 km/h (3 Bft) W-NW 294 ° 0 min 0,000 mm 0,0 UV-I 0 W/m² 5,0 °C 5,8 °C 20,9 km/h (4 Bft)
07.12.2018 22:43 8,0 °C 81 % 1006,4 hPa 0,0 mm 13,5 km/h (3 Bft) W 269 ° 0 min 0,000 mm 0,0 UV-I 0 W/m² 4,9 °C 5,7 °C 20,9 km/h (4 Bft)
07.12.2018 22:44 8,0 °C 81 % 1006,5 hPa 0,0 mm 12,5 km/h (3 Bft) W 273 ° 0 min 0,000 mm 0,0 UV-I 0 W/m² 4,9 °C 5,8 °C 16,1 km/h (3 Bft)
07.12.2018 22:45 8,0 °C 81 % 1006,4 hPa 0,0 mm 11,4 km/h (2 Bft) SW 233 ° 0 min 0,000 mm 0,0 UV-I 0 W/m² 4,9 °C 6,0 °C 17,7 km/h (3 Bft)
07.12.2018 22:46 8,0 °C 81 % 1006,4 hPa 0,0 mm 9,8 km/h (2 Bft) W 261 ° 0 min 0,000 mm 0,0 UV-I 0 W/m² 4,9 °C 6,3 °C 19,3 km/h (3 Bft)
07.12.2018 22:47 8,1 °C 81 % 1006,4 hPa 0,0 mm 13,2 km/h (3 Bft) W 281 ° 0 min 0,000 mm 0,0 UV-I 0 W/m² 5,0 °C 5,8 °C 20,9 km/h (4 Bft)
07.12.2018 22:48 8,1 °C 81 % 1006,4 hPa 0,0 mm 11,3 km/h (2 Bft) NW 305 ° 0 min 0,000 mm 0,0 UV-I 0 W/m² 5,0 °C 6,1 °C 19,3 km/h (3 Bft)
07.12.2018 22:49 8,0 °C 81 % 1006,3 hPa 0,0 mm 10,6 km/h (2 Bft) W-SW 237 ° 0 min 0,000 mm 0,0 UV-I 0 W/m² 4,9 °C 6,1 °C 20,9 km/h (4 Bft)
07.12.2018 22:50 8,1 °C 81 % 1006,3 hPa 0,0 mm 20,3 km/h (4 Bft) W 265 ° 0 min 0,000 mm 0,0 UV-I 0 W/m² 5,0 °C 4,9 °C 27,4 km/h (4 Bft)
07.12.2018 22:51 8,1 °C 81 % 1006,2 hPa 0,0 mm 15,9 km/h (3 Bft) W-NW 292 ° 0 min 0,000 mm 0,0 UV-I 0 W/m² 5,0 °C 5,5 °C 20,9 km/h (4 Bft)
07.12.2018 22:52 8,1 °C 81 % 1006,2 hPa 0,0 mm 14,0 km/h (3 Bft) W 265 ° 0 min 0,000 mm 0,0 UV-I 0 W/m² 5,0 °C 5,7 °C 20,9 km/h (4 Bft)
07.12.2018 22:53 8,1 °C 81 % 1006,1 hPa 0,0 mm 9,0 km/h (2 Bft) W 277 ° 0 min 0,000 mm 0,0 UV-I 0 W/m² 5,0 °C 6,6 °C 14,5 km/h (3 Bft)
07.12.2018 22:54 8,1 °C 81 % 1006,1 hPa 0,0 mm 16,1 km/h (3 Bft) W-SW 246 ° 0 min 0,000 mm 0,0 UV-I 0 W/m² 5,0 °C 5,4 °C 25,7 km/h (4 Bft)
07.12.2018 22:55 8,1 °C 81 % 1006,1 hPa 0,0 mm 11,1 km/h (2 Bft) W-SW 254 ° 0 min 0,000 mm 0,0 UV-I 0 W/m² 5,0 °C 6,2 °C 19,3 km/h (3 Bft)
07.12.2018 22:56 8,1 °C 81 % 1006,0 hPa 0,0 mm 16,0 km/h (3 Bft) W-SW 257 ° 0 min 0,000 mm 0,0 UV-I 0 W/m² 5,0 °C 5,4 °C 24,1 km/h (4 Bft)
07.12.2018 22:57 8,1 °C 81 % 1006,0 hPa 0,0 mm 11,9 km/h (2 Bft) W 270 ° 0 min 0,000 mm 0,0 UV-I 0 W/m² 5,0 °C 6,0 °C 16,1 km/h (3 Bft)
07.12.2018 22:58 8,1 °C 81 % 1006,1 hPa 0,0 mm 11,3 km/h (2 Bft) W 259 ° 0 min 0,000 mm 0,0 UV-I 0 W/m² 5,0 °C 6,1 °C 19,3 km/h (3 Bft)
07.12.2018 22:59 8,1 °C 81 % 1006,0 hPa 0,0 mm 12,6 km/h (3 Bft) W-SW 252 ° 0 min 0,000 mm 0,0 UV-I 0 W/m² 5,0 °C 5,9 °C 19,3 km/h (3 Bft)
07.12.2018 23:00 8,1 °C 81 % 1006,0 hPa 0,0 mm 15,5 km/h (3 Bft) W-SW 239 ° 0 min 0,000 mm 0,0 UV-I 0 W/m² 5,0 °C 5,5 °C 24,1 km/h (4 Bft)
07.12.2018 23:01 8,1 °C 81 % 1006,0 hPa 0,0 mm 16,1 km/h (3 Bft) W-NW 290 ° 0 min 0,026 mm 0,0 UV-I 0 W/m² 5,0 °C 5,4 °C 27,4 km/h (4 Bft)
07.12.2018 23:02 8,1 °C 81 % 1005,8 hPa 0,0 mm 14,6 km/h (3 Bft) W 263 ° 0 min 0,000 mm 0,0 UV-I 0 W/m² 5,0 °C 5,6 °C 22,5 km/h (4 Bft)
07.12.2018 23:03 8,1 °C 81 % 1006,0 hPa 0,0 mm 11,3 km/h (2 Bft) W-SW 244 ° 0 min 0,000 mm 0,0 UV-I 0 W/m² 5,0 °C 6,1 °C 16,1 km/h (3 Bft)
07.12.2018 23:04 8,1 °C 81 % 1005,9 hPa 0,0 mm 11,3 km/h (2 Bft) W-SW 248 ° 0 min 0,000 mm 0,0 UV-I 0 W/m² 5,0 °C 6,1 °C 14,5 km/h (3 Bft)
07.12.2018 23:05 8,1 °C 81 % 1006,0 hPa 0,0 mm 12,3 km/h (3 Bft) SW 228 ° 0 min 0,000 mm 0,0 UV-I 0 W/m² 5,0 °C 6,0 °C 19,3 km/h (3 Bft)
07.12.2018 23:06 8,1 °C 81 % 1006,0 hPa 0,0 mm 10,5 km/h (2 Bft) W 265 ° 0 min 0,000 mm 0,0 UV-I 0 W/m² 5,0 °C 6,3 °C 16,1 km/h (3 Bft)
07.12.2018 23:07 8,1 °C 80 % 1005,9 hPa 0,0 mm 10,1 km/h (2 Bft) W-SW 257 ° 0 min 0,000 mm 0,0 UV-I 0 W/m² 4,9 °C 6,3 °C 17,7 km/h (3 Bft)
07.12.2018 23:08 8,1 °C 81 % 1005,9 hPa 0,0 mm 14,5 km/h (3 Bft) W-NW 286 ° 0 min 0,000 mm 0,0 UV-I 0 W/m² 5,0 °C 5,6 °C 19,3 km/h (3 Bft)
07.12.2018 23:09 8,1 °C 80 % 1005,9 hPa 0,0 mm 13,5 km/h (3 Bft) W 272 ° 0 min 0,000 mm 0,0 UV-I 0 W/m² 4,9 °C 5,8 °C 22,5 km/h (4 Bft)
07.12.2018 23:10 8,1 °C 80 % 1005,9 hPa 0,0 mm 9,7 km/h (2 Bft) W 271 ° 0 min 0,000 mm 0,0 UV-I 0 W/m² 4,9 °C 6,4 °C 14,5 km/h (3 Bft)
07.12.2018 23:11 8,1 °C 80 % 1005,9 hPa 0,0 mm 12,7 km/h (3 Bft) SW 234 ° 0 min 0,000 mm 0,0 UV-I 0 W/m² 4,9 °C 5,9 °C 14,5 km/h (3 Bft)
07.12.2018 23:12 8,1 °C 80 % 1006,1 hPa 0,0 mm 10,0 km/h (2 Bft) S-SW 213 ° 0 min 0,000 mm 0,0 UV-I 0 W/m² 4,9 °C 6,4 °C 16,1 km/h (3 Bft)
07.12.2018 23:13 8,1 °C 80 % 1006,0 hPa 0,0 mm 14,3 km/h (3 Bft) W 267 ° 0 min 0,000 mm 0,0 UV-I 0 W/m² 4,9 °C 5,7 °C 24,1 km/h (4 Bft)
07.12.2018 23:14 8,1 °C 80 % 1006,0 hPa 0,0 mm 16,7 km/h (3 Bft) W-SW 256 ° 0 min 0,000 mm 0,0 UV-I 0 W/m² 4,9 °C 5,4 °C 22,5 km/h (4 Bft)
07.12.2018 23:15 8,1 °C 80 % 1006,1 hPa 0,0 mm 14,9 km/h (3 Bft) W-SW 257 ° 0 min 0,000 mm 0,0 UV-I 0 W/m² 4,9 °C 5,6 °C 22,5 km/h (4 Bft)
07.12.2018 23:16 8,1 °C 80 % 1006,0 hPa 0,0 mm 19,8 km/h (3 Bft) W-SW 258 ° 0 min 0,000 mm 0,0 UV-I 0 W/m² 4,9 °C 5,0 °C 27,4 km/h (4 Bft)
07.12.2018 23:17 8,1 °C 80 % 1006,1 hPa 0,0 mm 13,9 km/h (3 Bft) W 276 ° 0 min 0,000 mm 0,0 UV-I 0 W/m² 4,9 °C 5,7 °C 20,9 km/h (4 Bft)
07.12.2018 23:18 8,1 °C 80 % 1005,9 hPa 0,0 mm 18,0 km/h (3 Bft) W 263 ° 0 min 0,000 mm 0,0 UV-I 0 W/m² 4,9 °C 5,2 °C 27,4 km/h (4 Bft)
07.12.2018 23:19 8,2 °C 80 % 1006,0 hPa 0,0 mm 13,9 km/h (3 Bft) W-SW 257 ° 0 min 0,000 mm 0,0 UV-I 0 W/m² 5,0 °C 5,8 °C 24,1 km/h (4 Bft)
07.12.2018 23:20 8,2 °C 80 % 1006,0 hPa 0,0 mm 15,4 km/h (3 Bft) W 269 ° 0 min 0,000 mm 0,0 UV-I 0 W/m² 5,0 °C 5,6 °C 22,5 km/h (4 Bft)
07.12.2018 23:21 8,2 °C 80 % 1006,1 hPa 0,0 mm 12,4 km/h (3 Bft) W-SW 252 ° 0 min 0,000 mm 0,0 UV-I 0 W/m² 5,0 °C 6,1 °C 20,9 km/h (4 Bft)
07.12.2018 23:22 8,2 °C 80 % 1006,0 hPa 0,0 mm 15,7 km/h (3 Bft) W 265 ° 0 min 0,000 mm 0,0 UV-I 0 W/m² 5,0 °C 5,6 °C 20,9 km/h (4 Bft)
07.12.2018 23:23 8,2 °C 80 % 1005,9 hPa 0,0 mm 11,1 km/h (2 Bft) W 275 ° 0 min 0,000 mm 0,0 UV-I 0 W/m² 5,0 °C 6,3 °C 17,7 km/h (3 Bft)
07.12.2018 23:24 8,2 °C 80 % 1006,0 hPa 0,0 mm 16,0 km/h (3 Bft) W-SW 237 ° 0 min 0,000 mm 0,0 UV-I 0 W/m² 5,0 °C 5,6 °C 20,9 km/h (4 Bft)
07.12.2018 23:25 8,2 °C 80 % 1006,0 hPa 0,0 mm 6,9 km/h (2 Bft) W-SW 254 ° 0 min 0,000 mm 0,0 UV-I 0 W/m² 5,0 °C 7,2 °C 12,9 km/h (3 Bft)
07.12.2018 23:26 8,2 °C 79 % 1006,0 hPa 0,0 mm 18,7 km/h (3 Bft) W-SW 237 ° 0 min 0,000 mm 0,0 UV-I 0 W/m² 4,8 °C 5,2 °C 30,6 km/h (5 Bft)
07.12.2018 23:27 8,2 °C 79 % 1006,0 hPa 0,0 mm 13,2 km/h (3 Bft) W 273 ° 0 min 0,000 mm 0,0 UV-I 0 W/m² 4,8 °C 5,9 °C 16,1 km/h (3 Bft)
07.12.2018 23:28 8,2 °C 79 % 1006,1 hPa 0,0 mm 10,1 km/h (2 Bft) W 259 ° 0 min 0,000 mm 0,0 UV-I 0 W/m² 4,8 °C 6,5 °C 14,5 km/h (3 Bft)
07.12.2018 23:29 8,2 °C 80 % 1006,3 hPa 0,0 mm 13,3 km/h (3 Bft) SW 225 ° 0 min 0,000 mm 0,0 UV-I 0 W/m² 5,0 °C 5,9 °C 22,5 km/h (4 Bft)
07.12.2018 23:30 8,2 °C 79 % 1006,2 hPa 0,0 mm 10,7 km/h (2 Bft) W 261 ° 0 min 0,000 mm 0,0 UV-I 0 W/m² 4,8 °C 6,4 °C 17,7 km/h (3 Bft)
07.12.2018 23:31 8,2 °C 79 % 1006,2 hPa 0,0 mm 7,7 km/h (2 Bft) W 263 ° 0 min 0,000 mm 0,0 UV-I 0 W/m² 4,8 °C 7,0 °C 11,3 km/h (2 Bft)
07.12.2018 23:32 8,2 °C 79 % 1006,3 hPa 0,0 mm 13,7 km/h (3 Bft) W 273 ° 0 min 0,000 mm 0,0 UV-I 0 W/m² 4,8 °C 5,9 °C 20,9 km/h (4 Bft)
07.12.2018 23:33 8,3 °C 79 % 1006,4 hPa 0,0 mm 17,6 km/h (3 Bft) W 270 ° 0 min 0,000 mm 0,0 UV-I 0 W/m² 4,9 °C 5,5 °C 27,4 km/h (4 Bft)
07.12.2018 23:34 8,3 °C 79 % 1006,4 hPa 0,0 mm 16,5 km/h (3 Bft) W-SW 239 ° 0 min 0,000 mm 0,0 UV-I 0 W/m² 4,9 °C 5,6 °C 22,5 km/h (4 Bft)
07.12.2018 23:35 8,3 °C 79 % 1006,5 hPa 0,0 mm 19,2 km/h (3 Bft) NW 309 ° 0 min 0,000 mm 0,0 UV-I 0 W/m² 4,9 °C 5,3 °C 27,4 km/h (4 Bft)
07.12.2018 23:36 8,3 °C 79 % 1006,6 hPa 0,0 mm 20,0 km/h (4 Bft) W 279 ° 0 min 0,000 mm 0,0 UV-I 0 W/m² 4,9 °C 5,2 °C 30,6 km/h (5 Bft)
07.12.2018 23:37 8,4 °C 79 % 1006,8 hPa 0,0 mm 14,5 km/h (3 Bft) W 271 ° 0 min 0,000 mm 0,0 UV-I 0 W/m² 5,0 °C 6,0 °C 25,7 km/h (4 Bft)
07.12.2018 23:38 8,4 °C 80 % 1007,1 hPa 0,0 mm 29,2 km/h (5 Bft) W-NW 284 ° 0 min 0,000 mm 0,0 UV-I 0 W/m² 5,2 °C 4,5 °C 45,1 km/h (6 Bft)
07.12.2018 23:39 8,4 °C 81 % 1007,1 hPa 0,0 mm 20,3 km/h (4 Bft) W-NW 292 ° 0 min 0,000 mm 0,0 UV-I 0 W/m² 5,3 °C 5,3 °C 27,4 km/h (4 Bft)
07.12.2018 23:40 8,4 °C 81 % 1007,3 hPa 0,0 mm 18,8 km/h (3 Bft) W 281 ° 0 min 0,000 mm 0,0 UV-I 0 W/m² 5,3 °C 5,5 °C 27,4 km/h (4 Bft)
07.12.2018 23:41 8,3 °C 82 % 1007,6 hPa 0,2 mm 27,3 km/h (4 Bft) W-NW 283 ° 0 min 0,000 mm 0,0 UV-I 0 W/m² 5,4 °C 4,6 °C 40,2 km/h (6 Bft)
07.12.2018 23:42 8,3 °C 82 % 1007,7 hPa 0,2 mm 24,9 km/h (4 Bft) W 271 ° 0 min 0,000 mm 0,0 UV-I 0 W/m² 5,4 °C 4,8 °C 43,5 km/h (6 Bft)
07.12.2018 23:43 8,1 °C 82 % 1007,8 hPa 0,0 mm 29,0 km/h (5 Bft) W-NW 286 ° 0 min 0,000 mm 0,0 UV-I 0 W/m² 5,2 °C 4,2 °C 40,2 km/h (6 Bft)
07.12.2018 23:44 7,9 °C 82 % 1007,8 hPa 0,0 mm 25,5 km/h (4 Bft) NW 316 ° 0 min 0,000 mm 0,0 UV-I 0 W/m² 5,0 °C 4,2 °C 35,4 km/h (5 Bft)
07.12.2018 23:45 7,8 °C 83 % 1007,8 hPa 0,0 mm 28,7 km/h (4 Bft) W-NW 293 ° 0 min 0,000 mm 0,0 UV-I 0 W/m² 5,1 °C 3,8 °C 38,6 km/h (5 Bft)
07.12.2018 23:46 7,6 °C 83 % 1007,9 hPa 0,2 mm 21,6 km/h (4 Bft) W-NW 294 ° 0 min 0,000 mm 0,0 UV-I 0 W/m² 4,9 °C 4,2 °C 29,0 km/h (5 Bft)
07.12.2018 23:47 7,4 °C 83 % 1007,9 hPa 0,0 mm 29,1 km/h (5 Bft) W-SW 251 ° 0 min 0,000 mm 0,0 UV-I 0 W/m² 4,7 °C 3,3 °C 43,5 km/h (6 Bft)
07.12.2018 23:48 7,2 °C 84 % 1007,9 hPa 0,0 mm 25,5 km/h (4 Bft) W-NW 295 ° 0 min 0,000 mm 0,0 UV-I 0 W/m² 4,7 °C 3,3 °C 40,2 km/h (6 Bft)
07.12.2018 23:49 6,9 °C 84 % 1008,0 hPa 0,0 mm 25,4 km/h (4 Bft) W-NW 303 ° 0 min 0,000 mm 0,0 UV-I 0 W/m² 4,4 °C 2,9 °C 35,4 km/h (5 Bft)
07.12.2018 23:50 6,8 °C 84 % 1008,1 hPa 0,0 mm 19,6 km/h (3 Bft) W 279 ° 0 min 0,000 mm 0,0 UV-I 0 W/m² 4,3 °C 3,4 °C 27,4 km/h (4 Bft)
07.12.2018 23:51 6,7 °C 85 % 1008,2 hPa 0,0 mm 20,7 km/h (4 Bft) W-NW 293 ° 0 min 0,000 mm 0,0 UV-I 0 W/m² 4,4 °C 3,1 °C 29,0 km/h (5 Bft)
07.12.2018 23:52 6,6 °C 85 % 1008,5 hPa 0,0 mm 22,9 km/h (4 Bft) NW 324 ° 0 min 0,000 mm 0,0 UV-I 0 W/m² 4,3 °C 2,8 °C 38,6 km/h (5 Bft)
07.12.2018 23:53 6,4 °C 86 % 1008,2 hPa 0,0 mm 20,0 km/h (4 Bft) W 274 ° 0 min 0,000 mm 0,0 UV-I 0 W/m² 4,2 °C 2,8 °C 30,6 km/h (5 Bft)
07.12.2018 23:54 6,3 °C 86 % 1008,3 hPa 0,0 mm 23,7 km/h (4 Bft) W 274 ° 0 min 0,000 mm 0,0 UV-I 0 W/m² 4,1 °C 2,3 °C 37,0 km/h (5 Bft)
07.12.2018 23:55 6,2 °C 86 % 1008,2 hPa 0,0 mm 23,3 km/h (4 Bft) W-SW 258 ° 0 min 0,000 mm 0,0 UV-I 0 W/m² 4,0 °C 2,2 °C 37,0 km/h (5 Bft)
07.12.2018 23:56 6,1 °C 86 % 1008,4 hPa 0,0 mm 26,9 km/h (4 Bft) W 259 ° 0 min 0,000 mm 0,0 UV-I 0 W/m² 3,9 °C 1,8 °C 48,3 km/h (6 Bft)
07.12.2018 23:57 6,1 °C 86 % 1008,4 hPa 0,0 mm 24,7 km/h (4 Bft) W-NW 284 ° 0 min 0,000 mm 0,0 UV-I 0 W/m² 3,9 °C 2,0 °C 32,2 km/h (5 Bft)
07.12.2018 23:58 5,9 °C 86 % 1008,6 hPa 0,0 mm 30,2 km/h (5 Bft) W-NW 286 ° 0 min 0,000 mm 0,0 UV-I 0 W/m² 3,7 °C 1,2 °C 53,1 km/h (7 Bft)
07.12.2018 23:59 5,8 °C 86 % 1008,5 hPa 0,0 mm 19,2 km/h (3 Bft) W-NW 292 ° 0 min 0,000 mm 0,0 UV-I 0 W/m² 3,6 °C 2,2 °C 33,8 km/h (5 Bft)
_ Min-Zeit 00:12 14:19 23:02 - 19:16 - - - - - - 00:12 23:58 19:16
Minimum _ 4,3 °C 72 % 1005,8 hPa - 0,0 km/h (0 Bft) - - - - - - 3,3 °C 1,2 °C 0,0 km/h (0 Bft)
_ Max-Zeit 14:16 00:42 00:43 23:46 20:59 - - 23:59 13:01 12:39 12:32 13:49 14:16 23:58
Maximum _ 11,2 °C 93 % 1021,6 hPa 0,2 mm 35,7 km/h
W-SW (5 Bft)
- - 0 min 0,101 mm 1,1 UV-I 213 W/m² 7,6 °C 11,2 °C 53,1 km/h
W (7 Bft)
Durchschnitt _ 8,2 °C 82 % 1013,7 hPa #0,8 mm 5,3 km/h (1 Bft) S-SW - #0 min. #0,610 mm 0,7 UV-I 27 W/m² 5,3 °C 7,5 °C 8,5 km/h (2 Bft)